Time,TemperatureF,DewpointF,PressureIn,WindDirection,WindDirectionDegrees,WindSpeedMPH,WindSpeedGustMPH,Humidity,HourlyPrecipIn,Conditions,Clouds,dailyrainin,SoftwareType,DateUTC
2013-02-23 00:00:00,42.6,37.4,29.90,North,0,0.0,4.2,82,0.00,,,0.00,WUHU216HW,2013-02-23 06:00:00,
2013-02-23 00:01:00,42.6,37.4,29.90,NNE,23,4.0,4.2,82,0.00,,,0.00,WUHU216HW,2013-02-23 06:01:00,
2013-02-23 00:02:00,42.6,37.4,29.90,NNE,23,4.0,4.2,82,0.00,,,0.00,WUHU216HW,2013-02-23 06:02:00,
2013-02-23 00:03:00,42.6,37.4,29.90,NE,45,2.2,4.0,82,0.00,,,0.00,WUHU216HW,2013-02-23 06:03:00,
2013-02-23 00:04:00,42.6,37.4,29.90,NE,45,2.2,4.0,82,0.00,,,0.00,WUHU216HW,2013-02-23 06:04:00,
2013-02-23 00:05:00,42.6,37.4,29.90,North,0,2.2,4.0,82,0.00,,,0.00,WUHU216HW,2013-02-23 06:05:00,
2013-02-23 00:06:00,42.6,37.4,29.90,North,0,2.2,4.0,82,0.00,,,0.00,WUHU216HW,2013-02-23 06:06:00,
2013-02-23 00:07:00,42.4,37.2,29.90,North,0,2.0,4.0,82,0.00,,,0.00,WUHU216HW,2013-02-23 06:07:00,
2013-02-23 00:08:00,42.4,37.2,29.90,North,0,2.0,4.0,82,0.00,,,0.00,WUHU216HW,2013-02-23 06:08:00,
2013-02-23 00:09:00,42.4,36.9,29.90,North,0,0.0,4.0,81,0.00,,,0.00,WUHU216HW,2013-02-23 06:09:00,
2013-02-23 00:10:00,42.4,36.9,29.90,North,0,0.0,4.0,81,0.00,,,0.00,WUHU216HW,2013-02-23 06:10:00,
2013-02-23 00:11:00,42.4,36.9,29.90,North,0,0.0,4.0,81,0.00,,,0.00,WUHU216HW,2013-02-23 06:11:00,
2013-02-23 00:12:00,42.4,36.9,29.90,North,0,0.0,2.2,81,0.00,,,0.00,WUHU216HW,2013-02-23 06:12:00,
2013-02-23 00:13:00,42.4,36.9,29.90,WNW,293,0.0,2.2,81,0.00,,,0.00,WUHU216HW,2013-02-23 06:13:00,
2013-02-23 00:14:00,42.4,36.9,29.90,WNW,293,0.0,2.2,81,0.00,,,0.00,WUHU216HW,2013-02-23 06:14:00,
2013-02-23 00:15:00,42.4,36.9,29.91,WNW,293,0.0,2.2,81,0.00,,,0.00,WUHU216HW,2013-02-23 06:15:00,
2013-02-23 00:16:00,42.4,36.9,29.91,North,0,0.0,2.0,81,0.00,,,0.00,WUHU216HW,2013-02-23 06:16:00,
2013-02-23 00:17:00,42.4,36.9,29.91,North,0,0.0,2.0,81,0.00,,,0.00,WUHU216HW,2013-02-23 06:17:00,
2013-02-23 00:18:00,42.4,36.9,29.92,WNW,293,0.0,0.0,81,0.00,,,0.00,WUHU216HW,2013-02-23 06:18:00,
2013-02-23 00:19:00,42.4,36.9,29.92,WNW,293,0.0,0.0,81,0.00,,,0.00,WUHU216HW,2013-02-23 06:19:00,
2013-02-23 00:20:00,42.2,36.8,29.92,WNW,293,0.0,0.0,81,0.00,,,0.00,WUHU216HW,2013-02-23 06:20:00,
2013-02-23 00:21:00,42.2,36.8,29.92,WNW,293,0.0,0.0,81,0.00,,,0.00,WUHU216HW,2013-02-23 06:21:00,
2013-02-23 00:22:00,42.0,36.6,29.92,WNW,293,0.0,0.0,81,0.00,,,0.00,WUHU216HW,2013-02-23 06:22:00,
2013-02-23 00:23:00,42.0,36.6,29.92,WNW,293,0.0,0.0,81,0.00,,,0.00,WUHU216HW,2013-02-23 06:23:00,
2013-02-23 00:24:00,42.0,36.6,29.92,WNW,293,0.0,0.0,81,0.00,,,0.00,WUHU216HW,2013-02-23 06:24:00,
2013-02-23 00:25:00,42.0,36.6,29.93,WNW,293,0.0,0.0,81,0.00,,,0.00,WUHU216HW,2013-02-23 06:25:00,
2013-02-23 00:26:00,42.0,36.6,29.92,North,0,0.0,0.0,81,0.00,,,0.00,WUHU216HW,2013-02-23 06:26:00,
2013-02-23 00:27:00,42.0,36.6,29.92,North,0,0.0,0.0,81,0.00,,,0.00,WUHU216HW,2013-02-23 06:27:00,
2013-02-23 00:28:00,42.0,36.6,29.92,NNE,23,1.3,1.3,81,0.00,,,0.00,WUHU216HW,2013-02-23 06:28:00,
2013-02-23 00:29:00,42.0,36.6,29.92,NNE,23,1.3,1.3,81,0.00,,,0.00,WUHU216HW,2013-02-23 06:29:00,
2013-02-23 00:30:00,42.0,36.6,29.92,NNE,23,1.3,1.3,81,0.00,,,0.00,WUHU216HW,2013-02-23 06:30:00,
2013-02-23 00:31:00,42.0,36.6,29.93,NNW,338,0.0,1.3,81,0.00,,,0.00,WUHU216HW,2013-02-23 06:31:00,
2013-02-23 00:32:00,42.0,36.6,29.92,NNW,338,0.0,1.3,81,0.00,,,0.00,WUHU216HW,2013-02-23 06:32:00,
2013-02-23 00:33:00,42.0,36.6,29.92,NNW,338,0.0,1.3,81,0.00,,,0.00,WUHU216HW,2013-02-23 06:33:00,
2013-02-23 00:34:00,42.0,36.6,29.93,NNW,338,0.0,1.3,81,0.00,,,0.00,WUHU216HW,2013-02-23 06:34:00,
2013-02-23 00:35:00,41.9,36.4,29.93,NW,315,1.3,1.3,81,0.00,,,0.00,WUHU216HW,2013-02-23 06:35:00,
2013-02-23 00:36:00,41.9,36.4,29.93,NW,315,1.3,1.3,81,0.00,,,0.00,WUHU216HW,2013-02-23 06:36:00,
2013-02-23 00:37:00,42.0,36.3,29.92,WNW,293,0.0,1.3,80,0.00,,,0.00,WUHU216HW,2013-02-23 06:37:00,
2013-02-23 00:38:00,42.0,36.3,29.92,WNW,293,0.0,1.3,80,0.00,,,0.00,WUHU216HW,2013-02-23 06:38:00,
2013-02-23 00:39:00,42.0,36.3,29.92,North,0,1.7,1.7,80,0.00,,,0.00,WUHU216HW,2013-02-23 06:39:00,
2013-02-23 00:40:00,42.0,36.3,29.92,North,0,1.7,1.7,80,0.00,,,0.00,WUHU216HW,2013-02-23 06:40:00,
2013-02-23 00:41:00,41.9,36.1,29.92,NNW,338,1.5,1.7,80,0.00,,,0.00,WUHU216HW,2013-02-23 06:41:00,
2013-02-23 00:42:00,41.9,36.1,29.92,NNW,338,1.5,1.7,80,0.00,,,0.00,WUHU216HW,2013-02-23 06:42:00,
2013-02-23 00:43:00,41.7,36.1,29.92,NNW,338,1.1,1.7,80,0.00,,,0.00,WUHU216HW,2013-02-23 06:43:00,
2013-02-23 00:44:00,41.7,35.9,29.92,NNW,338,1.1,1.7,80,0.00,,,0.00,WUHU216HW,2013-02-23 06:44:00,
2013-02-23 00:45:00,41.7,35.9,29.92,NNW,338,1.1,1.7,80,0.00,,,0.00,WUHU216HW,2013-02-23 06:45:00,
2013-02-23 00:46:00,41.7,35.9,29.92,NNW,338,0.0,1.7,80,0.00,,,0.00,WUHU216HW,2013-02-23 06:46:00,
2013-02-23 00:47:00,41.7,35.9,29.92,NNW,338,0.0,1.7,80,0.00,,,0.00,WUHU216HW,2013-02-23 06:47:00,
2013-02-23 00:48:00,41.5,36.0,29.92,North,0,1.3,1.7,81,0.00,,,0.00,WUHU216HW,2013-02-23 06:48:00,
2013-02-23 00:49:00,41.5,36.0,29.92,North,0,1.3,1.7,81,0.00,,,0.00,WUHU216HW,2013-02-23 06:49:00,
2013-02-23 00:50:00,41.5,36.0,29.92,North,0,1.3,1.5,81,0.00,,,0.00,WUHU216HW,2013-02-23 06:50:00,
2013-02-23 00:51:00,41.5,36.0,29.92,North,0,1.3,1.5,81,0.00,,,0.00,WUHU216HW,2013-02-23 06:51:00,
2013-02-23 00:52:00,41.5,35.7,29.92,North,0,2.0,2.0,80,0.00,,,0.00,WUHU216HW,2013-02-23 06:52:00,
2013-02-23 00:53:00,41.5,35.7,29.92,North,0,2.0,2.0,80,0.00,,,0.00,WUHU216HW,2013-02-23 06:53:00,
2013-02-23 00:54:00,41.5,35.7,29.92,North,0,4.2,4.2,80,0.00,,,0.00,WUHU216HW,2013-02-23 06:54:00,
2013-02-23 00:55:00,41.5,35.7,29.92,North,0,4.2,4.2,80,0.00,,,0.00,WUHU216HW,2013-02-23 06:55:00,
2013-02-23 00:56:00,41.5,35.7,29.92,North,0,0.0,4.2,80,0.00,,,0.00,WUHU216HW,2013-02-23 06:56:00,
2013-02-23 00:57:00,41.5,35.7,29.93,North,0,0.0,4.2,80,0.00,,,0.00,WUHU216HW,2013-02-23 06:57:00,
2013-02-23 00:58:00,41.3,35.7,29.92,North,0,0.0,4.2,80,0.00,,,0.00,WUHU216HW,2013-02-23 06:58:00,
2013-02-23 00:59:00,41.3,35.6,29.92,NNW,338,2.9,4.2,80,0.00,,,0.00,WUHU216HW,2013-02-23 06:59:00,
2013-02-23 01:00:00,41.3,35.6,29.92,NNW,338,2.9,4.2,80,0.00,,,0.00,WUHU216HW,2013-02-23 07:00:00,
2013-02-23 01:01:00,41.3,35.6,29.93,NW,315,0.0,4.2,80,0.00,,,0.00,WUHU216HW,2013-02-23 07:01:00,
2013-02-23 01:02:00,41.3,35.6,29.92,NW,315,0.0,4.2,80,0.00,,,0.00,WUHU216HW,2013-02-23 07:02:00,
2013-02-23 01:03:00,41.3,35.6,29.92,NNW,338,1.5,4.2,80,0.00,,,0.00,WUHU216HW,2013-02-23 07:03:00,
2013-02-23 01:04:00,41.3,35.6,29.92,NNW,338,1.5,4.2,80,0.00,,,0.00,WUHU216HW,2013-02-23 07:04:00,
2013-02-23 01:05:00,41.3,35.6,29.92,NNE,23,1.7,2.9,80,0.00,,,0.00,WUHU216HW,2013-02-23 07:05:00,
2013-02-23 01:06:00,41.3,35.6,29.93,NNE,23,1.7,2.9,80,0.00,,,0.00,WUHU216HW,2013-02-23 07:06:00,
2013-02-23 01:07:00,41.1,35.4,29.92,NNW,338,1.5,2.9,80,0.00,,,0.00,WUHU216HW,2013-02-23 07:07:00,
2013-02-23 01:08:00,41.1,35.4,29.93,NNW,338,1.5,2.9,80,0.00,,,0.00,WUHU216HW,2013-02-23 07:08:00,
2013-02-23 01:09:00,41.3,35.9,29.92,North,0,1.7,2.9,81,0.00,,,0.00,WUHU216HW,2013-02-23 07:09:00,
2013-02-23 01:10:00,41.3,35.9,29.92,North,0,1.7,2.9,81,0.00,,,0.00,WUHU216HW,2013-02-23 07:10:00,
2013-02-23 01:11:00,41.1,35.4,29.92,North,0,2.6,2.6,80,0.00,,,0.00,WUHU216HW,2013-02-23 07:11:00,
2013-02-23 01:12:00,41.1,35.4,29.92,North,0,2.6,2.6,80,0.00,,,0.00,WUHU216HW,2013-02-23 07:12:00,
2013-02-23 01:13:00,41.1,35.4,29.92,North,0,1.5,2.6,80,0.00,,,0.00,WUHU216HW,2013-02-23 07:13:00,
2013-02-23 01:14:00,41.1,35.7,29.92,North,0,1.5,2.6,81,0.00,,,0.00,WUHU216HW,2013-02-23 07:14:00,
2013-02-23 01:15:00,41.1,35.7,29.93,North,0,1.5,2.6,81,0.00,,,0.00,WUHU216HW,2013-02-23 07:15:00,
2013-02-23 01:16:00,41.1,35.7,29.93,North,0,0.0,2.6,81,0.00,,,0.00,WUHU216HW,2013-02-23 07:16:00,
2013-02-23 01:17:00,41.1,35.7,29.93,North,0,0.0,2.6,81,0.00,,,0.00,WUHU216HW,2013-02-23 07:17:00,
2013-02-23 01:18:00,41.0,35.5,29.92,North,0,0.0,2.6,81,0.00,,,0.00,WUHU216HW,2013-02-23 07:18:00,
2013-02-23 01:19:00,41.0,35.5,29.92,North,0,0.0,2.6,81,0.00,,,0.00,WUHU216HW,2013-02-23 07:19:00,
2013-02-23 01:20:00,41.0,35.5,29.93,North,0,0.0,2.6,81,0.00,,,0.00,WUHU216HW,2013-02-23 07:20:00,
2013-02-23 01:21:00,41.0,35.5,29.92,North,0,0.0,2.6,81,0.00,,,0.00,WUHU216HW,2013-02-23 07:21:00,
2013-02-23 01:22:00,40.8,35.3,29.93,North,0,0.0,1.5,81,0.00,,,0.00,WUHU216HW,2013-02-23 07:22:00,
2013-02-23 01:23:00,40.8,35.3,29.93,North,0,0.0,1.5,81,0.00,,,0.00,WUHU216HW,2013-02-23 07:23:00,
2013-02-23 01:24:00,40.8,35.3,29.93,North,0,0.0,1.5,81,0.00,,,0.00,WUHU216HW,2013-02-23 07:24:00,
2013-02-23 01:25:00,40.8,35.3,29.93,North,0,0.0,0.0,81,0.00,,,0.00,WUHU216HW,2013-02-23 07:25:00,
2013-02-23 01:26:00,40.8,35.3,29.93,North,0,1.3,1.3,81,0.00,,,0.00,WUHU216HW,2013-02-23 07:26:00,
2013-02-23 01:27:00,40.8,35.3,29.93,North,0,1.3,1.3,81,0.00,,,0.00,WUHU216HW,2013-02-23 07:27:00,
2013-02-23 01:28:00,40.8,35.3,29.93,North,0,0.0,1.3,81,0.00,,,0.00,WUHU216HW,2013-02-23 07:28:00,
2013-02-23 01:29:00,40.8,35.3,29.93,North,0,0.0,1.3,81,0.00,,,0.00,WUHU216HW,2013-02-23 07:29:00,
2013-02-23 01:30:00,40.8,35.3,29.92,North,0,0.0,1.3,81,0.00,,,0.00,WUHU216HW,2013-02-23 07:30:00,
2013-02-23 01:31:00,40.8,35.3,29.93,North,0,4.6,4.6,81,0.00,,,0.00,WUHU216HW,2013-02-23 07:31:00,
2013-02-23 01:32:00,40.8,35.3,29.93,North,0,4.6,4.6,81,0.00,,,0.00,WUHU216HW,2013-02-23 07:32:00,
2013-02-23 01:33:00,40.8,35.6,29.93,North,0,1.3,4.6,82,0.00,,,0.00,WUHU216HW,2013-02-23 07:33:00,
2013-02-23 01:34:00,40.8,35.6,29.92,North,0,1.3,4.6,82,0.00,,,0.00,WUHU216HW,2013-02-23 07:34:00,
2013-02-23 01:35:00,40.8,35.6,29.92,NNW,338,2.0,4.6,82,0.00,,,0.00,WUHU216HW,2013-02-23 07:35:00,
2013-02-23 01:36:00,40.8,35.6,29.92,NNW,338,2.0,4.6,82,0.00,,,0.00,WUHU216HW,2013-02-23 07:36:00,
2013-02-23 01:37:00,40.6,35.5,29.92,North,0,3.8,4.6,82,0.00,,,0.00,WUHU216HW,2013-02-23 07:37:00,
2013-02-23 01:38:00,40.6,35.5,29.92,North,0,3.8,4.6,82,0.00,,,0.00,WUHU216HW,2013-02-23 07:38:00,
2013-02-23 01:39:00,40.6,35.5,29.92,NNW,338,0.0,4.6,82,0.00,,,0.00,WUHU216HW,2013-02-23 07:39:00,
2013-02-23 01:40:00,40.6,35.5,29.92,NNW,338,0.0,4.6,82,0.00,,,0.00,WUHU216HW,2013-02-23 07:40:00,
2013-02-23 01:41:00,40.6,35.5,29.92,NW,315,0.0,4.6,82,0.00,,,0.00,WUHU216HW,2013-02-23 07:41:00,
2013-02-23 01:42:00,40.6,35.5,29.92,NW,315,0.0,3.8,82,0.00,,,0.00,WUHU216HW,2013-02-23 07:42:00,
2013-02-23 01:43:00,40.4,35.0,29.92,NNW,338,0.0,3.8,81,0.00,,,0.00,WUHU216HW,2013-02-23 07:43:00,
2013-02-23 01:44:00,40.4,35.0,29.92,NNW,338,0.0,3.8,81,0.00,,,0.00,WUHU216HW,2013-02-23 07:44:00,
2013-02-23 01:45:00,40.2,35.0,29.92,NNW,338,0.0,3.8,81,0.00,,,0.00,WUHU216HW,2013-02-23 07:45:00,
2013-02-23 01:46:00,40.2,34.8,29.92,North,0,4.2,4.2,81,0.00,,,0.00,WUHU216HW,2013-02-23 07:46:00,
2013-02-23 01:47:00,40.2,34.8,29.92,North,0,4.2,4.2,81,0.00,,,0.00,WUHU216HW,2013-02-23 07:47:00,
2013-02-23 01:48:00,40.2,34.5,29.92,North,0,2.0,4.2,80,0.00,,,0.00,WUHU216HW,2013-02-23 07:48:00,
2013-02-23 01:49:00,40.2,34.5,29.92,North,0,2.0,4.2,80,0.00,,,0.00,WUHU216HW,2013-02-23 07:49:00,
2013-02-23 01:50:00,40.2,34.5,29.92,North,0,2.0,4.2,80,0.00,,,0.00,WUHU216HW,2013-02-23 07:50:00,
2013-02-23 01:51:00,40.2,34.5,29.92,North,0,2.0,4.2,80,0.00,,,0.00,WUHU216HW,2013-02-23 07:51:00,
2013-02-23 01:52:00,40.1,34.4,29.92,NNW,338,1.5,4.2,80,0.00,,,0.00,WUHU216HW,2013-02-23 07:52:00,
2013-02-23 01:53:00,40.1,34.4,29.91,NNW,338,1.5,4.2,80,0.00,,,0.00,WUHU216HW,2013-02-23 07:53:00,
2013-02-23 01:54:00,39.9,34.2,29.91,NNW,338,1.5,4.2,80,0.00,,,0.00,WUHU216HW,2013-02-23 07:54:00,
2013-02-23 01:55:00,39.9,34.2,29.92,NNW,338,1.5,4.2,80,0.00,,,0.00,WUHU216HW,2013-02-23 07:55:00,
2013-02-23 01:56:00,39.9,34.2,29.92,NNW,338,0.0,4.2,80,0.00,,,0.00,WUHU216HW,2013-02-23 07:56:00,
2013-02-23 01:57:00,39.9,34.2,29.92,NNW,338,0.0,2.0,80,0.00,,,0.00,WUHU216HW,2013-02-23 07:57:00,
2013-02-23 01:58:00,39.7,34.2,29.92,NNW,338,2.0,2.0,80,0.00,,,0.00,WUHU216HW,2013-02-23 07:58:00,
2013-02-23 01:59:00,39.7,34.1,29.92,NNW,338,2.0,2.0,80,0.00,,,0.00,WUHU216HW,2013-02-23 07:59:00,
2013-02-23 02:00:00,39.7,34.1,29.92,NW,315,4.4,4.4,80,0.00,,,0.00,WUHU216HW,2013-02-23 08:00:00,
2013-02-23 02:01:00,39.7,34.1,29.92,NW,315,4.4,4.4,80,0.00,,,0.00,WUHU216HW,2013-02-23 08:01:00,
2013-02-23 02:02:00,39.7,34.1,29.91,NW,315,4.4,4.4,80,0.00,,,0.00,WUHU216HW,2013-02-23 08:02:00,
2013-02-23 02:03:00,39.7,33.7,29.91,North,0,2.4,4.4,79,0.00,,,0.00,WUHU216HW,2013-02-23 08:03:00,
2013-02-23 02:04:00,39.7,33.7,29.92,North,0,2.4,4.4,79,0.00,,,0.00,WUHU216HW,2013-02-23 08:04:00,
2013-02-23 02:05:00,39.5,33.6,29.92,North,0,3.1,4.4,79,0.00,,,0.00,WUHU216HW,2013-02-23 08:05:00,
2013-02-23 02:06:00,39.5,33.6,29.92,North,0,3.1,4.4,79,0.00,,,0.00,WUHU216HW,2013-02-23 08:06:00,
2013-02-23 02:07:00,39.5,33.6,29.92,NW,315,3.5,4.4,79,0.00,,,0.00,WUHU216HW,2013-02-23 08:07:00,
2013-02-23 02:08:00,39.5,33.6,29.92,NW,315,3.5,4.4,79,0.00,,,0.00,WUHU216HW,2013-02-23 08:08:00,
2013-02-23 02:09:00,39.5,33.6,29.92,WNW,293,0.0,4.4,79,0.00,,,0.00,WUHU216HW,2013-02-23 08:09:00,
2013-02-23 02:10:00,39.5,33.6,29.92,WNW,293,0.0,4.4,79,0.00,,,0.00,WUHU216HW,2013-02-23 08:10:00,
2013-02-23 02:11:00,39.3,33.4,29.92,WNW,293,0.0,4.4,79,0.00,,,0.00,WUHU216HW,2013-02-23 08:11:00,
2013-02-23 02:12:00,39.3,33.4,29.92,WNW,293,0.0,3.5,79,0.00,,,0.00,WUHU216HW,2013-02-23 08:12:00,
2013-02-23 02:13:00,39.3,33.4,29.92,WNW,293,0.0,3.5,79,0.00,,,0.00,WUHU216HW,2013-02-23 08:13:00,
2013-02-23 02:14:00,39.3,33.4,29.92,WNW,293,0.0,3.5,79,0.00,,,0.00,WUHU216HW,2013-02-23 08:14:00,
2013-02-23 02:15:00,39.3,33.4,29.92,WNW,293,0.0,3.5,79,0.00,,,0.00,WUHU216HW,2013-02-23 08:15:00,
2013-02-23 02:16:00,39.3,33.4,29.92,NW,315,0.0,3.5,79,0.00,,,0.00,WUHU216HW,2013-02-23 08:16:00,
2013-02-23 02:17:00,39.3,33.4,29.91,NW,315,0.0,3.5,79,0.00,,,0.00,WUHU216HW,2013-02-23 08:17:00,
2013-02-23 02:18:00,39.3,33.0,29.92,WNW,293,0.0,0.0,78,0.00,,,0.00,WUHU216HW,2013-02-23 08:18:00,
2013-02-23 02:19:00,39.3,33.0,29.91,WNW,293,0.0,0.0,78,0.00,,,0.00,WUHU216HW,2013-02-23 08:19:00,
2013-02-23 02:20:00,39.3,33.0,29.91,WNW,293,0.0,0.0,78,0.00,,,0.00,WUHU216HW,2013-02-23 08:20:00,
2013-02-23 02:21:00,39.3,33.0,29.91,WNW,293,0.0,0.0,78,0.00,,,0.00,WUHU216HW,2013-02-23 08:21:00,
2013-02-23 02:22:00,39.3,33.0,29.91,WNW,293,0.0,0.0,78,0.00,,,0.00,WUHU216HW,2013-02-23 08:22:00,
2013-02-23 02:23:00,39.3,33.0,29.91,WNW,293,0.0,0.0,78,0.00,,,0.00,WUHU216HW,2013-02-23 08:23:00,
2013-02-23 02:24:00,39.2,32.9,29.91,NNW,338,1.1,1.1,78,0.00,,,0.00,WUHU216HW,2013-02-23 08:24:00,
2013-02-23 02:25:00,39.2,32.9,29.91,NNW,338,1.1,1.1,78,0.00,,,0.00,WUHU216HW,2013-02-23 08:25:00,
2013-02-23 02:26:00,39.0,32.7,29.91,NNW,338,0.0,1.1,78,0.00,,,0.00,WUHU216HW,2013-02-23 08:26:00,
2013-02-23 02:27:00,39.0,32.7,29.90,NNW,338,0.0,1.1,78,0.00,,,0.00,WUHU216HW,2013-02-23 08:27:00,
2013-02-23 02:28:00,39.0,32.7,29.90,NW,315,0.0,1.1,78,0.00,,,0.00,WUHU216HW,2013-02-23 08:28:00,
2013-02-23 02:29:00,39.0,32.7,29.90,NW,315,0.0,1.1,78,0.00,,,0.00,WUHU216HW,2013-02-23 08:29:00,
2013-02-23 02:30:00,39.0,32.7,29.90,NW,315,1.1,1.1,78,0.00,,,0.00,WUHU216HW,2013-02-23 08:30:00,
2013-02-23 02:31:00,39.0,32.7,29.90,NW,315,1.1,1.1,78,0.00,,,0.00,WUHU216HW,2013-02-23 08:31:00,
2013-02-23 02:32:00,39.0,32.7,29.91,NW,315,1.1,1.1,78,0.00,,,0.00,WUHU216HW,2013-02-23 08:32:00,
2013-02-23 02:33:00,39.0,32.7,29.91,North,0,1.3,1.3,78,0.00,,,0.00,WUHU216HW,2013-02-23 08:33:00,
2013-02-23 02:34:00,39.0,32.7,29.90,North,0,1.3,1.3,78,0.00,,,0.00,WUHU216HW,2013-02-23 08:34:00,
2013-02-23 02:35:00,39.0,32.7,29.90,WNW,293,0.0,1.3,78,0.00,,,0.00,WUHU216HW,2013-02-23 08:35:00,
2013-02-23 02:36:00,39.0,32.7,29.90,WNW,293,0.0,1.3,78,0.00,,,0.00,WUHU216HW,2013-02-23 08:36:00,
2013-02-23 02:37:00,38.8,32.5,29.90,NNW,338,0.0,1.3,78,0.00,,,0.00,WUHU216HW,2013-02-23 08:37:00,
2013-02-23 02:38:00,38.8,32.5,29.90,NNW,338,0.0,1.3,78,0.00,,,0.00,WUHU216HW,2013-02-23 08:38:00,
2013-02-23 02:39:00,38.4,32.2,29.90,North,0,0.0,1.3,78,0.00,,,0.00,WUHU216HW,2013-02-23 08:39:00,
2013-02-23 02:40:00,38.4,32.2,29.90,North,0,0.0,1.3,78,0.00,,,0.00,WUHU216HW,2013-02-23 08:40:00,
2013-02-23 02:41:00,38.4,32.5,29.90,NNW,338,0.0,1.3,79,0.00,,,0.00,WUHU216HW,2013-02-23 08:41:00,
2013-02-23 02:42:00,38.4,32.5,29.90,NNW,338,0.0,1.3,79,0.00,,,0.00,WUHU216HW,2013-02-23 08:42:00,
2013-02-23 02:43:00,38.4,32.5,29.90,NNW,338,0.0,1.3,79,0.00,,,0.00,WUHU216HW,2013-02-23 08:43:00,
2013-02-23 02:44:00,38.4,32.5,29.90,NNW,338,0.0,0.0,79,0.00,,,0.00,WUHU216HW,2013-02-23 08:44:00,
2013-02-23 02:45:00,38.3,32.5,29.90,NNW,338,0.0,0.0,79,0.00,,,0.00,WUHU216HW,2013-02-23 08:45:00,
2013-02-23 02:46:00,38.3,32.3,29.90,NNW,338,0.0,0.0,79,0.00,,,0.00,WUHU216HW,2013-02-23 08:46:00,
2013-02-23 02:47:00,38.3,32.3,29.90,NNW,338,0.0,0.0,79,0.00,,,0.00,WUHU216HW,2013-02-23 08:47:00,
2013-02-23 02:48:00,38.3,32.3,29.90,NW,315,0.0,0.0,79,0.00,,,0.00,WUHU216HW,2013-02-23 08:48:00,
2013-02-23 02:49:00,38.3,32.3,29.90,NW,315,0.0,0.0,79,0.00,,,0.00,WUHU216HW,2013-02-23 08:49:00,
2013-02-23 02:50:00,38.3,32.3,29.90,NW,315,0.0,0.0,79,0.00,,,0.00,WUHU216HW,2013-02-23 08:50:00,
2013-02-23 02:51:00,38.3,32.3,29.90,NW,315,0.0,0.0,79,0.00,,,0.00,WUHU216HW,2013-02-23 08:51:00,
2013-02-23 02:55:00,38.3,32.3,29.90,NW,315,0.0,0.0,79,0.00,,,0.00,WUHU216HW,2013-02-23 08:55:00,
2013-02-23 02:56:00,38.3,32.3,29.90,West,270,0.0,0.0,79,0.00,,,0.00,WUHU216HW,2013-02-23 08:56:00,
2013-02-23 02:57:00,38.3,32.3,29.90,West,270,0.0,0.0,79,0.00,,,0.00,WUHU216HW,2013-02-23 08:57:00,
2013-02-23 02:58:00,38.3,32.3,29.90,North,0,1.5,1.5,79,0.00,,,0.00,WUHU216HW,2013-02-23 08:58:00,
2013-02-23 02:59:00,38.3,32.3,29.90,North,0,1.5,1.5,79,0.00,,,0.00,WUHU216HW,2013-02-23 08:59:00,
2013-02-23 03:00:00,38.3,32.3,29.90,North,0,2.9,2.9,79,0.00,,,0.00,WUHU216HW,2013-02-23 09:00:00,
2013-02-23 03:01:00,38.3,32.3,29.90,North,0,2.9,2.9,79,0.00,,,0.00,WUHU216HW,2013-02-23 09:01:00,
2013-02-23 03:02:00,38.3,32.3,29.89,North,0,0.0,2.9,79,0.00,,,0.00,WUHU216HW,2013-02-23 09:02:00,
2013-02-23 03:03:00,38.4,32.5,29.89,North,0,0.0,2.9,79,0.00,,,0.00,WUHU216HW,2013-02-23 09:03:00,
2013-02-23 03:04:00,38.4,32.5,29.89,North,0,0.0,2.9,79,0.00,,,0.00,WUHU216HW,2013-02-23 09:04:00,
2013-02-23 03:05:00,38.4,32.5,29.89,North,0,2.0,2.9,79,0.00,,,0.00,WUHU216HW,2013-02-23 09:05:00,
2013-02-23 03:06:00,38.4,32.5,29.89,North,0,2.0,2.9,79,0.00,,,0.00,WUHU216HW,2013-02-23 09:06:00,
2013-02-23 03:07:00,38.4,32.5,29.89,NNW,338,2.2,2.9,79,0.00,,,0.00,WUHU216HW,2013-02-23 09:07:00,
2013-02-23 03:08:00,38.4,32.5,29.89,NNW,338,2.2,2.9,79,0.00,,,0.00,WUHU216HW,2013-02-23 09:08:00,
2013-02-23 03:09:00,38.4,32.5,29.89,North,0,0.0,2.9,79,0.00,,,0.00,WUHU216HW,2013-02-23 09:09:00,
2013-02-23 03:10:00,38.4,32.5,29.89,North,0,0.0,2.9,79,0.00,,,0.00,WUHU216HW,2013-02-23 09:10:00,
2013-02-23 03:11:00,38.4,32.5,29.89,NNW,338,0.0,2.2,79,0.00,,,0.00,WUHU216HW,2013-02-23 09:11:00,
2013-02-23 03:12:00,38.4,32.5,29.89,NNW,338,0.0,2.2,79,0.00,,,0.00,WUHU216HW,2013-02-23 09:12:00,
2013-02-23 03:13:00,38.3,32.3,29.89,North,0,1.7,2.2,79,0.00,,,0.00,WUHU216HW,2013-02-23 09:13:00,
2013-02-23 03:14:00,38.3,32.3,29.89,North,0,1.7,2.2,79,0.00,,,0.00,WUHU216HW,2013-02-23 09:14:00,
2013-02-23 03:15:00,38.3,32.3,29.90,NNW,338,0.0,2.2,79,0.00,,,0.00,WUHU216HW,2013-02-23 09:15:00,
2013-02-23 03:16:00,38.3,32.3,29.89,NNW,338,0.0,2.2,79,0.00,,,0.00,WUHU216HW,2013-02-23 09:16:00,
2013-02-23 03:17:00,38.3,32.3,29.89,NNW,338,1.1,2.2,79,0.00,,,0.00,WUHU216HW,2013-02-23 09:17:00,
2013-02-23 03:18:00,38.3,32.3,29.89,NNW,338,1.1,1.7,79,0.00,,,0.00,WUHU216HW,2013-02-23 09:18:00,
2013-02-23 03:19:00,38.3,32.3,29.89,NNW,338,0.0,1.7,79,0.00,,,0.00,WUHU216HW,2013-02-23 09:19:00,
2013-02-23 03:20:00,38.3,32.3,29.89,NNW,338,0.0,1.7,79,0.00,,,0.00,WUHU216HW,2013-02-23 09:20:00,
2013-02-23 03:21:00,38.3,32.3,29.89,NNW,338,0.0,1.7,79,0.00,,,0.00,WUHU216HW,2013-02-23 09:21:00,
2013-02-23 03:22:00,38.1,32.1,29.89,NNW,338,0.0,1.7,79,0.00,,,0.00,WUHU216HW,2013-02-23 09:22:00,
2013-02-23 03:23:00,38.1,32.1,29.89,NNW,338,0.0,1.7,79,0.00,,,0.00,WUHU216HW,2013-02-23 09:23:00,
2013-02-23 03:24:00,38.1,32.1,29.89,NNW,338,0.0,1.1,79,0.00,,,0.00,WUHU216HW,2013-02-23 09:24:00,
2013-02-23 03:25:00,38.1,32.1,29.90,NNW,338,0.0,1.1,79,0.00,,,0.00,WUHU216HW,2013-02-23 09:25:00,
2013-02-23 03:26:00,37.9,32.3,29.90,NNW,338,0.0,1.1,80,0.00,,,0.00,WUHU216HW,2013-02-23 09:26:00,
2013-02-23 03:27:00,37.9,32.3,29.90,NNW,338,0.0,1.1,80,0.00,,,0.00,WUHU216HW,2013-02-23 09:27:00,
2013-02-23 03:28:00,37.9,32.3,29.90,NNW,338,0.0,0.0,80,0.00,,,0.00,WUHU216HW,2013-02-23 09:28:00,
2013-02-23 03:29:00,37.9,32.3,29.90,NNW,338,0.0,0.0,80,0.00,,,0.00,WUHU216HW,2013-02-23 09:29:00,
2013-02-23 03:30:00,37.9,32.3,29.90,NNW,338,0.0,0.0,80,0.00,,,0.00,WUHU216HW,2013-02-23 09:30:00,
2013-02-23 03:31:00,37.9,32.3,29.90,NNW,338,0.0,0.0,80,0.00,,,0.00,WUHU216HW,2013-02-23 09:31:00,
2013-02-23 03:32:00,37.7,32.3,29.90,NNW,338,0.0,0.0,80,0.00,,,0.00,WUHU216HW,2013-02-23 09:32:00,
2013-02-23 03:33:00,37.7,32.1,29.90,NNW,338,0.0,0.0,80,0.00,,,0.00,WUHU216HW,2013-02-23 09:33:00,
2013-02-23 03:34:00,37.7,32.1,29.89,NNW,338,0.0,0.0,80,0.00,,,0.00,WUHU216HW,2013-02-23 09:34:00,
2013-02-23 03:35:00,37.7,32.1,29.89,NNW,338,0.0,0.0,80,0.00,,,0.00,WUHU216HW,2013-02-23 09:35:00,
2013-02-23 03:36:00,37.7,32.1,29.89,NNW,338,0.0,0.0,80,0.00,,,0.00,WUHU216HW,2013-02-23 09:36:00,
2013-02-23 03:37:00,37.5,32.0,29.89,NNW,338,0.0,0.0,80,0.00,,,0.00,WUHU216HW,2013-02-23 09:37:00,
2013-02-23 03:38:00,37.5,32.0,29.89,NNW,338,0.0,0.0,80,0.00,,,0.00,WUHU216HW,2013-02-23 09:38:00,
2013-02-23 03:39:00,37.5,32.0,29.89,North,0,1.1,1.1,80,0.00,,,0.00,WUHU216HW,2013-02-23 09:39:00,
2013-02-23 03:40:00,37.5,32.0,29.89,North,0,1.1,1.1,80,0.00,,,0.00,WUHU216HW,2013-02-23 09:40:00,
2013-02-23 03:41:00,37.4,31.8,29.89,NNW,338,0.0,1.1,80,0.00,,,0.00,WUHU216HW,2013-02-23 09:41:00,
2013-02-23 03:42:00,37.4,31.8,29.89,NNW,338,0.0,1.1,80,0.00,,,0.00,WUHU216HW,2013-02-23 09:42:00,
2013-02-23 03:43:00,37.2,31.9,29.89,NW,315,0.0,1.1,81,0.00,,,0.00,WUHU216HW,2013-02-23 09:43:00,
2013-02-23 03:44:00,37.2,31.9,29.89,NW,315,0.0,1.1,81,0.00,,,0.00,WUHU216HW,2013-02-23 09:44:00,
2013-02-23 03:45:00,37.2,31.9,29.89,NNW,338,0.0,1.1,81,0.00,,,0.00,WUHU216HW,2013-02-23 09:45:00,
2013-02-23 03:46:00,37.2,31.9,29.89,NNW,338,0.0,1.1,81,0.00,,,0.00,WUHU216HW,2013-02-23 09:46:00,
2013-02-23 03:47:00,37.2,31.9,29.89,NW,315,0.0,1.1,81,0.00,,,0.00,WUHU216HW,2013-02-23 09:47:00,
2013-02-23 03:48:00,37.2,31.9,29.89,NW,315,0.0,1.1,81,0.00,,,0.00,WUHU216HW,2013-02-23 09:48:00,
2013-02-23 03:49:00,37.2,31.9,29.90,NW,315,0.0,1.1,81,0.00,,,0.00,WUHU216HW,2013-02-23 09:49:00,
2013-02-23 03:50:00,37.2,31.9,29.90,NW,315,0.0,0.0,81,0.00,,,0.00,WUHU216HW,2013-02-23 09:50:00,
2013-02-23 03:51:00,37.2,31.9,29.90,NW,315,0.0,0.0,81,0.00,,,0.00,WUHU216HW,2013-02-23 09:51:00,
2013-02-23 03:52:00,37.2,31.9,29.90,NW,315,0.0,0.0,81,0.00,,,0.00,WUHU216HW,2013-02-23 09:52:00,
2013-02-23 03:53:00,37.2,31.9,29.90,NW,315,0.0,0.0,81,0.00,,,0.00,WUHU216HW,2013-02-23 09:53:00,
2013-02-23 03:54:00,37.2,31.9,29.90,NNW,338,1.5,1.5,81,0.00,,,0.00,WUHU216HW,2013-02-23 09:54:00,
2013-02-23 03:55:00,37.2,31.9,29.90,NNW,338,1.5,1.5,81,0.00,,,0.00,WUHU216HW,2013-02-23 09:55:00,
2013-02-23 03:56:00,37.2,31.9,29.89,NNW,338,0.0,1.5,81,0.00,,,0.00,WUHU216HW,2013-02-23 09:56:00,
2013-02-23 03:57:00,37.2,31.9,29.90,NNW,338,0.0,1.5,81,0.00,,,0.00,WUHU216HW,2013-02-23 09:57:00,
2013-02-23 03:58:00,37.2,31.9,29.90,NW,315,0.0,1.5,81,0.00,,,0.00,WUHU216HW,2013-02-23 09:58:00,
2013-02-23 03:59:00,37.2,31.9,29.90,NW,315,0.0,1.5,81,0.00,,,0.00,WUHU216HW,2013-02-23 09:59:00,
2013-02-23 04:00:00,37.0,31.7,29.89,NW,315,0.0,1.5,81,0.00,,,0.00,WUHU216HW,2013-02-23 10:00:00,
2013-02-23 04:01:00,37.0,31.7,29.89,NW,315,0.0,1.5,81,0.00,,,0.00,WUHU216HW,2013-02-23 10:01:00,
2013-02-23 04:02:00,36.8,31.5,29.89,NW,315,0.0,1.5,81,0.00,,,0.00,WUHU216HW,2013-02-23 10:02:00,
2013-02-23 04:03:00,36.8,31.5,29.89,NW,315,0.0,1.5,81,0.00,,,0.00,WUHU216HW,2013-02-23 10:03:00,
2013-02-23 04:04:00,36.6,31.5,29.89,NW,315,0.0,1.5,81,0.00,,,0.00,WUHU216HW,2013-02-23 10:04:00,
2013-02-23 04:05:00,36.6,31.3,29.89,NW,315,0.0,0.0,81,0.00,,,0.00,WUHU216HW,2013-02-23 10:05:00,
2013-02-23 04:06:00,36.6,31.3,29.89,NW,315,0.0,0.0,81,0.00,,,0.00,WUHU216HW,2013-02-23 10:06:00,
2013-02-23 04:07:00,36.5,31.2,29.89,NW,315,0.0,0.0,81,0.00,,,0.00,WUHU216HW,2013-02-23 10:07:00,
2013-02-23 04:08:00,36.5,31.2,29.89,NW,315,0.0,0.0,81,0.00,,,0.00,WUHU216HW,2013-02-23 10:08:00,
2013-02-23 04:09:00,36.3,31.3,29.90,NW,315,0.0,0.0,82,0.00,,,0.00,WUHU216HW,2013-02-23 10:09:00,
2013-02-23 04:10:00,36.3,31.3,29.89,NW,315,0.0,0.0,82,0.00,,,0.00,WUHU216HW,2013-02-23 10:10:00,
2013-02-23 04:11:00,36.3,31.3,29.89,NW,315,0.0,0.0,82,0.00,,,0.00,WUHU216HW,2013-02-23 10:11:00,
2013-02-23 04:12:00,36.3,31.3,29.89,NW,315,0.0,0.0,82,0.00,,,0.00,WUHU216HW,2013-02-23 10:12:00,
2013-02-23 04:13:00,36.1,31.1,29.89,NW,315,0.0,0.0,82,0.00,,,0.00,WUHU216HW,2013-02-23 10:13:00,
2013-02-23 04:14:00,36.1,31.1,29.89,NW,315,0.0,0.0,82,0.00,,,0.00,WUHU216HW,2013-02-23 10:14:00,
2013-02-23 04:15:00,36.1,31.1,29.89,NW,315,0.0,0.0,82,0.00,,,0.00,WUHU216HW,2013-02-23 10:15:00,
2013-02-23 04:16:00,36.1,31.1,29.90,NW,315,0.0,0.0,82,0.00,,,0.00,WUHU216HW,2013-02-23 10:16:00,
2013-02-23 04:17:00,36.1,30.9,29.89,NW,315,0.0,0.0,82,0.00,,,0.00,WUHU216HW,2013-02-23 10:17:00,
2013-02-23 04:18:00,35.9,30.9,29.89,NW,315,0.0,0.0,82,0.00,,,0.00,WUHU216HW,2013-02-23 10:18:00,
2013-02-23 04:19:00,35.7,30.9,29.89,NW,315,0.0,0.0,82,0.00,,,0.00,WUHU216HW,2013-02-23 10:19:00,
2013-02-23 04:20:00,35.7,30.7,29.90,NW,315,0.0,0.0,82,0.00,,,0.00,WUHU216HW,2013-02-23 10:20:00,
2013-02-23 04:21:00,35.7,30.7,29.89,NW,315,0.0,0.0,82,0.00,,,0.00,WUHU216HW,2013-02-23 10:21:00,
2013-02-23 04:22:00,35.7,30.7,29.90,NW,315,0.0,0.0,82,0.00,,,0.00,WUHU216HW,2013-02-23 10:22:00,
2013-02-23 04:23:00,35.7,30.7,29.89,NW,315,0.0,0.0,82,0.00,,,0.00,WUHU216HW,2013-02-23 10:23:00,
2013-02-23 04:24:00,35.6,30.8,29.89,NW,315,0.0,0.0,83,0.00,,,0.00,WUHU216HW,2013-02-23 10:24:00,
2013-02-23 04:25:00,35.6,30.8,29.90,NW,315,0.0,0.0,83,0.00,,,0.00,WUHU216HW,2013-02-23 10:25:00,
2013-02-23 04:26:00,35.4,30.7,29.90,NW,315,0.0,0.0,83,0.00,,,0.00,WUHU216HW,2013-02-23 10:26:00,
2013-02-23 04:27:00,35.4,30.7,29.90,NW,315,0.0,0.0,83,0.00,,,0.00,WUHU216HW,2013-02-23 10:27:00,
2013-02-23 04:28:00,35.4,30.7,29.90,NW,315,0.0,0.0,83,0.00,,,0.00,WUHU216HW,2013-02-23 10:28:00,
2013-02-23 04:29:00,35.4,30.7,29.90,NW,315,0.0,0.0,83,0.00,,,0.00,WUHU216HW,2013-02-23 10:29:00,
2013-02-23 04:30:00,35.4,30.7,29.90,NW,315,0.0,0.0,83,0.00,,,0.00,WUHU216HW,2013-02-23 10:30:00,
2013-02-23 04:31:00,35.4,30.7,29.90,NW,315,0.0,0.0,83,0.00,,,0.00,WUHU216HW,2013-02-23 10:31:00,
2013-02-23 04:32:00,35.2,30.5,29.90,NW,315,0.0,0.0,83,0.00,,,0.00,WUHU216HW,2013-02-23 10:32:00,
2013-02-23 04:33:00,35.2,30.5,29.90,NW,315,0.0,0.0,83,0.00,,,0.00,WUHU216HW,2013-02-23 10:33:00,
2013-02-23 04:34:00,35.2,30.5,29.90,NW,315,0.0,0.0,83,0.00,,,0.00,WUHU216HW,2013-02-23 10:34:00,
2013-02-23 04:35:00,35.2,30.5,29.90,NW,315,0.0,0.0,83,0.00,,,0.00,WUHU216HW,2013-02-23 10:35:00,
2013-02-23 04:36:00,35.2,30.5,29.90,NW,315,0.0,0.0,83,0.00,,,0.00,WUHU216HW,2013-02-23 10:36:00,
2013-02-23 04:37:00,34.8,30.1,29.90,NW,315,0.0,0.0,83,0.00,,,0.00,WUHU216HW,2013-02-23 10:37:00,
2013-02-23 04:38:00,34.8,30.1,29.90,NW,315,0.0,0.0,83,0.00,,,0.00,WUHU216HW,2013-02-23 10:38:00,
2013-02-23 04:39:00,35.2,30.5,29.90,NW,315,0.0,0.0,83,0.00,,,0.00,WUHU216HW,2013-02-23 10:39:00,
2013-02-23 04:40:00,35.2,30.5,29.90,NW,315,0.0,0.0,83,0.00,,,0.00,WUHU216HW,2013-02-23 10:40:00,
2013-02-23 04:41:00,35.2,30.5,29.90,North,0,1.3,1.3,83,0.00,,,0.00,WUHU216HW,2013-02-23 10:41:00,
2013-02-23 04:42:00,35.2,30.5,29.90,North,0,1.3,1.3,83,0.00,,,0.00,WUHU216HW,2013-02-23 10:42:00,
2013-02-23 04:43:00,35.2,30.8,29.90,NNW,338,0.0,1.3,84,0.00,,,0.00,WUHU216HW,2013-02-23 10:43:00,
2013-02-23 04:44:00,35.2,30.8,29.90,NNW,338,0.0,1.3,84,0.00,,,0.00,WUHU216HW,2013-02-23 10:44:00,
2013-02-23 04:45:00,35.4,30.9,29.90,NW,315,0.0,1.3,84,0.00,,,0.00,WUHU216HW,2013-02-23 10:45:00,
2013-02-23 04:46:00,35.4,30.9,29.90,NW,315,0.0,1.3,84,0.00,,,0.00,WUHU216HW,2013-02-23 10:46:00,
2013-02-23 04:47:00,35.4,30.9,29.90,NNW,338,1.7,1.7,84,0.00,,,0.00,WUHU216HW,2013-02-23 10:47:00,
2013-02-23 04:48:00,35.4,30.9,29.90,NNW,338,1.7,1.7,84,0.00,,,0.00,WUHU216HW,2013-02-23 10:48:00,
2013-02-23 04:49:00,35.4,31.1,29.90,NNW,338,1.7,1.7,84,0.00,,,0.00,WUHU216HW,2013-02-23 10:49:00,
2013-02-23 04:50:00,35.6,31.1,29.89,NW,315,0.0,1.7,84,0.00,,,0.00,WUHU216HW,2013-02-23 10:50:00,
2013-02-23 04:51:00,35.6,31.1,29.90,NW,315,0.0,1.7,84,0.00,,,0.00,WUHU216HW,2013-02-23 10:51:00,
2013-02-23 04:52:00,35.7,31.3,29.89,NW,315,0.0,1.7,84,0.00,,,0.00,WUHU216HW,2013-02-23 10:52:00,
2013-02-23 04:53:00,35.7,31.3,29.90,NW,315,0.0,1.7,84,0.00,,,0.00,WUHU216HW,2013-02-23 10:53:00,
2013-02-23 04:54:00,35.6,31.1,29.89,NW,315,0.0,1.7,84,0.00,,,0.00,WUHU216HW,2013-02-23 10:54:00,
2013-02-23 04:55:00,35.6,31.1,29.89,NW,315,0.0,1.7,84,0.00,,,0.00,WUHU216HW,2013-02-23 10:55:00,
2013-02-23 04:56:00,35.7,31.3,29.89,NW,315,0.0,1.7,84,0.00,,,0.00,WUHU216HW,2013-02-23 10:56:00,
2013-02-23 04:57:00,35.7,31.3,29.89,NW,315,0.0,1.7,84,0.00,,,0.00,WUHU216HW,2013-02-23 10:57:00,
2013-02-23 04:58:00,35.7,31.3,29.90,WNW,293,0.0,1.7,84,0.00,,,0.00,WUHU216HW,2013-02-23 10:58:00,
2013-02-23 04:59:00,35.7,31.3,29.90,WNW,293,0.0,0.0,84,0.00,,,0.00,WUHU216HW,2013-02-23 10:59:00,
2013-02-23 05:00:00,35.7,31.3,29.90,WNW,293,0.0,0.0,84,0.00,,,0.00,WUHU216HW,2013-02-23 11:00:00,
2013-02-23 05:01:00,35.7,31.3,29.90,WNW,293,0.0,0.0,84,0.00,,,0.00,WUHU216HW,2013-02-23 11:01:00,
2013-02-23 05:02:00,35.7,31.3,29.90,NNW,338,0.0,0.0,84,0.00,,,0.00,WUHU216HW,2013-02-23 11:02:00,
2013-02-23 05:03:00,35.7,31.3,29.90,NNW,338,0.0,0.0,84,0.00,,,0.00,WUHU216HW,2013-02-23 11:03:00,
2013-02-23 05:04:00,35.7,31.3,29.90,NNW,338,0.0,0.0,84,0.00,,,0.00,WUHU216HW,2013-02-23 11:04:00,
2013-02-23 05:05:00,35.7,31.3,29.90,NNW,338,0.0,0.0,84,0.00,,,0.00,WUHU216HW,2013-02-23 11:05:00,
2013-02-23 05:06:00,35.7,31.3,29.90,NNW,338,0.0,0.0,84,0.00,,,0.00,WUHU216HW,2013-02-23 11:06:00,
2013-02-23 05:07:00,35.7,31.3,29.90,NNW,338,0.0,0.0,84,0.00,,,0.00,WUHU216HW,2013-02-23 11:07:00,
2013-02-23 05:08:00,35.7,31.3,29.90,NNW,338,0.0,0.0,84,0.00,,,0.00,WUHU216HW,2013-02-23 11:08:00,
2013-02-23 05:09:00,35.7,31.3,29.90,NNW,338,5.3,5.3,84,0.00,,,0.00,WUHU216HW,2013-02-23 11:09:00,
2013-02-23 05:10:00,35.7,31.3,29.90,NNW,338,5.3,5.3,84,0.00,,,0.00,WUHU216HW,2013-02-23 11:10:00,
2013-02-23 05:11:00,35.7,31.3,29.90,NNW,338,0.0,5.3,84,0.00,,,0.00,WUHU216HW,2013-02-23 11:11:00,
2013-02-23 05:12:00,35.7,31.3,29.90,NNW,338,0.0,5.3,84,0.00,,,0.00,WUHU216HW,2013-02-23 11:12:00,
2013-02-23 05:13:00,35.7,31.3,29.90,North,0,0.0,5.3,84,0.00,,,0.00,WUHU216HW,2013-02-23 11:13:00,
2013-02-23 05:14:00,35.7,31.3,29.90,North,0,0.0,5.3,84,0.00,,,0.00,WUHU216HW,2013-02-23 11:14:00,
2013-02-23 05:15:00,35.7,31.3,29.90,North,0,0.0,5.3,84,0.00,,,0.00,WUHU216HW,2013-02-23 11:15:00,
2013-02-23 05:16:00,35.7,31.3,29.90,North,0,0.0,5.3,84,0.00,,,0.00,WUHU216HW,2013-02-23 11:16:00,
2013-02-23 05:17:00,35.7,31.6,29.90,North,0,5.1,5.3,85,0.00,,,0.00,WUHU216HW,2013-02-23 11:17:00,
2013-02-23 05:18:00,35.7,31.6,29.90,North,0,5.1,5.3,85,0.00,,,0.00,WUHU216HW,2013-02-23 11:18:00,
2013-02-23 05:19:00,35.7,31.6,29.90,West,270,0.0,5.3,85,0.00,,,0.00,WUHU216HW,2013-02-23 11:19:00,
2013-02-23 05:20:00,35.7,31.6,29.90,West,270,0.0,5.1,85,0.00,,,0.00,WUHU216HW,2013-02-23 11:20:00,
2013-02-23 05:21:00,35.7,31.6,29.90,West,270,0.0,5.1,85,0.00,,,0.00,WUHU216HW,2013-02-23 11:21:00,
2013-02-23 05:22:00,35.7,31.6,29.90,NNW,338,2.6,5.1,85,0.00,,,0.00,WUHU216HW,2013-02-23 11:22:00,
2013-02-23 05:23:00,35.7,31.6,29.90,NNW,338,2.6,5.1,85,0.00,,,0.00,WUHU216HW,2013-02-23 11:23:00,
2013-02-23 05:24:00,35.9,31.8,29.90,NNW,338,2.9,5.1,85,0.00,,,0.00,WUHU216HW,2013-02-23 11:24:00,
2013-02-23 05:25:00,35.9,31.8,29.90,NNW,338,2.9,5.1,85,0.00,,,0.00,WUHU216HW,2013-02-23 11:25:00,
2013-02-23 05:26:00,35.9,31.8,29.90,NW,315,1.3,5.1,85,0.00,,,0.00,WUHU216HW,2013-02-23 11:26:00,
2013-02-23 05:27:00,35.9,31.8,29.90,NW,315,1.3,5.1,85,0.00,,,0.00,WUHU216HW,2013-02-23 11:27:00,
2013-02-23 05:28:00,35.7,31.6,29.90,NW,315,0.0,2.9,85,0.00,,,0.00,WUHU216HW,2013-02-23 11:28:00,
2013-02-23 05:29:00,35.7,31.6,29.90,NW,315,0.0,2.9,85,0.00,,,0.00,WUHU216HW,2013-02-23 11:29:00,
2013-02-23 05:30:00,35.7,31.6,29.90,NNW,338,0.0,2.9,85,0.00,,,0.00,WUHU216HW,2013-02-23 11:30:00,
2013-02-23 05:31:00,35.7,31.6,29.90,NNW,338,0.0,2.9,85,0.00,,,0.00,WUHU216HW,2013-02-23 11:31:00,
2013-02-23 05:32:00,35.7,31.6,29.90,NW,315,1.1,2.9,85,0.00,,,0.00,WUHU216HW,2013-02-23 11:32:00,
2013-02-23 05:33:00,35.7,31.6,29.90,NW,315,1.1,2.9,85,0.00,,,0.00,WUHU216HW,2013-02-23 11:33:00,
2013-02-23 05:34:00,35.7,31.6,29.90,NW,315,3.3,3.3,85,0.00,,,0.00,WUHU216HW,2013-02-23 11:34:00,
2013-02-23 05:35:00,35.7,31.6,29.90,NW,315,3.3,3.3,85,0.00,,,0.00,WUHU216HW,2013-02-23 11:35:00,
2013-02-23 05:36:00,35.7,31.6,29.90,NW,315,3.3,3.3,85,0.00,,,0.00,WUHU216HW,2013-02-23 11:36:00,
2013-02-23 05:37:00,35.7,31.6,29.90,WNW,293,0.0,3.3,85,0.00,,,0.00,WUHU216HW,2013-02-23 11:37:00,
2013-02-23 05:38:00,35.7,31.6,29.90,WNW,293,0.0,3.3,85,0.00,,,0.00,WUHU216HW,2013-02-23 11:38:00,
2013-02-23 05:39:00,35.7,31.6,29.90,North,0,0.0,3.3,85,0.00,,,0.00,WUHU216HW,2013-02-23 11:39:00,
2013-02-23 05:40:00,35.7,31.6,29.90,North,0,0.0,3.3,85,0.00,,,0.00,WUHU216HW,2013-02-23 11:40:00,
2013-02-23 05:41:00,35.7,31.6,29.90,North,0,3.3,3.3,85,0.00,,,0.00,WUHU216HW,2013-02-23 11:41:00,
2013-02-23 05:42:00,35.7,31.6,29.90,North,0,3.3,3.3,85,0.00,,,0.00,WUHU216HW,2013-02-23 11:42:00,
2013-02-23 05:43:00,35.7,31.6,29.90,North,0,2.2,3.3,85,0.00,,,0.00,WUHU216HW,2013-02-23 11:43:00,
2013-02-23 05:44:00,35.7,31.6,29.90,North,0,2.2,3.3,85,0.00,,,0.00,WUHU216HW,2013-02-23 11:44:00,
2013-02-23 05:45:00,35.6,31.4,29.90,North,0,1.5,3.3,85,0.00,,,0.00,WUHU216HW,2013-02-23 11:45:00,
2013-02-23 05:46:00,35.6,31.4,29.90,North,0,1.5,3.3,85,0.00,,,0.00,WUHU216HW,2013-02-23 11:46:00,
2013-02-23 05:47:00,35.4,31.5,29.90,NNW,338,2.9,3.3,86,0.00,,,0.00,WUHU216HW,2013-02-23 11:47:00,
2013-02-23 05:48:00,35.4,31.5,29.90,NNW,338,2.9,3.3,86,0.00,,,0.00,WUHU216HW,2013-02-23 11:48:00,
2013-02-23 05:49:00,35.4,31.5,29.90,NW,315,1.5,3.3,86,0.00,,,0.00,WUHU216HW,2013-02-23 11:49:00,
2013-02-23 05:50:00,35.4,31.5,29.90,NW,315,1.5,3.3,86,0.00,,,0.00,WUHU216HW,2013-02-23 11:50:00,
2013-02-23 05:51:00,35.4,31.5,29.90,NW,315,1.5,3.3,86,0.00,,,0.00,WUHU216HW,2013-02-23 11:51:00,
2013-02-23 05:52:00,35.4,31.5,29.90,North,0,1.7,2.9,86,0.00,,,0.00,WUHU216HW,2013-02-23 11:52:00,
2013-02-23 05:53:00,35.4,31.5,29.90,North,0,1.7,2.9,86,0.00,,,0.00,WUHU216HW,2013-02-23 11:53:00,
2013-02-23 05:54:00,35.4,31.5,29.90,NNW,338,2.4,2.9,86,0.00,,,0.00,WUHU216HW,2013-02-23 11:54:00,
2013-02-23 05:55:00,35.4,31.5,29.90,NNW,338,2.4,2.9,86,0.00,,,0.00,WUHU216HW,2013-02-23 11:55:00,
2013-02-23 05:56:00,35.4,31.5,29.90,NNW,338,2.4,2.9,86,0.00,,,0.00,WUHU216HW,2013-02-23 11:56:00,
2013-02-23 05:57:00,35.4,31.5,29.90,NNW,338,2.4,2.9,86,0.00,,,0.00,WUHU216HW,2013-02-23 11:57:00,
2013-02-23 05:58:00,35.4,31.5,29.90,North,0,1.7,2.4,86,0.00,,,0.00,WUHU216HW,2013-02-23 11:58:00,
2013-02-23 05:59:00,35.4,31.5,29.90,North,0,1.7,2.4,86,0.00,,,0.00,WUHU216HW,2013-02-23 11:59:00,
2013-02-23 06:00:00,35.2,31.3,29.90,North,0,0.0,2.4,86,0.00,,,0.00,WUHU216HW,2013-02-23 12:00:00,
2013-02-23 06:01:00,35.2,31.3,29.90,North,0,0.0,2.4,86,0.00,,,0.00,WUHU216HW,2013-02-23 12:01:00,
2013-02-23 06:02:00,35.2,31.3,29.90,NNW,338,1.1,2.4,86,0.00,,,0.00,WUHU216HW,2013-02-23 12:02:00,
2013-02-23 06:03:00,35.2,31.3,29.90,NNW,338,1.1,2.4,86,0.00,,,0.00,WUHU216HW,2013-02-23 12:03:00,
2013-02-23 06:04:00,35.2,31.3,29.90,NW,315,0.0,2.4,86,0.00,,,0.00,WUHU216HW,2013-02-23 12:04:00,
2013-02-23 06:05:00,35.2,31.3,29.90,NW,315,0.0,2.4,86,0.00,,,0.00,WUHU216HW,2013-02-23 12:05:00,
2013-02-23 06:06:00,35.2,31.3,29.90,NW,315,0.0,2.4,86,0.00,,,0.00,WUHU216HW,2013-02-23 12:06:00,
2013-02-23 06:07:00,35.2,31.3,29.90,NW,315,0.0,1.7,86,0.00,,,0.00,WUHU216HW,2013-02-23 12:07:00,
2013-02-23 06:08:00,35.2,31.3,29.90,NW,315,0.0,1.7,86,0.00,,,0.00,WUHU216HW,2013-02-23 12:08:00,
2013-02-23 06:09:00,35.2,31.3,29.90,NNW,338,2.4,2.4,86,0.00,,,0.00,WUHU216HW,2013-02-23 12:09:00,
2013-02-23 06:10:00,35.2,31.3,29.89,NNW,338,2.4,2.4,86,0.00,,,0.00,WUHU216HW,2013-02-23 12:10:00,
2013-02-23 06:11:00,35.2,31.3,29.90,NNW,338,1.1,2.4,86,0.00,,,0.00,WUHU216HW,2013-02-23 12:11:00,
2013-02-23 06:12:00,35.2,31.3,29.90,NNW,338,1.1,2.4,86,0.00,,,0.00,WUHU216HW,2013-02-23 12:12:00,
2013-02-23 06:13:00,35.4,31.5,29.90,NNW,338,2.9,2.9,86,0.00,,,0.00,WUHU216HW,2013-02-23 12:13:00,
2013-02-23 06:14:00,35.4,31.5,29.90,NNW,338,2.9,2.9,86,0.00,,,0.00,WUHU216HW,2013-02-23 12:14:00,
2013-02-23 06:15:00,35.4,31.8,29.90,NNW,338,0.0,2.9,87,0.00,,,0.00,WUHU216HW,2013-02-23 12:15:00,
2013-02-23 06:16:00,35.4,31.8,29.90,NNW,338,0.0,2.9,87,0.00,,,0.00,WUHU216HW,2013-02-23 12:16:00,
2013-02-23 06:17:00,35.4,31.8,29.90,NNW,338,0.0,2.9,87,0.00,,,0.00,WUHU216HW,2013-02-23 12:17:00,
2013-02-23 06:18:00,35.4,31.8,29.90,NNW,338,0.0,2.9,87,0.00,,,0.00,WUHU216HW,2013-02-23 12:18:00,
2013-02-23 06:19:00,35.4,31.8,29.90,North,0,1.3,2.9,87,0.00,,,0.00,WUHU216HW,2013-02-23 12:19:00,
2013-02-23 06:20:00,35.4,31.8,29.90,North,0,1.3,2.9,87,0.00,,,0.00,WUHU216HW,2013-02-23 12:20:00,
2013-02-23 06:21:00,35.4,31.8,29.90,North,0,1.3,2.9,87,0.00,,,0.00,WUHU216HW,2013-02-23 12:21:00,
2013-02-23 06:22:00,35.4,31.8,29.90,NNW,338,0.0,2.9,87,0.00,,,0.00,WUHU216HW,2013-02-23 12:22:00,
2013-02-23 06:23:00,35.4,31.8,29.90,NNW,338,0.0,2.9,87,0.00,,,0.00,WUHU216HW,2013-02-23 12:23:00,
2013-02-23 06:24:00,35.4,31.8,29.90,North,0,2.9,2.9,87,0.00,,,0.00,WUHU216HW,2013-02-23 12:24:00,
2013-02-23 06:25:00,35.4,31.8,29.90,North,0,2.9,2.9,87,0.00,,,0.00,WUHU216HW,2013-02-23 12:25:00,
2013-02-23 06:26:00,35.7,32.2,29.90,NW,315,1.7,2.9,87,0.00,,,0.00,WUHU216HW,2013-02-23 12:26:00,
2013-02-23 06:27:00,35.7,32.2,29.90,NW,315,1.7,2.9,87,0.00,,,0.00,WUHU216HW,2013-02-23 12:27:00,
2013-02-23 06:28:00,35.7,31.9,29.90,North,0,2.0,2.9,86,0.00,,,0.00,WUHU216HW,2013-02-23 12:28:00,
2013-02-23 06:29:00,35.7,31.9,29.90,North,0,2.0,2.9,86,0.00,,,0.00,WUHU216HW,2013-02-23 12:29:00,
2013-02-23 06:30:00,35.7,32.2,29.90,North,0,0.0,2.9,87,0.00,,,0.00,WUHU216HW,2013-02-23 12:30:00,
2013-02-23 06:31:00,35.7,32.2,29.90,North,0,0.0,2.9,87,0.00,,,0.00,WUHU216HW,2013-02-23 12:31:00,
2013-02-23 06:32:00,35.7,31.9,29.90,NNW,338,3.5,3.5,86,0.00,,,0.00,WUHU216HW,2013-02-23 12:32:00,
2013-02-23 06:33:00,35.7,31.9,29.90,NNW,338,3.5,3.5,86,0.00,,,0.00,WUHU216HW,2013-02-23 12:33:00,
2013-02-23 06:34:00,35.7,31.9,29.90,North,0,4.2,4.2,86,0.00,,,0.00,WUHU216HW,2013-02-23 12:34:00,
2013-02-23 06:35:00,35.7,31.9,29.90,North,0,4.2,4.2,86,0.00,,,0.00,WUHU216HW,2013-02-23 12:35:00,
2013-02-23 06:36:00,35.7,31.9,29.90,North,0,4.2,4.2,86,0.00,,,0.00,WUHU216HW,2013-02-23 12:36:00,
2013-02-23 06:37:00,35.9,32.1,29.90,North,0,2.9,4.2,86,0.00,,,0.00,WUHU216HW,2013-02-23 12:37:00,
2013-02-23 06:38:00,35.9,32.1,29.89,North,0,2.9,4.2,86,0.00,,,0.00,WUHU216HW,2013-02-23 12:38:00,
2013-02-23 06:39:00,36.1,32.2,29.89,North,0,2.9,4.2,86,0.00,,,0.00,WUHU216HW,2013-02-23 12:39:00,
2013-02-23 06:40:00,36.1,32.2,29.90,North,0,2.9,4.2,86,0.00,,,0.00,WUHU216HW,2013-02-23 12:40:00,
2013-02-23 06:41:00,36.1,32.2,29.89,North,0,4.0,4.2,86,0.00,,,0.00,WUHU216HW,2013-02-23 12:41:00,
2013-02-23 06:42:00,36.1,32.2,29.90,North,0,4.0,4.2,86,0.00,,,0.00,WUHU216HW,2013-02-23 12:42:00,
2013-02-23 06:43:00,36.1,32.2,29.90,NNW,338,3.3,4.2,86,0.00,,,0.00,WUHU216HW,2013-02-23 12:43:00,
2013-02-23 06:44:00,36.1,32.2,29.90,NNW,338,3.3,4.2,86,0.00,,,0.00,WUHU216HW,2013-02-23 12:44:00,
2013-02-23 06:45:00,36.1,32.2,29.90,NE,45,2.4,4.2,86,0.00,,,0.00,WUHU216HW,2013-02-23 12:45:00,
2013-02-23 06:46:00,36.1,32.2,29.90,NE,45,2.4,4.0,86,0.00,,,0.00,WUHU216HW,2013-02-23 12:46:00,
2013-02-23 06:47:00,36.3,32.4,29.90,North,0,2.0,4.0,86,0.00,,,0.00,WUHU216HW,2013-02-23 12:47:00,
2013-02-23 06:48:00,36.3,32.4,29.89,North,0,2.0,4.0,86,0.00,,,0.00,WUHU216HW,2013-02-23 12:48:00,
2013-02-23 06:49:00,36.3,32.4,29.90,NNW,338,2.2,4.0,86,0.00,,,0.00,WUHU216HW,2013-02-23 12:49:00,
2013-02-23 06:50:00,36.3,32.4,29.90,NNW,338,2.2,4.0,86,0.00,,,0.00,WUHU216HW,2013-02-23 12:50:00,
2013-02-23 06:51:00,36.3,32.4,29.90,NNW,338,2.2,4.0,86,0.00,,,0.00,WUHU216HW,2013-02-23 12:51:00,
2013-02-23 06:52:00,36.3,32.4,29.90,NNE,23,3.8,3.8,86,0.00,,,0.00,WUHU216HW,2013-02-23 12:52:00,
2013-02-23 06:53:00,36.3,32.4,29.90,NNE,23,3.8,3.8,86,0.00,,,0.00,WUHU216HW,2013-02-23 12:53:00,
2013-02-23 06:54:00,36.3,32.4,29.90,NNW,338,0.0,3.8,86,0.00,,,0.00,WUHU216HW,2013-02-23 12:54:00,
2013-02-23 06:55:00,36.3,32.4,29.90,NNW,338,0.0,3.8,86,0.00,,,0.00,WUHU216HW,2013-02-23 12:55:00,
2013-02-23 06:56:00,36.3,32.4,29.90,NNW,338,2.9,3.8,86,0.00,,,0.00,WUHU216HW,2013-02-23 12:56:00,
2013-02-23 06:57:00,36.3,32.4,29.90,NNW,338,2.9,3.8,86,0.00,,,0.00,WUHU216HW,2013-02-23 12:57:00,
2013-02-23 06:58:00,36.5,32.6,29.90,NNW,338,5.8,5.8,86,0.00,,,0.00,WUHU216HW,2013-02-23 12:58:00,
2013-02-23 06:59:00,36.5,32.6,29.90,NNW,338,5.8,5.8,86,0.00,,,0.00,WUHU216HW,2013-02-23 12:59:00,
2013-02-23 07:00:00,36.3,32.4,29.90,North,0,3.5,5.8,86,0.00,,,0.00,WUHU216HW,2013-02-23 13:00:00,
2013-02-23 07:01:00,36.3,32.4,29.90,North,0,3.5,5.8,86,0.00,,,0.00,WUHU216HW,2013-02-23 13:01:00,
2013-02-23 07:02:00,36.3,32.4,29.90,North,0,2.9,5.8,86,0.00,,,0.00,WUHU216HW,2013-02-23 13:02:00,
2013-02-23 07:03:00,36.3,32.4,29.90,North,0,2.9,5.8,86,0.00,,,0.00,WUHU216HW,2013-02-23 13:03:00,
2013-02-23 07:04:00,36.5,32.6,29.91,North,0,6.7,6.7,86,0.00,,,0.00,WUHU216HW,2013-02-23 13:04:00,
2013-02-23 07:05:00,36.5,32.6,29.91,North,0,6.7,6.7,86,0.00,,,0.00,WUHU216HW,2013-02-23 13:05:00,
2013-02-23 07:06:00,36.5,32.6,29.90,North,0,6.7,6.7,86,0.00,,,0.00,WUHU216HW,2013-02-23 13:06:00,
2013-02-23 07:07:00,36.5,32.6,29.90,NNW,338,3.3,6.7,86,0.00,,,0.00,WUHU216HW,2013-02-23 13:07:00,
2013-02-23 07:08:00,36.5,32.6,29.91,NNW,338,3.3,6.7,86,0.00,,,0.00,WUHU216HW,2013-02-23 13:08:00,
2013-02-23 07:09:00,36.5,32.6,29.90,NNW,338,2.2,6.7,86,0.00,,,0.00,WUHU216HW,2013-02-23 13:09:00,
2013-02-23 07:10:00,36.5,32.6,29.90,NNW,338,2.2,6.7,86,0.00,,,0.00,WUHU216HW,2013-02-23 13:10:00,
2013-02-23 07:11:00,36.5,32.6,29.90,NNW,338,3.8,6.7,86,0.00,,,0.00,WUHU216HW,2013-02-23 13:11:00,
2013-02-23 07:12:00,36.5,32.6,29.90,NNW,338,3.8,6.7,86,0.00,,,0.00,WUHU216HW,2013-02-23 13:12:00,
2013-02-23 07:13:00,36.5,32.6,29.90,NNW,338,5.1,6.7,86,0.00,,,0.00,WUHU216HW,2013-02-23 13:13:00,
2013-02-23 07:14:00,36.5,32.6,29.90,NNW,338,5.1,6.7,86,0.00,,,0.00,WUHU216HW,2013-02-23 13:14:00,
2013-02-23 07:15:00,36.5,32.6,29.90,North,0,3.8,6.7,86,0.00,,,0.00,WUHU216HW,2013-02-23 13:15:00,
2013-02-23 07:16:00,36.5,32.6,29.90,North,0,3.8,5.1,86,0.00,,,0.00,WUHU216HW,2013-02-23 13:16:00,
2013-02-23 07:17:00,36.5,32.6,29.90,North,0,2.6,5.1,86,0.00,,,0.00,WUHU216HW,2013-02-23 13:17:00,
2013-02-23 07:18:00,36.5,32.6,29.90,North,0,2.6,5.1,86,0.00,,,0.00,WUHU216HW,2013-02-23 13:18:00,
2013-02-23 07:19:00,36.5,32.6,29.91,North,0,5.3,5.3,86,0.00,,,0.00,WUHU216HW,2013-02-23 13:19:00,
2013-02-23 07:20:00,36.5,32.6,29.91,North,0,5.3,5.3,86,0.00,,,0.00,WUHU216HW,2013-02-23 13:20:00,
2013-02-23 07:21:00,36.5,32.6,29.91,North,0,4.6,5.3,86,0.00,,,0.00,WUHU216HW,2013-02-23 13:21:00,
2013-02-23 07:22:00,36.5,32.6,29.91,North,0,4.6,5.3,86,0.00,,,0.00,WUHU216HW,2013-02-23 13:22:00,
2013-02-23 07:23:00,36.5,32.6,29.91,North,0,4.6,5.3,86,0.00,,,0.00,WUHU216HW,2013-02-23 13:23:00,
2013-02-23 07:24:00,36.5,32.6,29.91,North,0,3.8,5.3,86,0.00,,,0.00,WUHU216HW,2013-02-23 13:24:00,
2013-02-23 07:25:00,36.5,32.6,29.91,North,0,3.8,5.3,86,0.00,,,0.00,WUHU216HW,2013-02-23 13:25:00,
2013-02-23 07:26:00,36.5,32.6,29.91,NW,315,0.0,5.3,86,0.00,,,0.00,WUHU216HW,2013-02-23 13:26:00,
2013-02-23 07:27:00,36.5,32.6,29.91,NW,315,0.0,5.3,86,0.00,,,0.00,WUHU216HW,2013-02-23 13:27:00,
2013-02-23 07:28:00,36.6,32.8,29.91,NNW,338,3.3,5.3,86,0.00,,,0.00,WUHU216HW,2013-02-23 13:28:00,
2013-02-23 07:29:00,36.6,32.8,29.91,NNW,338,3.3,5.3,86,0.00,,,0.00,WUHU216HW,2013-02-23 13:29:00,
2013-02-23 07:30:00,36.6,32.8,29.91,NNW,338,1.3,4.6,86,0.00,,,0.00,WUHU216HW,2013-02-23 13:30:00,
2013-02-23 07:31:00,36.6,32.8,29.91,NNW,338,1.3,4.6,86,0.00,,,0.00,WUHU216HW,2013-02-23 13:31:00,
2013-02-23 07:32:00,36.6,32.5,29.91,NNW,338,0.8,4.6,85,0.00,,,0.00,WUHU216HW,2013-02-23 13:32:00,
2013-02-23 07:33:00,36.6,32.5,29.91,NNW,338,0.8,3.8,85,0.00,,,0.00,WUHU216HW,2013-02-23 13:33:00,
2013-02-23 07:34:00,36.6,32.5,29.91,NNW,338,4.4,4.4,85,0.00,,,0.00,WUHU216HW,2013-02-23 13:34:00,
2013-02-23 07:35:00,36.6,32.5,29.91,NNW,338,4.4,4.4,85,0.00,,,0.00,WUHU216HW,2013-02-23 13:35:00,
2013-02-23 07:36:00,36.6,32.5,29.91,NNW,338,4.4,4.4,85,0.00,,,0.00,WUHU216HW,2013-02-23 13:36:00,
2013-02-23 07:37:00,36.6,32.5,29.92,West,270,2.2,4.4,85,0.00,,,0.00,WUHU216HW,2013-02-23 13:37:00,
2013-02-23 07:38:00,36.6,32.5,29.91,West,270,2.2,4.4,85,0.00,,,0.00,WUHU216HW,2013-02-23 13:38:00,
2013-02-23 07:39:00,36.6,32.5,29.91,NNW,338,2.9,4.4,85,0.00,,,0.00,WUHU216HW,2013-02-23 13:39:00,
2013-02-23 07:40:00,36.6,32.5,29.91,NNW,338,2.9,4.4,85,0.00,,,0.00,WUHU216HW,2013-02-23 13:40:00,
2013-02-23 07:41:00,36.8,32.7,29.91,North,0,2.4,4.4,85,0.00,,,0.00,WUHU216HW,2013-02-23 13:41:00,
2013-02-23 07:42:00,36.8,32.7,29.91,North,0,2.4,4.4,85,0.00,,,0.00,WUHU216HW,2013-02-23 13:42:00,
2013-02-23 07:43:00,37.0,32.9,29.91,North,0,0.0,4.4,85,0.00,,,0.00,WUHU216HW,2013-02-23 13:43:00,
2013-02-23 07:44:00,37.0,32.9,29.91,North,0,0.0,4.4,85,0.00,,,0.00,WUHU216HW,2013-02-23 13:44:00,
2013-02-23 07:45:00,37.0,32.9,29.91,North,0,5.8,5.8,85,0.00,,,0.00,WUHU216HW,2013-02-23 13:45:00,
2013-02-23 07:46:00,37.0,32.9,29.91,North,0,5.8,5.8,85,0.00,,,0.00,WUHU216HW,2013-02-23 13:46:00,
2013-02-23 07:47:00,37.0,32.9,29.91,North,0,4.9,5.8,85,0.00,,,0.00,WUHU216HW,2013-02-23 13:47:00,
2013-02-23 07:48:00,37.0,32.9,29.91,North,0,4.9,5.8,85,0.00,,,0.00,WUHU216HW,2013-02-23 13:48:00,
2013-02-23 07:49:00,37.0,32.6,29.91,North,0,6.0,6.0,84,0.00,,,0.00,WUHU216HW,2013-02-23 13:49:00,
2013-02-23 07:50:00,37.0,32.6,29.92,North,0,6.0,6.0,84,0.00,,,0.00,WUHU216HW,2013-02-23 13:50:00,
2013-02-23 07:51:00,37.0,32.6,29.91,North,0,1.5,6.0,84,0.00,,,0.00,WUHU216HW,2013-02-23 13:51:00,
2013-02-23 07:52:00,37.0,32.6,29.91,North,0,1.5,6.0,84,0.00,,,0.00,WUHU216HW,2013-02-23 13:52:00,
2013-02-23 07:53:00,37.0,32.6,29.91,North,0,1.5,6.0,84,0.00,,,0.00,WUHU216HW,2013-02-23 13:53:00,
2013-02-23 07:54:00,37.2,32.7,29.91,West,270,1.1,6.0,84,0.00,,,0.00,WUHU216HW,2013-02-23 13:54:00,
2013-02-23 07:55:00,37.2,32.7,29.91,West,270,1.1,6.0,84,0.00,,,0.00,WUHU216HW,2013-02-23 13:55:00,
2013-02-23 07:56:00,37.2,32.7,29.91,NNE,23,3.1,6.0,84,0.00,,,0.00,WUHU216HW,2013-02-23 13:56:00,
2013-02-23 07:57:00,37.2,32.7,29.91,NNE,23,3.1,6.0,84,0.00,,,0.00,WUHU216HW,2013-02-23 13:57:00,
2013-02-23 07:58:00,37.2,32.7,29.92,North,0,5.3,6.0,84,0.00,,,0.00,WUHU216HW,2013-02-23 13:58:00,
2013-02-23 07:59:00,37.2,32.7,29.92,North,0,5.3,6.0,84,0.00,,,0.00,WUHU216HW,2013-02-23 13:59:00,
2013-02-23 08:00:00,37.2,32.7,29.91,NNE,23,2.0,5.3,84,0.00,,,0.00,WUHU216HW,2013-02-23 14:00:00,
2013-02-23 08:01:00,37.2,32.7,29.91,NNE,23,2.0,5.3,84,0.00,,,0.00,WUHU216HW,2013-02-23 14:01:00,
2013-02-23 08:02:00,37.4,32.9,29.91,NNW,338,3.8,5.3,84,0.00,,,0.00,WUHU216HW,2013-02-23 14:02:00,
2013-02-23 08:03:00,37.4,32.9,29.91,NNW,338,3.8,5.3,84,0.00,,,0.00,WUHU216HW,2013-02-23 14:03:00,
2013-02-23 08:04:00,37.4,32.9,29.92,NNW,338,4.2,5.3,84,0.00,,,0.00,WUHU216HW,2013-02-23 14:04:00,
2013-02-23 08:05:00,37.4,32.9,29.92,NNW,338,4.2,5.3,84,0.00,,,0.00,WUHU216HW,2013-02-23 14:05:00,
2013-02-23 08:06:00,37.4,32.8,29.91,North,0,6.0,6.0,83,0.00,,,0.00,WUHU216HW,2013-02-23 14:06:00,
2013-02-23 08:07:00,37.5,32.8,29.92,North,0,6.0,6.0,83,0.00,,,0.00,WUHU216HW,2013-02-23 14:07:00,
2013-02-23 08:08:00,37.5,32.8,29.91,North,0,6.0,6.0,83,0.00,,,0.00,WUHU216HW,2013-02-23 14:08:00,
2013-02-23 08:09:00,37.4,32.6,29.91,North,0,4.4,6.0,83,0.00,,,0.00,WUHU216HW,2013-02-23 14:09:00,
2013-02-23 08:10:00,37.4,32.6,29.91,North,0,4.4,6.0,83,0.00,,,0.00,WUHU216HW,2013-02-23 14:10:00,
2013-02-23 08:11:00,37.4,32.6,29.91,North,0,2.2,6.0,83,0.00,,,0.00,WUHU216HW,2013-02-23 14:11:00,
2013-02-23 08:12:00,37.4,32.6,29.91,North,0,2.2,6.0,83,0.00,,,0.00,WUHU216HW,2013-02-23 14:12:00,
2013-02-23 08:13:00,37.5,32.8,29.91,NNW,338,0.0,6.0,83,0.00,,,0.00,WUHU216HW,2013-02-23 14:13:00,
2013-02-23 08:14:00,37.5,32.8,29.91,NNW,338,0.0,6.0,83,0.00,,,0.00,WUHU216HW,2013-02-23 14:14:00,
2013-02-23 08:15:00,37.5,32.8,29.91,NW,315,1.3,6.0,83,0.00,,,0.00,WUHU216HW,2013-02-23 14:15:00,
2013-02-23 08:16:00,37.5,32.8,29.91,NW,315,1.3,6.0,83,0.00,,,0.00,WUHU216HW,2013-02-23 14:16:00,
2013-02-23 08:17:00,37.7,33.0,29.91,North,0,0.0,6.0,83,0.00,,,0.00,WUHU216HW,2013-02-23 14:17:00,
2013-02-23 08:18:00,37.7,33.0,29.91,North,0,0.0,4.4,83,0.00,,,0.00,WUHU216HW,2013-02-23 14:18:00,
2013-02-23 08:19:00,37.7,33.0,29.91,NNW,338,0.0,4.4,83,0.00,,,0.00,WUHU216HW,2013-02-23 14:19:00,
2013-02-23 08:20:00,37.7,33.0,29.91,NNW,338,0.0,2.2,83,0.00,,,0.00,WUHU216HW,2013-02-23 14:20:00,
2013-02-23 08:21:00,37.7,33.0,29.91,North,0,4.0,4.0,83,0.00,,,0.00,WUHU216HW,2013-02-23 14:21:00,
2013-02-23 08:22:00,37.9,33.2,29.91,North,0,4.0,4.0,83,0.00,,,0.00,WUHU216HW,2013-02-23 14:22:00,
2013-02-23 08:23:00,37.9,33.2,29.91,North,0,4.0,4.0,83,0.00,,,0.00,WUHU216HW,2013-02-23 14:23:00,
2013-02-23 08:24:00,37.9,32.9,29.91,NNW,338,0.0,4.0,82,0.00,,,0.00,WUHU216HW,2013-02-23 14:24:00,
2013-02-23 08:25:00,37.9,32.9,29.91,NNW,338,0.0,4.0,82,0.00,,,0.00,WUHU216HW,2013-02-23 14:25:00,
2013-02-23 08:26:00,37.9,32.9,29.90,North,0,3.8,4.0,82,0.00,,,0.00,WUHU216HW,2013-02-23 14:26:00,
2013-02-23 08:27:00,37.9,32.9,29.90,North,0,3.8,4.0,82,0.00,,,0.00,WUHU216HW,2013-02-23 14:27:00,
2013-02-23 08:28:00,37.9,32.9,29.90,NNW,338,1.5,4.0,82,0.00,,,0.00,WUHU216HW,2013-02-23 14:28:00,
2013-02-23 08:29:00,37.9,32.9,29.90,NNW,338,1.5,4.0,82,0.00,,,0.00,WUHU216HW,2013-02-23 14:29:00,
2013-02-23 08:30:00,37.9,32.9,29.90,North,0,0.0,4.0,82,0.00,,,0.00,WUHU216HW,2013-02-23 14:30:00,
2013-02-23 08:31:00,37.9,32.9,29.90,North,0,0.0,4.0,82,0.00,,,0.00,WUHU216HW,2013-02-23 14:31:00,
2013-02-23 08:32:00,38.1,33.1,29.90,NNW,338,2.0,4.0,82,0.00,,,0.00,WUHU216HW,2013-02-23 14:32:00,
2013-02-23 08:33:00,38.1,33.1,29.90,NNW,338,2.0,3.8,82,0.00,,,0.00,WUHU216HW,2013-02-23 14:33:00,
2013-02-23 08:34:00,38.3,33.1,29.90,NW,315,0.0,3.8,82,0.00,,,0.00,WUHU216HW,2013-02-23 14:34:00,
2013-02-23 08:35:00,38.3,33.2,29.90,NW,315,0.0,3.8,82,0.00,,,0.00,WUHU216HW,2013-02-23 14:35:00,
2013-02-23 08:36:00,38.3,33.2,29.90,NNW,338,4.2,4.2,82,0.00,,,0.00,WUHU216HW,2013-02-23 14:36:00,
2013-02-23 08:37:00,38.4,33.4,29.90,NNW,338,4.2,4.2,82,0.00,,,0.00,WUHU216HW,2013-02-23 14:37:00,
2013-02-23 08:38:00,38.4,33.4,29.91,NNW,338,4.2,4.2,82,0.00,,,0.00,WUHU216HW,2013-02-23 14:38:00,
2013-02-23 08:39:00,38.3,33.2,29.90,NW,315,0.0,4.2,82,0.00,,,0.00,WUHU216HW,2013-02-23 14:39:00,
2013-02-23 08:40:00,38.3,33.2,29.90,NW,315,0.0,4.2,82,0.00,,,0.00,WUHU216HW,2013-02-23 14:40:00,
2013-02-23 08:41:00,38.4,33.4,29.90,North,0,4.0,4.2,82,0.00,,,0.00,WUHU216HW,2013-02-23 14:41:00,
2013-02-23 08:42:00,38.4,33.4,29.90,North,0,4.0,4.2,82,0.00,,,0.00,WUHU216HW,2013-02-23 14:42:00,
2013-02-23 08:43:00,38.8,33.8,29.90,North,0,4.0,4.2,82,0.00,,,0.00,WUHU216HW,2013-02-23 14:43:00,
2013-02-23 08:44:00,38.8,33.8,29.90,North,0,4.0,4.2,82,0.00,,,0.00,WUHU216HW,2013-02-23 14:44:00,
2013-02-23 08:45:00,38.8,33.8,29.90,NNE,23,3.1,4.2,82,0.00,,,0.00,WUHU216HW,2013-02-23 14:45:00,
2013-02-23 08:46:00,38.8,33.8,29.90,NNE,23,3.1,4.2,82,0.00,,,0.00,WUHU216HW,2013-02-23 14:46:00,
2013-02-23 08:47:00,38.4,33.1,29.90,North,0,3.5,4.2,81,0.00,,,0.00,WUHU216HW,2013-02-23 14:47:00,
2013-02-23 08:48:00,38.4,33.1,29.90,North,0,3.5,4.0,81,0.00,,,0.00,WUHU216HW,2013-02-23 14:48:00,
2013-02-23 08:49:00,38.4,33.1,29.90,North,0,0.0,4.0,81,0.00,,,0.00,WUHU216HW,2013-02-23 14:49:00,
2013-02-23 08:50:00,38.4,33.1,29.90,North,0,0.0,4.0,81,0.00,,,0.00,WUHU216HW,2013-02-23 14:50:00,
2013-02-23 08:51:00,38.4,33.1,29.90,NNW,338,0.0,4.0,81,0.00,,,0.00,WUHU216HW,2013-02-23 14:51:00,
2013-02-23 08:52:00,38.4,33.1,29.90,NNW,338,0.0,4.0,81,0.00,,,0.00,WUHU216HW,2013-02-23 14:52:00,
2013-02-23 08:53:00,38.4,33.1,29.89,NNW,338,0.0,4.0,81,0.00,,,0.00,WUHU216HW,2013-02-23 14:53:00,
2013-02-23 08:54:00,39.0,33.7,29.89,North,0,4.0,4.0,81,0.00,,,0.00,WUHU216HW,2013-02-23 14:54:00,
2013-02-23 08:55:00,39.0,33.7,29.89,North,0,4.0,4.0,81,0.00,,,0.00,WUHU216HW,2013-02-23 14:55:00,
2013-02-23 08:56:00,39.0,33.7,29.89,North,0,3.8,4.0,81,0.00,,,0.00,WUHU216HW,2013-02-23 14:56:00,
2013-02-23 08:57:00,39.0,33.7,29.89,North,0,3.8,4.0,81,0.00,,,0.00,WUHU216HW,2013-02-23 14:57:00,
2013-02-23 08:58:00,39.3,33.7,29.89,NW,315,2.2,4.0,80,0.00,,,0.00,WUHU216HW,2013-02-23 14:58:00,
2013-02-23 08:59:00,39.3,33.7,29.89,NW,315,2.2,4.0,80,0.00,,,0.00,WUHU216HW,2013-02-23 14:59:00,
2013-02-23 09:00:00,39.5,34.2,29.89,NNE,23,2.6,4.0,81,0.00,,,0.00,WUHU216HW,2013-02-23 15:00:00,
2013-02-23 09:01:00,39.5,34.2,29.89,NNE,23,2.6,4.0,81,0.00,,,0.00,WUHU216HW,2013-02-23 15:01:00,
2013-02-23 09:02:00,39.7,34.1,29.89,NE,45,2.2,4.0,80,0.00,,,0.00,WUHU216HW,2013-02-23 15:02:00,
2013-02-23 09:03:00,39.7,34.1,29.89,NE,45,2.2,4.0,80,0.00,,,0.00,WUHU216HW,2013-02-23 15:03:00,
2013-02-23 09:04:00,39.9,34.2,29.89,North,0,4.0,4.0,80,0.00,,,0.00,WUHU216HW,2013-02-23 15:04:00,
2013-02-23 09:05:00,39.9,34.2,29.89,North,0,4.0,4.0,80,0.00,,,0.00,WUHU216HW,2013-02-23 15:05:00,
2013-02-23 09:06:00,40.2,34.5,29.89,North,0,4.0,4.0,80,0.00,,,0.00,WUHU216HW,2013-02-23 15:06:00,
2013-02-23 09:07:00,40.2,34.5,29.89,North,0,7.8,7.8,80,0.00,,,0.00,WUHU216HW,2013-02-23 15:07:00,
2013-02-23 09:08:00,40.2,34.5,29.89,North,0,7.8,7.8,80,0.00,,,0.00,WUHU216HW,2013-02-23 15:08:00,
2013-02-23 09:09:00,40.4,34.7,29.89,NE,45,4.9,7.8,80,0.00,,,0.00,WUHU216HW,2013-02-23 15:09:00,
2013-02-23 09:10:00,40.4,34.7,29.89,NE,45,4.9,7.8,80,0.00,,,0.00,WUHU216HW,2013-02-23 15:10:00,
2013-02-23 09:11:00,40.2,33.9,29.89,ENE,68,1.7,7.8,78,0.00,,,0.00,WUHU216HW,2013-02-23 15:11:00,
2013-02-23 09:12:00,40.2,33.9,29.89,ENE,68,1.7,7.8,78,0.00,,,0.00,WUHU216HW,2013-02-23 15:12:00,
2013-02-23 09:13:00,40.6,34.5,29.89,NNE,23,0.0,7.8,79,0.00,,,0.00,WUHU216HW,2013-02-23 15:13:00,
2013-02-23 09:14:00,40.6,34.5,29.90,NNE,23,0.0,7.8,79,0.00,,,0.00,WUHU216HW,2013-02-23 15:14:00,
2013-02-23 09:15:00,40.8,34.4,29.90,NNE,23,3.8,7.8,78,0.00,,,0.00,WUHU216HW,2013-02-23 15:15:00,
2013-02-23 09:16:00,40.8,34.4,29.90,NNE,23,3.8,7.8,78,0.00,,,0.00,WUHU216HW,2013-02-23 15:16:00,
2013-02-23 09:17:00,41.0,34.5,29.89,NE,45,1.3,7.8,78,0.00,,,0.00,WUHU216HW,2013-02-23 15:17:00,
2013-02-23 09:18:00,41.0,34.5,29.89,NE,45,1.3,4.9,78,0.00,,,0.00,WUHU216HW,2013-02-23 15:18:00,
2013-02-23 09:19:00,41.0,34.5,29.89,North,0,1.3,4.9,78,0.00,,,0.00,WUHU216HW,2013-02-23 15:19:00,
2013-02-23 09:20:00,41.0,34.5,29.89,North,0,1.3,4.9,78,0.00,,,0.00,WUHU216HW,2013-02-23 15:20:00,
2013-02-23 09:21:00,41.0,34.5,29.89,WNW,293,0.0,3.8,78,0.00,,,0.00,WUHU216HW,2013-02-23 15:21:00,
2013-02-23 09:22:00,41.1,34.7,29.89,WNW,293,0.0,3.8,78,0.00,,,0.00,WUHU216HW,2013-02-23 15:22:00,
2013-02-23 09:23:00,41.1,34.7,29.89,WNW,293,0.0,3.8,78,0.00,,,0.00,WUHU216HW,2013-02-23 15:23:00,
2013-02-23 09:24:00,41.5,35.1,29.89,WNW,293,0.0,3.8,78,0.00,,,0.00,WUHU216HW,2013-02-23 15:24:00,
2013-02-23 09:25:00,41.5,35.1,29.89,WNW,293,0.0,3.8,78,0.00,,,0.00,WUHU216HW,2013-02-23 15:25:00,
2013-02-23 09:26:00,41.5,35.1,29.89,NNE,23,2.9,2.9,78,0.00,,,0.00,WUHU216HW,2013-02-23 15:26:00,
2013-02-23 09:27:00,41.5,35.1,29.89,NNE,23,2.9,2.9,78,0.00,,,0.00,WUHU216HW,2013-02-23 15:27:00,
2013-02-23 09:28:00,41.7,34.9,29.89,NNE,23,0.0,2.9,77,0.00,,,0.00,WUHU216HW,2013-02-23 15:28:00,
2013-02-23 09:29:00,41.7,34.9,29.89,NNE,23,0.0,2.9,77,0.00,,,0.00,WUHU216HW,2013-02-23 15:29:00,
2013-02-23 09:30:00,42.0,35.3,29.89,North,0,4.0,4.0,77,0.00,,,0.00,WUHU216HW,2013-02-23 15:30:00,
2013-02-23 09:31:00,42.0,35.3,29.88,North,0,4.0,4.0,77,0.00,,,0.00,WUHU216HW,2013-02-23 15:31:00,
2013-02-23 09:32:00,42.2,35.2,29.89,ENE,68,5.1,5.1,76,0.00,,,0.00,WUHU216HW,2013-02-23 15:32:00,
2013-02-23 09:33:00,42.2,35.2,29.88,ENE,68,5.1,5.1,76,0.00,,,0.00,WUHU216HW,2013-02-23 15:33:00,
2013-02-23 09:34:00,41.9,34.1,29.88,NNE,23,1.3,5.1,74,0.00,,,0.00,WUHU216HW,2013-02-23 15:34:00,
2013-02-23 09:35:00,41.9,34.1,29.89,NNE,23,1.3,5.1,74,0.00,,,0.00,WUHU216HW,2013-02-23 15:35:00,
2013-02-23 09:36:00,41.9,34.1,29.89,WNW,293,1.3,5.1,74,0.00,,,0.00,WUHU216HW,2013-02-23 15:36:00,
2013-02-23 09:37:00,41.5,34.1,29.88,WNW,293,1.3,5.1,75,0.00,,,0.00,WUHU216HW,2013-02-23 15:37:00,
2013-02-23 09:38:00,41.5,34.1,29.88,WNW,293,1.3,5.1,75,0.00,,,0.00,WUHU216HW,2013-02-23 15:38:00,
2013-02-23 09:39:00,41.3,33.9,29.88,NNW,338,0.0,5.1,75,0.00,,,0.00,WUHU216HW,2013-02-23 15:39:00,
2013-02-23 09:40:00,41.3,33.9,29.88,NNW,338,0.0,5.1,75,0.00,,,0.00,WUHU216HW,2013-02-23 15:40:00,
2013-02-23 09:41:00,41.5,34.4,29.88,NNE,23,2.4,5.1,76,0.00,,,0.00,WUHU216HW,2013-02-23 15:41:00,
2013-02-23 09:42:00,41.5,34.4,29.88,NNE,23,2.4,5.1,76,0.00,,,0.00,WUHU216HW,2013-02-23 15:42:00,
2013-02-23 09:43:00,41.1,33.8,29.88,North,0,3.8,3.8,75,0.00,,,0.00,WUHU216HW,2013-02-23 15:43:00,
2013-02-23 09:44:00,41.1,33.8,29.88,North,0,3.8,3.8,75,0.00,,,0.00,WUHU216HW,2013-02-23 15:44:00,
2013-02-23 09:45:00,40.8,33.4,29.88,North,0,4.9,4.9,75,0.00,,,0.00,WUHU216HW,2013-02-23 15:45:00,
2013-02-23 09:46:00,40.8,33.4,29.89,North,0,4.9,4.9,75,0.00,,,0.00,WUHU216HW,2013-02-23 15:46:00,
2013-02-23 09:47:00,40.8,33.7,29.89,NW,315,1.3,4.9,76,0.00,,,0.00,WUHU216HW,2013-02-23 15:47:00,
2013-02-23 09:48:00,40.8,33.7,29.89,NW,315,1.3,4.9,76,0.00,,,0.00,WUHU216HW,2013-02-23 15:48:00,
2013-02-23 09:49:00,40.8,33.7,29.89,NE,45,2.4,4.9,76,0.00,,,0.00,WUHU216HW,2013-02-23 15:49:00,
2013-02-23 09:50:00,40.8,33.7,29.89,NE,45,2.4,4.9,76,0.00,,,0.00,WUHU216HW,2013-02-23 15:50:00,
2013-02-23 09:51:00,40.8,33.7,29.88,North,0,0.0,4.9,76,0.00,,,0.00,WUHU216HW,2013-02-23 15:51:00,
2013-02-23 09:52:00,40.8,33.7,29.88,North,0,0.0,4.9,76,0.00,,,0.00,WUHU216HW,2013-02-23 15:52:00,
2013-02-23 09:53:00,40.8,33.7,29.89,North,0,0.0,4.9,76,0.00,,,0.00,WUHU216HW,2013-02-23 15:53:00,
2013-02-23 09:54:00,41.0,33.9,29.88,NNW,338,0.0,4.9,76,0.00,,,0.00,WUHU216HW,2013-02-23 15:54:00,
2013-02-23 09:55:00,41.0,33.9,29.88,NNW,338,0.0,4.9,76,0.00,,,0.00,WUHU216HW,2013-02-23 15:55:00,
2013-02-23 09:56:00,41.3,34.3,29.89,NW,315,0.0,2.4,76,0.00,,,0.00,WUHU216HW,2013-02-23 15:56:00,
2013-02-23 09:57:00,41.3,34.3,29.88,NW,315,0.0,2.4,76,0.00,,,0.00,WUHU216HW,2013-02-23 15:57:00,
2013-02-23 09:58:00,41.5,34.4,29.88,NE,45,2.0,2.4,76,0.00,,,0.00,WUHU216HW,2013-02-23 15:58:00,
2013-02-23 09:59:00,41.5,34.4,29.88,NE,45,2.0,2.4,76,0.00,,,0.00,WUHU216HW,2013-02-23 15:59:00,
2013-02-23 10:00:00,41.7,34.3,29.89,ENE,68,1.1,2.0,75,0.00,,,0.00,WUHU216HW,2013-02-23 16:00:00,
2013-02-23 10:01:00,41.7,34.3,29.89,ENE,68,1.1,2.0,75,0.00,,,0.00,WUHU216HW,2013-02-23 16:01:00,
2013-02-23 10:02:00,41.9,34.5,29.88,NE,45,0.0,2.0,75,0.00,,,0.00,WUHU216HW,2013-02-23 16:02:00,
2013-02-23 10:03:00,41.9,34.5,29.88,NE,45,0.0,2.0,75,0.00,,,0.00,WUHU216HW,2013-02-23 16:03:00,
2013-02-23 10:04:00,41.9,34.5,29.88,ENE,68,0.0,2.0,75,0.00,,,0.00,WUHU216HW,2013-02-23 16:04:00,
2013-02-23 10:05:00,42.0,34.7,29.88,ENE,68,0.0,2.0,75,0.00,,,0.00,WUHU216HW,2013-02-23 16:05:00,
2013-02-23 10:06:00,42.0,35.5,29.88,North,0,4.4,4.4,75,0.00,,,0.00,WUHU216HW,2013-02-23 16:06:00,
2013-02-23 10:07:00,42.6,35.5,29.88,North,0,4.4,4.4,76,0.00,,,0.00,WUHU216HW,2013-02-23 16:07:00,
2013-02-23 10:08:00,42.6,35.5,29.88,North,0,4.4,4.4,76,0.00,,,0.00,WUHU216HW,2013-02-23 16:08:00,
2013-02-23 10:09:00,42.9,35.5,29.88,North,0,2.4,4.4,75,0.00,,,0.00,WUHU216HW,2013-02-23 16:09:00,
2013-02-23 10:10:00,42.9,35.5,29.89,North,0,2.4,4.4,75,0.00,,,0.00,WUHU216HW,2013-02-23 16:10:00,
2013-02-23 10:11:00,42.6,34.9,29.89,North,0,2.4,4.4,74,0.00,,,0.00,WUHU216HW,2013-02-23 16:11:00,
2013-02-23 10:12:00,42.6,34.9,29.89,North,0,2.4,4.4,74,0.00,,,0.00,WUHU216HW,2013-02-23 16:12:00,
2013-02-23 10:13:00,42.6,34.5,29.89,NE,45,5.8,5.8,73,0.00,,,0.00,WUHU216HW,2013-02-23 16:13:00,
2013-02-23 10:14:00,42.6,34.5,29.89,NE,45,5.8,5.8,73,0.00,,,0.00,WUHU216HW,2013-02-23 16:14:00,
2013-02-23 10:15:00,42.4,34.4,29.89,NNE,23,0.0,5.8,73,0.00,,,0.00,WUHU216HW,2013-02-23 16:15:00,
2013-02-23 10:16:00,42.4,34.4,29.89,NNE,23,0.0,5.8,73,0.00,,,0.00,WUHU216HW,2013-02-23 16:16:00,
2013-02-23 10:17:00,42.4,34.7,29.89,NNE,23,0.0,5.8,74,0.00,,,0.00,WUHU216HW,2013-02-23 16:17:00,
2013-02-23 10:18:00,42.4,34.7,29.89,NNE,23,0.0,5.8,74,0.00,,,0.00,WUHU216HW,2013-02-23 16:18:00,
2013-02-23 10:19:00,42.6,34.5,29.89,North,0,6.2,6.2,73,0.00,,,0.00,WUHU216HW,2013-02-23 16:19:00,
2013-02-23 10:20:00,42.6,34.5,29.89,North,0,6.2,6.2,73,0.00,,,0.00,WUHU216HW,2013-02-23 16:20:00,
2013-02-23 10:21:00,42.4,34.0,29.89,NNE,23,4.0,6.2,72,0.00,,,0.00,WUHU216HW,2013-02-23 16:21:00,
2013-02-23 10:22:00,42.4,34.0,29.88,NNE,23,4.0,6.2,72,0.00,,,0.00,WUHU216HW,2013-02-23 16:22:00,
2013-02-23 10:23:00,42.4,34.0,29.88,NNE,23,4.0,6.2,72,0.00,,,0.00,WUHU216HW,2013-02-23 16:23:00,
2013-02-23 10:24:00,42.4,34.0,29.88,NNE,23,2.4,6.2,72,0.00,,,0.00,WUHU216HW,2013-02-23 16:24:00,
2013-02-23 10:25:00,42.4,34.0,29.88,NNE,23,2.4,6.2,72,0.00,,,0.00,WUHU216HW,2013-02-23 16:25:00,
2013-02-23 10:26:00,42.4,34.0,29.88,North,0,0.0,6.2,72,0.00,,,0.00,WUHU216HW,2013-02-23 16:26:00,
2013-02-23 10:27:00,42.4,34.0,29.88,North,0,0.0,6.2,72,0.00,,,0.00,WUHU216HW,2013-02-23 16:27:00,
2013-02-23 10:28:00,42.4,34.0,29.88,NNE,23,1.7,6.2,72,0.00,,,0.00,WUHU216HW,2013-02-23 16:28:00,
2013-02-23 10:29:00,42.4,34.0,29.88,NNE,23,1.7,6.2,72,0.00,,,0.00,WUHU216HW,2013-02-23 16:29:00,
2013-02-23 10:30:00,42.6,34.2,29.88,North,0,0.0,4.0,72,0.00,,,0.00,WUHU216HW,2013-02-23 16:30:00,
2013-02-23 10:31:00,42.6,34.2,29.88,North,0,0.0,4.0,72,0.00,,,0.00,WUHU216HW,2013-02-23 16:31:00,
2013-02-23 10:32:00,42.9,34.6,29.88,NE,45,3.3,4.0,72,0.00,,,0.00,WUHU216HW,2013-02-23 16:32:00,
2013-02-23 10:33:00,42.9,34.6,29.87,NE,45,3.3,3.3,72,0.00,,,0.00,WUHU216HW,2013-02-23 16:33:00,
2013-02-23 10:34:00,43.1,34.7,29.87,NNE,23,2.2,3.3,72,0.00,,,0.00,WUHU216HW,2013-02-23 16:34:00,
2013-02-23 10:35:00,43.1,34.7,29.88,NNE,23,2.2,3.3,72,0.00,,,0.00,WUHU216HW,2013-02-23 16:35:00,
2013-02-23 10:36:00,43.3,34.6,29.88,NE,45,3.3,3.3,71,0.00,,,0.00,WUHU216HW,2013-02-23 16:36:00,
2013-02-23 10:37:00,43.3,34.6,29.88,NE,45,3.3,3.3,71,0.00,,,0.00,WUHU216HW,2013-02-23 16:37:00,
2013-02-23 10:38:00,43.3,34.6,29.88,NE,45,3.3,3.3,71,0.00,,,0.00,WUHU216HW,2013-02-23 16:38:00,
2013-02-23 10:39:00,43.3,34.6,29.88,NE,45,3.5,3.5,71,0.00,,,0.00,WUHU216HW,2013-02-23 16:39:00,
2013-02-23 10:40:00,43.3,34.6,29.88,NE,45,3.5,3.5,71,0.00,,,0.00,WUHU216HW,2013-02-23 16:40:00,
2013-02-23 10:41:00,43.5,35.0,29.88,ESE,113,2.0,3.5,72,0.00,,,0.00,WUHU216HW,2013-02-23 16:41:00,
2013-02-23 10:42:00,43.5,35.0,29.89,ESE,113,2.0,3.5,72,0.00,,,0.00,WUHU216HW,2013-02-23 16:42:00,
2013-02-23 10:43:00,43.7,35.2,29.89,East,90,2.2,3.5,72,0.00,,,0.00,WUHU216HW,2013-02-23 16:43:00,
2013-02-23 10:44:00,43.7,35.2,29.89,East,90,2.2,3.5,72,0.00,,,0.00,WUHU216HW,2013-02-23 16:44:00,
2013-02-23 10:45:00,44.2,35.4,29.89,ENE,68,0.0,3.5,71,0.00,,,0.00,WUHU216HW,2013-02-23 16:45:00,
2013-02-23 10:46:00,44.2,35.4,29.89,ENE,68,0.0,3.5,71,0.00,,,0.00,WUHU216HW,2013-02-23 16:46:00,
2013-02-23 10:47:00,44.4,35.5,29.89,NNE,23,8.5,8.5,71,0.00,,,0.00,WUHU216HW,2013-02-23 16:47:00,
2013-02-23 10:48:00,44.4,35.5,29.89,NNE,23,8.5,8.5,71,0.00,,,0.00,WUHU216HW,2013-02-23 16:48:00,
2013-02-23 10:49:00,44.4,35.2,29.89,North,0,2.2,8.5,70,0.00,,,0.00,WUHU216HW,2013-02-23 16:49:00,
2013-02-23 10:50:00,44.4,35.2,29.89,North,0,2.2,8.5,70,0.00,,,0.00,WUHU216HW,2013-02-23 16:50:00,
2013-02-23 10:51:00,44.4,35.2,29.89,NNE,23,2.2,8.5,70,0.00,,,0.00,WUHU216HW,2013-02-23 16:51:00,
2013-02-23 10:52:00,44.4,35.2,29.89,NNE,23,2.2,8.5,70,0.00,,,0.00,WUHU216HW,2013-02-23 16:52:00,
2013-02-23 10:53:00,44.4,35.2,29.89,NNE,23,2.2,8.5,70,0.00,,,0.00,WUHU216HW,2013-02-23 16:53:00,
2013-02-23 10:54:00,44.6,35.4,29.89,North,0,6.4,8.5,70,0.00,,,0.00,WUHU216HW,2013-02-23 16:54:00,
2013-02-23 10:55:00,44.6,35.4,29.89,North,0,6.4,8.5,70,0.00,,,0.00,WUHU216HW,2013-02-23 16:55:00,
2013-02-23 10:56:00,44.4,35.2,29.88,NNE,23,4.4,8.5,70,0.00,,,0.00,WUHU216HW,2013-02-23 16:56:00,
2013-02-23 10:57:00,44.4,35.2,29.88,NNE,23,4.4,8.5,70,0.00,,,0.00,WUHU216HW,2013-02-23 16:57:00,
2013-02-23 10:58:00,44.4,34.8,29.88,North,0,6.2,6.4,69,0.00,,,0.00,WUHU216HW,2013-02-23 16:58:00,
2013-02-23 10:59:00,44.4,34.8,29.88,North,0,6.2,6.4,69,0.00,,,0.00,WUHU216HW,2013-02-23 16:59:00,
2013-02-23 11:00:00,44.6,35.4,29.88,NNE,23,5.1,6.4,70,0.00,,,0.00,WUHU216HW,2013-02-23 17:00:00,
2013-02-23 11:01:00,44.6,35.4,29.89,NNE,23,5.1,6.4,70,0.00,,,0.00,WUHU216HW,2013-02-23 17:01:00,
2013-02-23 11:02:00,44.6,35.4,29.88,NE,45,0.0,6.4,70,0.00,,,0.00,WUHU216HW,2013-02-23 17:02:00,
2013-02-23 11:03:00,44.6,35.4,29.88,NE,45,0.0,6.4,70,0.00,,,0.00,WUHU216HW,2013-02-23 17:03:00,
2013-02-23 11:04:00,44.9,35.7,29.88,ENE,68,1.3,6.4,70,0.00,,,0.00,WUHU216HW,2013-02-23 17:04:00,
2013-02-23 11:05:00,44.9,35.7,29.88,ENE,68,1.3,6.2,70,0.00,,,0.00,WUHU216HW,2013-02-23 17:05:00,
2013-02-23 11:06:00,44.9,35.5,29.88,ENE,68,0.0,6.2,69,0.00,,,0.00,WUHU216HW,2013-02-23 17:06:00,
2013-02-23 11:07:00,45.1,35.5,29.88,ENE,68,0.0,6.2,69,0.00,,,0.00,WUHU216HW,2013-02-23 17:07:00,
2013-02-23 11:08:00,45.1,35.5,29.88,ENE,68,0.0,6.2,69,0.00,,,0.00,WUHU216HW,2013-02-23 17:08:00,
2013-02-23 11:09:00,45.3,35.3,29.88,NNE,23,1.1,5.1,68,0.00,,,0.00,WUHU216HW,2013-02-23 17:09:00,
2013-02-23 11:10:00,45.3,35.3,29.89,NNE,23,1.1,5.1,68,0.00,,,0.00,WUHU216HW,2013-02-23 17:10:00,
2013-02-23 11:11:00,45.3,35.3,29.88,NE,45,4.2,4.2,68,0.00,,,0.00,WUHU216HW,2013-02-23 17:11:00,
2013-02-23 11:12:00,45.3,35.3,29.88,NE,45,4.2,4.2,68,0.00,,,0.00,WUHU216HW,2013-02-23 17:12:00,
2013-02-23 11:13:00,45.3,35.3,29.88,NE,45,2.2,4.2,68,0.00,,,0.00,WUHU216HW,2013-02-23 17:13:00,
2013-02-23 11:14:00,45.3,35.3,29.88,NE,45,2.2,4.2,68,0.00,,,0.00,WUHU216HW,2013-02-23 17:14:00,
2013-02-23 11:15:00,45.6,35.7,29.88,NNE,23,1.7,4.2,68,0.00,,,0.00,WUHU216HW,2013-02-23 17:15:00,
2013-02-23 11:16:00,45.6,35.7,29.88,NNE,23,1.7,4.2,68,0.00,,,0.00,WUHU216HW,2013-02-23 17:16:00,
2013-02-23 11:17:00,45.6,35.7,29.88,North,0,6.7,6.7,68,0.00,,,0.00,WUHU216HW,2013-02-23 17:17:00,
2013-02-23 11:18:00,45.6,35.7,29.88,North,0,6.7,6.7,68,0.00,,,0.00,WUHU216HW,2013-02-23 17:18:00,
2013-02-23 11:19:00,46.0,36.0,29.88,NNE,23,1.7,6.7,68,0.00,,,0.00,WUHU216HW,2013-02-23 17:19:00,
2013-02-23 11:20:00,46.0,36.0,29.88,NNE,23,1.7,6.7,68,0.00,,,0.00,WUHU216HW,2013-02-23 17:20:00,
2013-02-23 11:21:00,46.4,36.0,29.88,NE,45,4.4,6.7,67,0.00,,,0.00,WUHU216HW,2013-02-23 17:21:00,
2013-02-23 11:22:00,46.4,36.0,29.88,NE,45,4.4,6.7,67,0.00,,,0.00,WUHU216HW,2013-02-23 17:22:00,
2013-02-23 11:23:00,46.4,36.0,29.88,NE,45,4.4,6.7,67,0.00,,,0.00,WUHU216HW,2013-02-23 17:23:00,
2013-02-23 11:24:00,46.5,36.1,29.88,NNW,338,6.2,6.7,67,0.00,,,0.00,WUHU216HW,2013-02-23 17:24:00,
2013-02-23 11:25:00,46.5,36.1,29.89,NNW,338,6.2,6.7,67,0.00,,,0.00,WUHU216HW,2013-02-23 17:25:00,
2013-02-23 11:26:00,46.2,35.4,29.88,North,0,4.0,6.7,66,0.00,,,0.00,WUHU216HW,2013-02-23 17:26:00,
2013-02-23 11:27:00,46.2,35.4,29.88,North,0,4.0,6.7,66,0.00,,,0.00,WUHU216HW,2013-02-23 17:27:00,
2013-02-23 11:28:00,46.2,35.4,29.88,ENE,68,0.0,6.7,66,0.00,,,0.00,WUHU216HW,2013-02-23 17:28:00,
2013-02-23 11:29:00,46.2,35.4,29.88,ENE,68,0.0,6.2,66,0.00,,,0.00,WUHU216HW,2013-02-23 17:29:00,
2013-02-23 11:30:00,46.5,35.7,29.88,ENE,68,0.0,6.2,66,0.00,,,0.00,WUHU216HW,2013-02-23 17:30:00,
2013-02-23 11:31:00,46.5,35.7,29.88,ENE,68,0.0,6.2,66,0.00,,,0.00,WUHU216HW,2013-02-23 17:31:00,
2013-02-23 11:32:00,46.5,35.7,29.88,NNE,23,3.1,6.2,66,0.00,,,0.00,WUHU216HW,2013-02-23 17:32:00,
2013-02-23 11:33:00,46.5,35.7,29.88,NNE,23,3.1,6.2,66,0.00,,,0.00,WUHU216HW,2013-02-23 17:33:00,
2013-02-23 11:34:00,46.9,36.1,29.88,North,0,4.6,6.2,66,0.00,,,0.00,WUHU216HW,2013-02-23 17:34:00,
2013-02-23 11:35:00,46.9,36.1,29.88,North,0,4.6,4.6,66,0.00,,,0.00,WUHU216HW,2013-02-23 17:35:00,
2013-02-23 11:36:00,46.7,35.9,29.88,NE,45,1.5,4.6,66,0.00,,,0.00,WUHU216HW,2013-02-23 17:36:00,
2013-02-23 11:37:00,46.7,35.9,29.88,NE,45,1.5,4.6,66,0.00,,,0.00,WUHU216HW,2013-02-23 17:37:00,
2013-02-23 11:38:00,46.7,35.9,29.88,NE,45,1.5,4.6,66,0.00,,,0.00,WUHU216HW,2013-02-23 17:38:00,
2013-02-23 11:39:00,47.1,36.3,29.88,North,0,4.0,4.6,66,0.00,,,0.00,WUHU216HW,2013-02-23 17:39:00,
2013-02-23 11:40:00,47.1,36.3,29.88,North,0,4.0,4.6,66,0.00,,,0.00,WUHU216HW,2013-02-23 17:40:00,
2013-02-23 11:41:00,47.6,36.8,29.88,NE,45,4.0,4.6,66,0.00,,,0.00,WUHU216HW,2013-02-23 17:41:00,
2013-02-23 11:42:00,47.6,36.8,29.88,NE,45,4.0,4.6,66,0.00,,,0.00,WUHU216HW,2013-02-23 17:42:00,
2013-02-23 11:43:00,47.8,36.6,29.88,NE,45,2.4,4.6,65,0.00,,,0.00,WUHU216HW,2013-02-23 17:43:00,
2013-02-23 11:44:00,47.8,36.6,29.88,NE,45,2.4,4.6,65,0.00,,,0.00,WUHU216HW,2013-02-23 17:44:00,
2013-02-23 11:45:00,47.8,35.8,29.88,North,0,2.6,4.0,63,0.00,,,0.00,WUHU216HW,2013-02-23 17:45:00,
2013-02-23 11:46:00,47.8,35.8,29.88,North,0,2.6,4.0,63,0.00,,,0.00,WUHU216HW,2013-02-23 17:46:00,
2013-02-23 11:47:00,47.8,36.2,29.87,NW,315,4.4,4.4,64,0.00,,,0.00,WUHU216HW,2013-02-23 17:47:00,
2013-02-23 11:48:00,47.8,36.2,29.87,NW,315,4.4,4.4,64,0.00,,,0.00,WUHU216HW,2013-02-23 17:48:00,
2013-02-23 11:49:00,47.8,36.2,29.87,North,0,5.8,5.8,64,0.00,,,0.00,WUHU216HW,2013-02-23 17:49:00,
2013-02-23 11:50:00,47.8,36.2,29.87,North,0,5.8,5.8,64,0.00,,,0.00,WUHU216HW,2013-02-23 17:50:00,
2013-02-23 11:51:00,48.2,36.9,29.87,North,0,4.2,5.8,65,0.00,,,0.00,WUHU216HW,2013-02-23 17:51:00,
2013-02-23 11:52:00,48.2,36.9,29.87,North,0,4.2,5.8,65,0.00,,,0.00,WUHU216HW,2013-02-23 17:52:00,
2013-02-23 11:53:00,48.2,36.5,29.87,North,0,4.2,5.8,65,0.00,,,0.00,WUHU216HW,2013-02-23 17:53:00,
2013-02-23 11:54:00,48.2,36.5,29.87,NNW,338,4.2,5.8,64,0.00,,,0.00,WUHU216HW,2013-02-23 17:54:00,
2013-02-23 11:55:00,48.2,36.5,29.87,NNW,338,4.2,5.8,64,0.00,,,0.00,WUHU216HW,2013-02-23 17:55:00,
2013-02-23 11:56:00,48.2,36.1,29.87,North,0,2.0,5.8,63,0.00,,,0.00,WUHU216HW,2013-02-23 17:56:00,
2013-02-23 11:57:00,48.2,36.1,29.87,North,0,2.0,5.8,63,0.00,,,0.00,WUHU216HW,2013-02-23 17:57:00,
2013-02-23 11:58:00,48.7,37.4,29.87,North,0,5.1,5.8,65,0.00,,,0.00,WUHU216HW,2013-02-23 17:58:00,
2013-02-23 11:59:00,48.7,37.4,29.87,North,0,5.1,5.8,65,0.00,,,0.00,WUHU216HW,2013-02-23 17:59:00,
2013-02-23 12:00:00,48.9,36.8,29.87,North,0,7.8,7.8,63,0.00,,,0.00,WUHU216HW,2013-02-23 18:00:00,
2013-02-23 12:01:00,48.9,36.8,29.87,North,0,7.8,7.8,63,0.00,,,0.00,WUHU216HW,2013-02-23 18:01:00,
2013-02-23 12:02:00,48.5,36.1,29.87,NE,45,0.0,7.8,62,0.00,,,0.00,WUHU216HW,2013-02-23 18:02:00,
2013-02-23 12:03:00,48.5,36.1,29.86,NE,45,0.0,7.8,62,0.00,,,0.00,WUHU216HW,2013-02-23 18:03:00,
2013-02-23 12:04:00,48.3,35.9,29.86,NE,45,2.4,7.8,62,0.00,,,0.00,WUHU216HW,2013-02-23 18:04:00,
2013-02-23 12:05:00,48.3,35.9,29.86,NE,45,2.4,7.8,62,0.00,,,0.00,WUHU216HW,2013-02-23 18:05:00,
2013-02-23 12:06:00,48.2,35.8,29.86,North,0,4.6,7.8,62,0.00,,,0.00,WUHU216HW,2013-02-23 18:06:00,
2013-02-23 12:07:00,48.2,35.8,29.86,North,0,4.6,7.8,62,0.00,,,0.00,WUHU216HW,2013-02-23 18:07:00,
2013-02-23 12:08:00,48.2,35.8,29.86,North,0,4.6,7.8,62,0.00,,,0.00,WUHU216HW,2013-02-23 18:08:00,
2013-02-23 12:09:00,48.3,36.7,29.86,NNW,338,7.1,7.8,64,0.00,,,0.00,WUHU216HW,2013-02-23 18:09:00,
2013-02-23 12:10:00,48.3,36.7,29.86,NNW,338,7.1,7.8,64,0.00,,,0.00,WUHU216HW,2013-02-23 18:10:00,
2013-02-23 12:11:00,48.7,37.0,29.85,North,0,5.1,7.1,64,0.00,,,0.00,WUHU216HW,2013-02-23 18:11:00,
2013-02-23 12:12:00,48.7,37.0,29.85,North,0,5.1,7.1,64,0.00,,,0.00,WUHU216HW,2013-02-23 18:12:00,
2013-02-23 12:13:00,48.3,35.9,29.85,NE,45,2.0,7.1,62,0.00,,,0.00,WUHU216HW,2013-02-23 18:13:00,
2013-02-23 12:14:00,48.3,35.9,29.85,NE,45,2.0,7.1,62,0.00,,,0.00,WUHU216HW,2013-02-23 18:14:00,
2013-02-23 12:15:00,48.3,36.3,29.85,NNE,23,4.4,7.1,63,0.00,,,0.00,WUHU216HW,2013-02-23 18:15:00,
2013-02-23 12:16:00,48.3,36.3,29.85,NNE,23,4.4,7.1,63,0.00,,,0.00,WUHU216HW,2013-02-23 18:16:00,
2013-02-23 12:17:00,48.3,35.9,29.85,North,0,0.0,7.1,62,0.00,,,0.00,WUHU216HW,2013-02-23 18:17:00,
2013-02-23 12:18:00,48.3,35.9,29.85,North,0,0.0,7.1,62,0.00,,,0.00,WUHU216HW,2013-02-23 18:18:00,
2013-02-23 12:19:00,48.3,36.3,29.85,North,0,8.0,8.0,63,0.00,,,0.00,WUHU216HW,2013-02-23 18:19:00,
2013-02-23 12:20:00,48.3,36.3,29.85,North,0,8.0,8.0,63,0.00,,,0.00,WUHU216HW,2013-02-23 18:20:00,
2013-02-23 12:21:00,48.3,35.8,29.85,NNE,23,4.2,8.0,62,0.00,,,0.00,WUHU216HW,2013-02-23 18:21:00,
2013-02-23 12:22:00,48.2,35.8,29.85,NNE,23,4.2,8.0,62,0.00,,,0.00,WUHU216HW,2013-02-23 18:22:00,
2013-02-23 12:23:00,48.2,36.3,29.85,NNE,23,4.4,8.0,63,0.00,,,0.00,WUHU216HW,2013-02-23 18:23:00,
2013-02-23 12:24:00,48.3,36.3,29.85,NNE,23,4.4,8.0,63,0.00,,,0.00,WUHU216HW,2013-02-23 18:24:00,
2013-02-23 12:25:00,48.3,36.3,29.85,NNE,23,4.4,8.0,63,0.00,,,0.00,WUHU216HW,2013-02-23 18:25:00,
2013-02-23 12:26:00,48.3,35.9,29.85,NNE,23,2.2,8.0,62,0.00,,,0.00,WUHU216HW,2013-02-23 18:26:00,
2013-02-23 12:27:00,48.3,35.9,29.85,NNE,23,2.2,8.0,62,0.00,,,0.00,WUHU216HW,2013-02-23 18:27:00,
2013-02-23 12:28:00,48.2,36.1,29.85,NNE,23,3.8,8.0,63,0.00,,,0.00,WUHU216HW,2013-02-23 18:28:00,
2013-02-23 12:29:00,48.2,36.1,29.85,NNE,23,3.8,8.0,63,0.00,,,0.00,WUHU216HW,2013-02-23 18:29:00,
2013-02-23 12:30:00,48.2,36.1,29.85,ENE,68,4.4,4.4,63,0.00,,,0.00,WUHU216HW,2013-02-23 18:30:00,
2013-02-23 12:31:00,48.2,36.1,29.84,ENE,68,4.4,4.4,63,0.00,,,0.00,WUHU216HW,2013-02-23 18:31:00,
2013-02-23 12:32:00,48.3,36.3,29.84,NE,45,3.1,4.4,63,0.00,,,0.00,WUHU216HW,2013-02-23 18:32:00,
2013-02-23 12:33:00,48.3,36.3,29.84,NE,45,3.1,4.4,63,0.00,,,0.00,WUHU216HW,2013-02-23 18:33:00,
2013-02-23 12:34:00,48.3,36.3,29.84,NNE,23,0.0,4.4,63,0.00,,,0.00,WUHU216HW,2013-02-23 18:34:00,
2013-02-23 12:35:00,48.3,36.3,29.84,NNE,23,0.0,4.4,63,0.00,,,0.00,WUHU216HW,2013-02-23 18:35:00,
2013-02-23 12:36:00,48.3,36.1,29.84,North,0,2.0,4.4,62,0.00,,,0.00,WUHU216HW,2013-02-23 18:36:00,
2013-02-23 12:37:00,48.5,36.1,29.84,North,0,2.0,4.4,62,0.00,,,0.00,WUHU216HW,2013-02-23 18:37:00,
2013-02-23 12:38:00,48.5,36.1,29.84,North,0,2.0,4.4,62,0.00,,,0.00,WUHU216HW,2013-02-23 18:38:00,
2013-02-23 12:39:00,48.5,36.1,29.84,NE,45,0.0,4.4,62,0.00,,,0.00,WUHU216HW,2013-02-23 18:39:00,
2013-02-23 12:40:00,48.5,36.1,29.84,NE,45,0.0,4.4,62,0.00,,,0.00,WUHU216HW,2013-02-23 18:40:00,
2013-02-23 12:41:00,48.7,36.3,29.84,North,0,0.0,3.1,62,0.00,,,0.00,WUHU216HW,2013-02-23 18:41:00,
2013-02-23 12:42:00,48.7,36.3,29.84,North,0,0.0,3.1,62,0.00,,,0.00,WUHU216HW,2013-02-23 18:42:00,
2013-02-23 12:43:00,48.7,36.3,29.84,NNE,23,0.0,2.0,62,0.00,,,0.00,WUHU216HW,2013-02-23 18:43:00,
2013-02-23 12:44:00,48.7,36.3,29.84,NNE,23,0.0,2.0,62,0.00,,,0.00,WUHU216HW,2013-02-23 18:44:00,
2013-02-23 12:45:00,48.7,35.9,29.84,NW,315,2.4,2.4,61,0.00,,,0.00,WUHU216HW,2013-02-23 18:45:00,
2013-02-23 12:46:00,48.7,35.9,29.84,NW,315,2.4,2.4,61,0.00,,,0.00,WUHU216HW,2013-02-23 18:46:00,
2013-02-23 12:47:00,48.7,36.3,29.84,North,0,1.3,2.4,62,0.00,,,0.00,WUHU216HW,2013-02-23 18:47:00,
2013-02-23 12:48:00,48.7,36.3,29.84,North,0,1.3,2.4,62,0.00,,,0.00,WUHU216HW,2013-02-23 18:48:00,
2013-02-23 12:49:00,48.9,35.7,29.84,NE,45,0.0,2.4,60,0.00,,,0.00,WUHU216HW,2013-02-23 18:49:00,
2013-02-23 12:50:00,48.9,35.7,29.84,NE,45,0.0,2.4,60,0.00,,,0.00,WUHU216HW,2013-02-23 18:50:00,
2013-02-23 12:51:00,48.9,35.7,29.84,NW,315,1.1,2.4,60,0.00,,,0.00,WUHU216HW,2013-02-23 18:51:00,
2013-02-23 12:52:00,48.9,36.0,29.83,NW,315,1.1,2.4,61,0.00,,,0.00,WUHU216HW,2013-02-23 18:52:00,
2013-02-23 12:53:00,49.2,36.0,29.84,West,270,2.4,2.4,61,0.00,,,0.00,WUHU216HW,2013-02-23 18:53:00,
2013-02-23 12:54:00,49.2,36.0,29.84,West,270,2.4,2.4,60,0.00,,,0.00,WUHU216HW,2013-02-23 18:54:00,
2013-02-23 12:55:00,49.2,36.0,29.84,West,270,2.4,2.4,60,0.00,,,0.00,WUHU216HW,2013-02-23 18:55:00,
2013-02-23 12:56:00,49.2,35.5,29.83,NW,315,3.5,3.5,59,0.00,,,0.00,WUHU216HW,2013-02-23 18:56:00,
2013-02-23 12:57:00,49.2,35.5,29.83,NW,315,3.5,3.5,59,0.00,,,0.00,WUHU216HW,2013-02-23 18:57:00,
2013-02-23 12:58:00,48.9,35.2,29.84,NW,315,2.4,3.5,59,0.00,,,0.00,WUHU216HW,2013-02-23 18:58:00,
2013-02-23 12:59:00,48.9,35.2,29.84,NW,315,2.4,3.5,59,0.00,,,0.00,WUHU216HW,2013-02-23 18:59:00,
2013-02-23 13:00:00,48.9,35.2,29.84,NW,315,2.0,3.5,59,0.00,,,0.00,WUHU216HW,2013-02-23 19:00:00,
2013-02-23 13:01:00,48.9,35.2,29.84,NW,315,2.0,3.5,59,0.00,,,0.00,WUHU216HW,2013-02-23 19:01:00,
2013-02-23 13:02:00,48.9,35.2,29.83,North,0,2.2,3.5,59,0.00,,,0.00,WUHU216HW,2013-02-23 19:02:00,
2013-02-23 13:03:00,48.9,35.2,29.84,North,0,2.2,3.5,59,0.00,,,0.00,WUHU216HW,2013-02-23 19:03:00,
2013-02-23 13:04:00,49.1,35.8,29.84,NW,315,0.0,3.5,60,0.00,,,0.00,WUHU216HW,2013-02-23 19:04:00,
2013-02-23 13:05:00,49.1,35.8,29.84,NW,315,0.0,3.5,60,0.00,,,0.00,WUHU216HW,2013-02-23 19:05:00,
2013-02-23 13:06:00,49.2,36.0,29.84,NE,45,2.2,3.5,60,0.00,,,0.00,WUHU216HW,2013-02-23 19:06:00,
2013-02-23 13:07:00,49.2,36.0,29.84,NE,45,2.2,2.4,60,0.00,,,0.00,WUHU216HW,2013-02-23 19:07:00,
2013-02-23 13:08:00,49.6,36.3,29.83,NE,45,2.2,2.4,60,0.00,,,0.00,WUHU216HW,2013-02-23 19:08:00,
2013-02-23 13:09:00,49.6,36.3,29.83,NNE,23,5.1,5.1,60,0.00,,,0.00,WUHU216HW,2013-02-23 19:09:00,
2013-02-23 13:10:00,49.6,36.3,29.83,NNE,23,5.1,5.1,60,0.00,,,0.00,WUHU216HW,2013-02-23 19:10:00,
2013-02-23 13:11:00,49.6,35.8,29.83,NNE,23,3.5,5.1,59,0.00,,,0.00,WUHU216HW,2013-02-23 19:11:00,
2013-02-23 13:12:00,49.6,35.8,29.83,NNE,23,3.5,5.1,59,0.00,,,0.00,WUHU216HW,2013-02-23 19:12:00,
2013-02-23 13:13:00,49.6,35.8,29.83,North,0,1.1,5.1,59,0.00,,,0.00,WUHU216HW,2013-02-23 19:13:00,
2013-02-23 13:14:00,49.6,35.8,29.83,North,0,1.1,5.1,59,0.00,,,0.00,WUHU216HW,2013-02-23 19:14:00,
2013-02-23 13:15:00,49.6,35.8,29.83,ENE,68,0.0,5.1,59,0.00,,,0.00,WUHU216HW,2013-02-23 19:15:00,
2013-02-23 13:16:00,49.6,35.8,29.83,ENE,68,0.0,5.1,59,0.00,,,0.00,WUHU216HW,2013-02-23 19:16:00,
2013-02-23 13:17:00,49.6,35.8,29.83,NNE,23,0.0,5.1,59,0.00,,,0.00,WUHU216HW,2013-02-23 19:17:00,
2013-02-23 13:18:00,49.6,35.8,29.83,NNE,23,0.0,5.1,59,0.00,,,0.00,WUHU216HW,2013-02-23 19:18:00,
2013-02-23 13:19:00,49.6,35.8,29.83,NE,45,0.0,5.1,59,0.00,,,0.00,WUHU216HW,2013-02-23 19:19:00,
2013-02-23 13:20:00,49.6,35.8,29.83,NE,45,0.0,3.5,59,0.00,,,0.00,WUHU216HW,2013-02-23 19:20:00,
2013-02-23 13:21:00,49.8,36.0,29.83,NE,45,3.5,3.5,59,0.00,,,0.00,WUHU216HW,2013-02-23 19:21:00,
2013-02-23 13:22:00,49.8,36.0,29.83,NE,45,3.5,3.5,59,0.00,,,0.00,WUHU216HW,2013-02-23 19:22:00,
2013-02-23 13:23:00,49.8,36.0,29.83,NNW,338,1.5,3.5,59,0.00,,,0.00,WUHU216HW,2013-02-23 19:23:00,
2013-02-23 13:24:00,49.8,36.0,29.83,NNW,338,1.5,3.5,59,0.00,,,0.00,WUHU216HW,2013-02-23 19:24:00,
2013-02-23 13:25:00,49.8,36.0,29.83,NNW,338,1.5,3.5,59,0.00,,,0.00,WUHU216HW,2013-02-23 19:25:00,
2013-02-23 13:26:00,49.8,36.0,29.83,NNE,23,2.4,3.5,59,0.00,,,0.00,WUHU216HW,2013-02-23 19:26:00,
2013-02-23 13:27:00,49.8,36.0,29.82,NNE,23,2.4,3.5,59,0.00,,,0.00,WUHU216HW,2013-02-23 19:27:00,
2013-02-23 13:28:00,49.8,35.6,29.82,North,0,6.7,6.7,58,0.00,,,0.00,WUHU216HW,2013-02-23 19:28:00,
2013-02-23 13:29:00,49.8,35.6,29.82,North,0,6.7,6.7,58,0.00,,,0.00,WUHU216HW,2013-02-23 19:29:00,
2013-02-23 13:30:00,50.1,35.9,29.83,North,0,2.9,6.7,58,0.00,,,0.00,WUHU216HW,2013-02-23 19:30:00,
2013-02-23 13:31:00,50.1,35.9,29.82,North,0,2.9,6.7,58,0.00,,,0.00,WUHU216HW,2013-02-23 19:31:00,
2013-02-23 13:32:00,50.1,35.4,29.82,East,90,0.0,6.7,57,0.00,,,0.00,WUHU216HW,2013-02-23 19:32:00,
2013-02-23 13:33:00,50.1,35.4,29.82,East,90,0.0,6.7,57,0.00,,,0.00,WUHU216HW,2013-02-23 19:33:00,
2013-02-23 13:34:00,50.1,35.9,29.82,North,0,0.0,6.7,58,0.00,,,0.00,WUHU216HW,2013-02-23 19:34:00,
2013-02-23 13:35:00,50.1,35.9,29.82,North,0,0.0,6.7,58,0.00,,,0.00,WUHU216HW,2013-02-23 19:35:00,
2013-02-23 13:36:00,50.5,35.9,29.82,North,0,2.2,6.7,59,0.00,,,0.00,WUHU216HW,2013-02-23 19:36:00,
2013-02-23 13:37:00,50.5,36.7,29.82,North,0,2.2,6.7,59,0.00,,,0.00,WUHU216HW,2013-02-23 19:37:00,
2013-02-23 13:38:00,50.5,36.7,29.82,North,0,1.5,6.7,58,0.00,,,0.00,WUHU216HW,2013-02-23 19:38:00,
2013-02-23 13:39:00,50.7,36.4,29.82,North,0,1.5,2.9,58,0.00,,,0.00,WUHU216HW,2013-02-23 19:39:00,
2013-02-23 13:40:00,50.7,36.4,29.82,North,0,1.5,2.9,58,0.00,,,0.00,WUHU216HW,2013-02-23 19:40:00,
2013-02-23 13:41:00,50.5,35.8,29.82,NE,45,2.0,2.2,57,0.00,,,0.00,WUHU216HW,2013-02-23 19:41:00,
2013-02-23 13:42:00,50.5,35.8,29.82,NE,45,2.0,2.2,57,0.00,,,0.00,WUHU216HW,2013-02-23 19:42:00,
2013-02-23 13:43:00,50.7,35.9,29.82,ENE,68,0.0,2.2,57,0.00,,,0.00,WUHU216HW,2013-02-23 19:43:00,
2013-02-23 13:44:00,50.7,35.9,29.83,ENE,68,0.0,2.2,57,0.00,,,0.00,WUHU216HW,2013-02-23 19:44:00,
2013-02-23 13:45:00,50.7,35.9,29.83,NE,45,2.4,2.4,57,0.00,,,0.00,WUHU216HW,2013-02-23 19:45:00,
2013-02-23 13:46:00,50.7,35.9,29.83,NE,45,2.4,2.4,57,0.00,,,0.00,WUHU216HW,2013-02-23 19:46:00,
2013-02-23 13:47:00,50.7,35.9,29.82,NE,45,1.3,2.4,57,0.00,,,0.00,WUHU216HW,2013-02-23 19:47:00,
2013-02-23 13:48:00,50.7,35.9,29.82,NE,45,1.3,2.4,57,0.00,,,0.00,WUHU216HW,2013-02-23 19:48:00,
2013-02-23 13:49:00,50.5,35.8,29.82,NE,45,0.0,2.4,57,0.00,,,0.00,WUHU216HW,2013-02-23 19:49:00,
2013-02-23 13:50:00,50.5,35.8,29.82,NE,45,0.0,2.4,57,0.00,,,0.00,WUHU216HW,2013-02-23 19:50:00,
2013-02-23 13:51:00,50.5,35.8,29.82,North,0,0.0,2.4,57,0.00,,,0.00,WUHU216HW,2013-02-23 19:51:00,
2013-02-23 13:52:00,50.5,35.8,29.82,North,0,0.0,2.4,57,0.00,,,0.00,WUHU216HW,2013-02-23 19:52:00,
2013-02-23 13:53:00,50.3,35.2,29.82,North,0,0.0,2.4,56,0.00,,,0.00,WUHU216HW,2013-02-23 19:53:00,
2013-02-23 13:54:00,50.3,35.2,29.82,North,0,0.0,2.4,56,0.00,,,0.00,WUHU216HW,2013-02-23 19:54:00,
2013-02-23 13:55:00,50.3,35.2,29.82,North,0,0.0,2.4,56,0.00,,,0.00,WUHU216HW,2013-02-23 19:55:00,
2013-02-23 13:56:00,50.5,35.8,29.83,NNE,23,0.0,1.3,57,0.00,,,0.00,WUHU216HW,2013-02-23 19:56:00,
2013-02-23 13:57:00,50.5,35.8,29.83,NNE,23,0.0,1.3,57,0.00,,,0.00,WUHU216HW,2013-02-23 19:57:00,
2013-02-23 13:58:00,50.5,35.8,29.83,NNW,338,1.5,1.5,57,0.00,,,0.00,WUHU216HW,2013-02-23 19:58:00,
2013-02-23 13:59:00,50.5,35.8,29.83,NNW,338,1.5,1.5,57,0.00,,,0.00,WUHU216HW,2013-02-23 19:59:00,
2013-02-23 14:00:00,50.5,35.3,29.83,NNE,23,2.9,2.9,56,0.00,,,0.00,WUHU216HW,2013-02-23 20:00:00,
2013-02-23 14:01:00,50.5,35.3,29.83,NNE,23,2.9,2.9,56,0.00,,,0.00,WUHU216HW,2013-02-23 20:01:00,
2013-02-23 14:02:00,50.5,35.8,29.83,North,0,0.0,2.9,57,0.00,,,0.00,WUHU216HW,2013-02-23 20:02:00,
2013-02-23 14:03:00,50.5,35.8,29.83,North,0,0.0,2.9,57,0.00,,,0.00,WUHU216HW,2013-02-23 20:03:00,
2013-02-23 14:04:00,50.7,35.5,29.83,North,0,4.0,4.0,56,0.00,,,0.00,WUHU216HW,2013-02-23 20:04:00,
2013-02-23 14:05:00,50.7,35.5,29.83,North,0,4.0,4.0,56,0.00,,,0.00,WUHU216HW,2013-02-23 20:05:00,
2013-02-23 14:06:00,50.7,35.5,29.82,NNW,338,0.0,4.0,56,0.00,,,0.00,WUHU216HW,2013-02-23 20:06:00,
2013-02-23 14:07:00,50.7,35.5,29.82,NNW,338,0.0,4.0,56,0.00,,,0.00,WUHU216HW,2013-02-23 20:07:00,
2013-02-23 14:08:00,50.5,35.3,29.82,North,0,0.0,4.0,56,0.00,,,0.00,WUHU216HW,2013-02-23 20:08:00,
2013-02-23 14:09:00,50.5,35.3,29.82,North,0,0.0,4.0,56,0.00,,,0.00,WUHU216HW,2013-02-23 20:09:00,
2013-02-23 14:10:00,50.5,35.3,29.82,North,0,0.0,4.0,56,0.00,,,0.00,WUHU216HW,2013-02-23 20:10:00,
2013-02-23 14:11:00,50.7,35.9,29.82,NE,45,0.0,4.0,57,0.00,,,0.00,WUHU216HW,2013-02-23 20:11:00,
2013-02-23 14:12:00,50.7,35.9,29.82,NE,45,0.0,4.0,57,0.00,,,0.00,WUHU216HW,2013-02-23 20:12:00,
2013-02-23 14:13:00,50.7,35.9,29.82,North,0,0.0,4.0,57,0.00,,,0.00,WUHU216HW,2013-02-23 20:13:00,
2013-02-23 14:14:00,50.7,35.9,29.82,North,0,0.0,4.0,57,0.00,,,0.00,WUHU216HW,2013-02-23 20:14:00,
2013-02-23 14:15:00,50.7,35.5,29.82,NW,315,0.0,0.0,56,0.00,,,0.00,WUHU216HW,2013-02-23 20:15:00,
2013-02-23 14:16:00,50.7,35.5,29.82,NW,315,0.0,0.0,56,0.00,,,0.00,WUHU216HW,2013-02-23 20:16:00,
2013-02-23 14:17:00,50.7,35.9,29.82,NE,45,0.0,0.0,57,0.00,,,0.00,WUHU216HW,2013-02-23 20:17:00,
2013-02-23 14:18:00,50.7,35.9,29.82,NE,45,0.0,0.0,57,0.00,,,0.00,WUHU216HW,2013-02-23 20:18:00,
2013-02-23 14:19:00,50.7,35.0,29.82,North,0,3.1,3.1,55,0.00,,,0.00,WUHU216HW,2013-02-23 20:19:00,
2013-02-23 14:20:00,50.7,35.0,29.82,North,0,3.1,3.1,55,0.00,,,0.00,WUHU216HW,2013-02-23 20:20:00,
2013-02-23 14:21:00,50.5,35.3,29.82,North,0,3.3,3.3,56,0.00,,,0.00,WUHU216HW,2013-02-23 20:21:00,
2013-02-23 14:22:00,50.5,35.3,29.82,North,0,3.3,3.3,56,0.00,,,0.00,WUHU216HW,2013-02-23 20:22:00,
2013-02-23 14:23:00,50.5,34.9,29.82,NNE,23,0.0,3.3,56,0.00,,,0.00,WUHU216HW,2013-02-23 20:23:00,
2013-02-23 14:24:00,50.5,34.9,29.82,NNE,23,0.0,3.3,55,0.00,,,0.00,WUHU216HW,2013-02-23 20:24:00,
2013-02-23 14:25:00,50.5,34.9,29.82,NNE,23,0.0,3.3,55,0.00,,,0.00,WUHU216HW,2013-02-23 20:25:00,
2013-02-23 14:26:00,50.5,35.3,29.82,North,0,0.0,3.3,56,0.00,,,0.00,WUHU216HW,2013-02-23 20:26:00,
2013-02-23 14:27:00,50.5,35.3,29.82,North,0,0.0,3.3,56,0.00,,,0.00,WUHU216HW,2013-02-23 20:27:00,
2013-02-23 14:28:00,50.5,34.9,29.82,North,0,0.0,3.3,55,0.00,,,0.00,WUHU216HW,2013-02-23 20:28:00,
2013-02-23 14:29:00,50.5,34.9,29.82,North,0,0.0,3.3,55,0.00,,,0.00,WUHU216HW,2013-02-23 20:29:00,
2013-02-23 14:30:00,50.7,35.5,29.82,North,0,0.0,3.3,56,0.00,,,0.00,WUHU216HW,2013-02-23 20:30:00,
2013-02-23 14:31:00,50.7,35.5,29.82,North,0,0.0,3.3,56,0.00,,,0.00,WUHU216HW,2013-02-23 20:31:00,
2013-02-23 14:32:00,50.9,35.6,29.82,NNE,23,2.6,2.6,56,0.00,,,0.00,WUHU216HW,2013-02-23 20:32:00,
2013-02-23 14:33:00,50.9,35.6,29.82,NNE,23,2.6,2.6,56,0.00,,,0.00,WUHU216HW,2013-02-23 20:33:00,
2013-02-23 14:34:00,50.7,35.5,29.82,NE,45,0.0,2.6,56,0.00,,,0.00,WUHU216HW,2013-02-23 20:34:00,
2013-02-23 14:35:00,50.7,35.5,29.82,NE,45,0.0,2.6,56,0.00,,,0.00,WUHU216HW,2013-02-23 20:35:00,
2013-02-23 14:36:00,50.9,35.2,29.82,NNE,23,0.0,2.6,55,0.00,,,0.00,WUHU216HW,2013-02-23 20:36:00,
2013-02-23 14:37:00,50.9,35.2,29.82,NNE,23,0.0,2.6,55,0.00,,,0.00,WUHU216HW,2013-02-23 20:37:00,
2013-02-23 14:38:00,50.9,35.8,29.82,NNE,23,0.0,2.6,55,0.00,,,0.00,WUHU216HW,2013-02-23 20:38:00,
2013-02-23 14:39:00,51.0,35.8,29.82,NNE,23,0.0,2.6,56,0.00,,,0.00,WUHU216HW,2013-02-23 20:39:00,
2013-02-23 14:40:00,51.0,35.8,29.82,NNE,23,0.0,2.6,56,0.00,,,0.00,WUHU216HW,2013-02-23 20:40:00,
2013-02-23 14:41:00,51.0,35.4,29.82,NE,45,0.0,2.6,55,0.00,,,0.00,WUHU216HW,2013-02-23 20:41:00,
2013-02-23 14:42:00,51.0,35.4,29.82,NE,45,0.0,2.6,55,0.00,,,0.00,WUHU216HW,2013-02-23 20:42:00,
2013-02-23 14:43:00,51.0,35.4,29.82,ENE,68,0.0,0.0,55,0.00,,,0.00,WUHU216HW,2013-02-23 20:43:00,
2013-02-23 14:44:00,51.0,35.4,29.82,ENE,68,0.0,0.0,55,0.00,,,0.00,WUHU216HW,2013-02-23 20:44:00,
2013-02-23 14:45:00,51.0,35.4,29.82,SSE,158,0.0,0.0,55,0.00,,,0.00,WUHU216HW,2013-02-23 20:45:00,
2013-02-23 14:46:00,51.0,35.4,29.82,SSE,158,0.0,0.0,55,0.00,,,0.00,WUHU216HW,2013-02-23 20:46:00,
2013-02-23 14:47:00,51.2,35.5,29.82,South,180,2.0,2.0,55,0.00,,,0.00,WUHU216HW,2013-02-23 20:47:00,
2013-02-23 14:48:00,51.2,35.5,29.82,South,180,2.0,2.0,55,0.00,,,0.00,WUHU216HW,2013-02-23 20:48:00,
2013-02-23 14:49:00,51.4,35.7,29.82,South,180,0.0,2.0,55,0.00,,,0.00,WUHU216HW,2013-02-23 20:49:00,
2013-02-23 14:50:00,51.4,35.7,29.82,South,180,0.0,2.0,55,0.00,,,0.00,WUHU216HW,2013-02-23 20:50:00,
2013-02-23 14:51:00,51.4,35.7,29.82,NW,315,1.5,2.0,55,0.00,,,0.00,WUHU216HW,2013-02-23 20:51:00,
2013-02-23 14:52:00,51.4,35.7,29.82,NW,315,1.5,2.0,55,0.00,,,0.00,WUHU216HW,2013-02-23 20:52:00,
2013-02-23 14:53:00,51.4,35.7,29.82,West,270,0.0,2.0,55,0.00,,,0.00,WUHU216HW,2013-02-23 20:53:00,
2013-02-23 14:54:00,51.4,35.7,29.82,West,270,0.0,2.0,55,0.00,,,0.00,WUHU216HW,2013-02-23 20:54:00,
2013-02-23 14:55:00,51.4,35.7,29.82,West,270,0.0,2.0,55,0.00,,,0.00,WUHU216HW,2013-02-23 20:55:00,
2013-02-23 14:56:00,51.4,35.7,29.82,SSW,203,0.0,2.0,55,0.00,,,0.00,WUHU216HW,2013-02-23 20:56:00,
2013-02-23 14:57:00,51.4,35.7,29.82,SSW,203,0.0,2.0,55,0.00,,,0.00,WUHU216HW,2013-02-23 20:57:00,
2013-02-23 14:58:00,51.6,35.8,29.82,WSW,248,0.0,1.5,55,0.00,,,0.00,WUHU216HW,2013-02-23 20:58:00,
2013-02-23 14:59:00,51.6,35.8,29.82,WSW,248,0.0,1.5,55,0.00,,,0.00,WUHU216HW,2013-02-23 20:59:00,
2013-02-23 15:00:00,51.6,35.8,29.82,NNW,338,2.0,2.0,55,0.00,,,0.00,WUHU216HW,2013-02-23 21:00:00,
2013-02-23 15:01:00,51.6,35.8,29.82,NNW,338,2.0,2.0,55,0.00,,,0.00,WUHU216HW,2013-02-23 21:01:00,
2013-02-23 15:02:00,51.4,35.7,29.82,SW,225,0.0,2.0,55,0.00,,,0.00,WUHU216HW,2013-02-23 21:02:00,
2013-02-23 15:03:00,51.4,35.7,29.82,SW,225,0.0,2.0,55,0.00,,,0.00,WUHU216HW,2013-02-23 21:03:00,
2013-02-23 15:04:00,51.6,35.8,29.82,South,180,1.5,2.0,55,0.00,,,0.00,WUHU216HW,2013-02-23 21:04:00,
2013-02-23 15:05:00,51.6,35.8,29.82,South,180,1.5,2.0,55,0.00,,,0.00,WUHU216HW,2013-02-23 21:05:00,
2013-02-23 15:06:00,51.6,35.8,29.82,SE,135,0.0,2.0,55,0.00,,,0.00,WUHU216HW,2013-02-23 21:06:00,
2013-02-23 15:07:00,51.6,35.8,29.82,SE,135,0.0,2.0,55,0.00,,,0.00,WUHU216HW,2013-02-23 21:07:00,
2013-02-23 15:08:00,51.6,35.8,29.82,SSW,203,2.0,2.0,55,0.00,,,0.00,WUHU216HW,2013-02-23 21:08:00,
2013-02-23 15:09:00,51.8,36.0,29.82,SSW,203,2.0,2.0,55,0.00,,,0.00,WUHU216HW,2013-02-23 21:09:00,
2013-02-23 15:10:00,51.8,36.0,29.82,SSW,203,2.0,2.0,55,0.00,,,0.00,WUHU216HW,2013-02-23 21:10:00,
2013-02-23 15:11:00,51.9,36.2,29.82,WSW,248,0.0,2.0,55,0.00,,,0.00,WUHU216HW,2013-02-23 21:11:00,
2013-02-23 15:12:00,51.9,36.2,29.82,WSW,248,0.0,2.0,55,0.00,,,0.00,WUHU216HW,2013-02-23 21:12:00,
2013-02-23 15:13:00,51.9,35.7,29.82,NW,315,2.9,2.9,54,0.00,,,0.00,WUHU216HW,2013-02-23 21:13:00,
2013-02-23 15:14:00,51.9,35.7,29.82,NW,315,2.9,2.9,54,0.00,,,0.00,WUHU216HW,2013-02-23 21:14:00,
2013-02-23 15:15:00,51.9,35.3,29.82,WNW,293,0.0,2.9,53,0.00,,,0.00,WUHU216HW,2013-02-23 21:15:00,
2013-02-23 15:16:00,51.9,35.3,29.82,WNW,293,0.0,2.9,53,0.00,,,0.00,WUHU216HW,2013-02-23 21:16:00,
2013-02-23 15:17:00,52.3,35.6,29.81,North,0,0.0,2.9,53,0.00,,,0.00,WUHU216HW,2013-02-23 21:17:00,
2013-02-23 15:18:00,52.3,35.6,29.81,North,0,0.0,2.9,53,0.00,,,0.00,WUHU216HW,2013-02-23 21:18:00,
2013-02-23 15:19:00,52.5,36.2,29.82,North,0,0.0,2.9,54,0.00,,,0.00,WUHU216HW,2013-02-23 21:19:00,
2013-02-23 15:20:00,52.5,36.2,29.82,North,0,0.0,2.9,54,0.00,,,0.00,WUHU216HW,2013-02-23 21:20:00,
2013-02-23 15:21:00,52.5,36.2,29.82,NW,315,0.0,2.9,54,0.00,,,0.00,WUHU216HW,2013-02-23 21:21:00,
2013-02-23 15:22:00,52.5,36.2,29.82,NW,315,0.0,2.9,54,0.00,,,0.00,WUHU216HW,2013-02-23 21:22:00,
2013-02-23 15:23:00,52.5,36.2,29.81,West,270,0.0,2.9,54,0.00,,,0.00,WUHU216HW,2013-02-23 21:23:00,
2013-02-23 15:24:00,52.5,36.2,29.82,West,270,0.0,0.0,54,0.00,,,0.00,WUHU216HW,2013-02-23 21:24:00,
2013-02-23 15:25:00,52.5,36.2,29.81,West,270,0.0,0.0,54,0.00,,,0.00,WUHU216HW,2013-02-23 21:25:00,
2013-02-23 15:26:00,52.7,35.9,29.81,West,270,0.0,0.0,53,0.00,,,0.00,WUHU216HW,2013-02-23 21:26:00,
2013-02-23 15:27:00,52.7,35.9,29.81,West,270,0.0,0.0,53,0.00,,,0.00,WUHU216HW,2013-02-23 21:27:00,
2013-02-23 15:28:00,52.8,36.1,29.81,West,270,0.0,0.0,53,0.00,,,0.00,WUHU216HW,2013-02-23 21:28:00,
2013-02-23 15:29:00,52.8,36.1,29.81,West,270,0.0,0.0,53,0.00,,,0.00,WUHU216HW,2013-02-23 21:29:00,
2013-02-23 15:30:00,52.8,35.6,29.82,North,0,0.0,0.0,52,0.00,,,0.00,WUHU216HW,2013-02-23 21:30:00,
2013-02-23 15:31:00,52.8,35.6,29.81,North,0,0.0,0.0,52,0.00,,,0.00,WUHU216HW,2013-02-23 21:31:00,
2013-02-23 15:32:00,52.8,35.2,29.82,NW,315,0.0,0.0,51,0.00,,,0.00,WUHU216HW,2013-02-23 21:32:00,
2013-02-23 15:33:00,52.8,35.2,29.82,NW,315,0.0,0.0,51,0.00,,,0.00,WUHU216HW,2013-02-23 21:33:00,
2013-02-23 15:34:00,52.8,35.2,29.82,West,270,0.0,0.0,51,0.00,,,0.00,WUHU216HW,2013-02-23 21:34:00,
2013-02-23 15:35:00,52.8,35.2,29.82,West,270,0.0,0.0,51,0.00,,,0.00,WUHU216HW,2013-02-23 21:35:00,
2013-02-23 15:36:00,52.8,35.2,29.81,West,270,0.0,0.0,51,0.00,,,0.00,WUHU216HW,2013-02-23 21:36:00,
2013-02-23 15:37:00,52.8,35.2,29.81,West,270,0.0,0.0,51,0.00,,,0.00,WUHU216HW,2013-02-23 21:37:00,
2013-02-23 15:38:00,52.8,35.2,29.81,NNW,338,0.0,0.0,51,0.00,,,0.00,WUHU216HW,2013-02-23 21:38:00,
2013-02-23 15:39:00,52.8,35.2,29.81,NNW,338,0.0,0.0,51,0.00,,,0.00,WUHU216HW,2013-02-23 21:39:00,
2013-02-23 15:40:00,52.8,35.2,29.81,West,270,2.6,2.6,51,0.00,,,0.00,WUHU216HW,2013-02-23 21:40:00,
2013-02-23 15:41:00,52.7,35.0,29.81,West,270,2.6,2.6,51,0.00,,,0.00,WUHU216HW,2013-02-23 21:41:00,
2013-02-23 15:42:00,52.7,35.0,29.81,West,270,2.6,2.6,51,0.00,,,0.00,WUHU216HW,2013-02-23 21:42:00,
2013-02-23 15:43:00,52.5,34.8,29.81,NW,315,1.1,2.6,51,0.00,,,0.00,WUHU216HW,2013-02-23 21:43:00,
2013-02-23 15:44:00,52.5,34.8,29.81,NW,315,1.1,2.6,51,0.00,,,0.00,WUHU216HW,2013-02-23 21:44:00,
2013-02-23 15:45:00,52.3,34.7,29.81,NNW,338,2.9,2.9,51,0.00,,,0.00,WUHU216HW,2013-02-23 21:45:00,
2013-02-23 15:46:00,52.3,34.7,29.81,NNW,338,2.9,2.9,51,0.00,,,0.00,WUHU216HW,2013-02-23 21:46:00,
2013-02-23 15:47:00,52.3,34.7,29.81,NW,315,1.5,2.9,51,0.00,,,0.00,WUHU216HW,2013-02-23 21:47:00,
2013-02-23 15:48:00,52.3,34.7,29.81,NW,315,1.5,2.9,51,0.00,,,0.00,WUHU216HW,2013-02-23 21:48:00,
2013-02-23 15:49:00,51.9,34.4,29.81,NW,315,0.0,2.9,51,0.00,,,0.00,WUHU216HW,2013-02-23 21:49:00,
2013-02-23 15:50:00,51.9,34.4,29.81,NW,315,0.0,2.9,51,0.00,,,0.00,WUHU216HW,2013-02-23 21:50:00,
2013-02-23 15:51:00,51.9,34.4,29.81,North,0,0.0,2.9,51,0.00,,,0.00,WUHU216HW,2013-02-23 21:51:00,
2013-02-23 15:52:00,51.9,34.4,29.80,North,0,0.0,2.9,51,0.00,,,0.00,WUHU216HW,2013-02-23 21:52:00,
2013-02-23 15:53:00,51.9,34.4,29.80,NW,315,0.0,2.9,51,0.00,,,0.00,WUHU216HW,2013-02-23 21:53:00,
2013-02-23 15:54:00,51.9,34.3,29.80,NW,315,0.0,2.9,51,0.00,,,0.00,WUHU216HW,2013-02-23 21:54:00,
2013-02-23 15:55:00,51.9,34.4,29.80,NW,315,0.0,2.9,51,0.00,,,0.00,WUHU216HW,2013-02-23 21:55:00,
2013-02-23 15:56:00,51.9,34.4,29.80,NNW,338,0.0,1.5,51,0.00,,,0.00,WUHU216HW,2013-02-23 21:56:00,
2013-02-23 15:57:00,51.9,34.4,29.80,NNW,338,0.0,1.5,51,0.00,,,0.00,WUHU216HW,2013-02-23 21:57:00,
2013-02-23 15:58:00,52.1,34.5,29.80,NNW,338,2.2,2.2,51,0.00,,,0.00,WUHU216HW,2013-02-23 21:58:00,
2013-02-23 15:59:00,52.1,34.5,29.80,NNW,338,2.2,2.2,51,0.00,,,0.00,WUHU216HW,2013-02-23 21:59:00,
2013-02-23 16:00:00,52.1,34.5,29.80,WNW,293,0.0,2.2,51,0.00,,,0.00,WUHU216HW,2013-02-23 22:00:00,
2013-02-23 16:01:00,52.1,34.5,29.80,WNW,293,0.0,2.2,51,0.00,,,0.00,WUHU216HW,2013-02-23 22:01:00,
2013-02-23 16:02:00,52.1,34.5,29.80,WNW,293,3.5,3.5,51,0.00,,,0.00,WUHU216HW,2013-02-23 22:02:00,
2013-02-23 16:03:00,52.1,34.5,29.81,WNW,293,3.5,3.5,51,0.00,,,0.00,WUHU216HW,2013-02-23 22:03:00,
2013-02-23 16:04:00,52.1,34.5,29.81,North,0,2.9,3.5,51,0.00,,,0.00,WUHU216HW,2013-02-23 22:04:00,
2013-02-23 16:05:00,52.1,34.5,29.81,North,0,2.9,3.5,51,0.00,,,0.00,WUHU216HW,2013-02-23 22:05:00,
2013-02-23 16:06:00,51.9,33.4,29.81,NNE,23,2.9,3.5,49,0.00,,,0.00,WUHU216HW,2013-02-23 22:06:00,
2013-02-23 16:07:00,51.9,33.4,29.81,NNE,23,2.9,3.5,49,0.00,,,0.00,WUHU216HW,2013-02-23 22:07:00,
2013-02-23 16:08:00,51.8,33.8,29.81,North,0,0.0,3.5,49,0.00,,,0.00,WUHU216HW,2013-02-23 22:08:00,
2013-02-23 16:09:00,51.8,33.8,29.81,North,0,0.0,3.5,50,0.00,,,0.00,WUHU216HW,2013-02-23 22:09:00,
2013-02-23 16:10:00,51.8,33.2,29.81,North,0,0.0,3.5,50,0.00,,,0.00,WUHU216HW,2013-02-23 22:10:00,
2013-02-23 16:11:00,51.8,33.2,29.81,NNE,23,6.0,6.0,49,0.00,,,0.00,WUHU216HW,2013-02-23 22:11:00,
2013-02-23 16:12:00,51.8,33.2,29.81,NNE,23,6.0,6.0,49,0.00,,,0.00,WUHU216HW,2013-02-23 22:12:00,
2013-02-23 16:13:00,51.6,33.6,29.81,WNW,293,1.5,6.0,50,0.00,,,0.00,WUHU216HW,2013-02-23 22:13:00,
2013-02-23 16:14:00,51.6,33.6,29.80,WNW,293,1.5,6.0,50,0.00,,,0.00,WUHU216HW,2013-02-23 22:14:00,
2013-02-23 16:15:00,51.9,34.4,29.81,West,270,0.0,6.0,51,0.00,,,0.00,WUHU216HW,2013-02-23 22:15:00,
2013-02-23 16:16:00,51.9,34.4,29.80,West,270,0.0,6.0,51,0.00,,,0.00,WUHU216HW,2013-02-23 22:16:00,
2013-02-23 16:17:00,51.9,34.4,29.80,SW,225,0.0,6.0,51,0.00,,,0.00,WUHU216HW,2013-02-23 22:17:00,
2013-02-23 16:18:00,51.9,34.4,29.80,SW,225,0.0,6.0,51,0.00,,,0.00,WUHU216HW,2013-02-23 22:18:00,
2013-02-23 16:19:00,51.9,34.4,29.80,WSW,248,0.0,6.0,51,0.00,,,0.00,WUHU216HW,2013-02-23 22:19:00,
2013-02-23 16:20:00,51.9,34.4,29.80,WSW,248,0.0,6.0,51,0.00,,,0.00,WUHU216HW,2013-02-23 22:20:00,
2013-02-23 16:21:00,51.9,34.4,29.80,West,270,0.0,6.0,51,0.00,,,0.00,WUHU216HW,2013-02-23 22:21:00,
2013-02-23 16:22:00,51.9,34.4,29.80,West,270,0.0,1.5,51,0.00,,,0.00,WUHU216HW,2013-02-23 22:22:00,
2013-02-23 16:23:00,51.9,34.4,29.80,North,0,0.0,1.5,51,0.00,,,0.00,WUHU216HW,2013-02-23 22:23:00,
2013-02-23 16:24:00,51.9,34.4,29.80,North,0,0.0,0.0,51,0.00,,,0.00,WUHU216HW,2013-02-23 22:24:00,
2013-02-23 16:25:00,51.9,34.4,29.80,NW,315,1.3,1.3,51,0.00,,,0.00,WUHU216HW,2013-02-23 22:25:00,
2013-02-23 16:26:00,51.8,34.2,29.80,NW,315,1.3,1.3,51,0.00,,,0.00,WUHU216HW,2013-02-23 22:26:00,
2013-02-23 16:27:00,51.8,34.2,29.80,NW,315,1.3,1.3,51,0.00,,,0.00,WUHU216HW,2013-02-23 22:27:00,
2013-02-23 16:28:00,51.6,34.0,29.80,NW,315,0.0,1.3,51,0.00,,,0.00,WUHU216HW,2013-02-23 22:28:00,
2013-02-23 16:29:00,51.6,34.0,29.80,NW,315,0.0,1.3,51,0.00,,,0.00,WUHU216HW,2013-02-23 22:29:00,
2013-02-23 16:30:00,51.6,34.0,29.80,NW,315,1.1,1.3,51,0.00,,,0.00,WUHU216HW,2013-02-23 22:30:00,
2013-02-23 16:31:00,51.6,34.0,29.80,NW,315,1.1,1.3,51,0.00,,,0.00,WUHU216HW,2013-02-23 22:31:00,
2013-02-23 16:32:00,51.6,34.0,29.80,NNE,23,1.3,1.3,51,0.00,,,0.00,WUHU216HW,2013-02-23 22:32:00,
2013-02-23 16:33:00,51.6,34.0,29.80,NNE,23,1.3,1.3,51,0.00,,,0.00,WUHU216HW,2013-02-23 22:33:00,
2013-02-23 16:34:00,51.4,33.9,29.80,North,0,0.0,1.3,51,0.00,,,0.00,WUHU216HW,2013-02-23 22:34:00,
2013-02-23 16:35:00,51.4,33.9,29.80,North,0,0.0,1.3,51,0.00,,,0.00,WUHU216HW,2013-02-23 22:35:00,
2013-02-23 16:36:00,51.2,33.7,29.80,NNW,338,0.0,1.3,51,0.00,,,0.00,WUHU216HW,2013-02-23 22:36:00,
2013-02-23 16:37:00,51.2,33.7,29.80,NNW,338,0.0,1.3,51,0.00,,,0.00,WUHU216HW,2013-02-23 22:37:00,
2013-02-23 16:38:00,51.2,33.7,29.80,NNW,338,0.0,1.3,51,0.00,,,0.00,WUHU216HW,2013-02-23 22:38:00,
2013-02-23 16:39:00,51.2,33.7,29.80,NNW,338,0.0,1.3,51,0.00,,,0.00,WUHU216HW,2013-02-23 22:39:00,
2013-02-23 16:40:00,51.0,33.7,29.79,NNW,338,0.0,1.3,51,0.00,,,0.00,WUHU216HW,2013-02-23 22:40:00,
2013-02-23 16:41:00,51.0,33.6,29.80,NNW,338,0.0,1.3,51,0.00,,,0.00,WUHU216HW,2013-02-23 22:41:00,
2013-02-23 16:42:00,51.0,33.6,29.79,NNW,338,0.0,1.3,51,0.00,,,0.00,WUHU216HW,2013-02-23 22:42:00,
2013-02-23 16:43:00,51.0,33.6,29.79,NNE,23,2.2,2.2,51,0.00,,,0.00,WUHU216HW,2013-02-23 22:43:00,
2013-02-23 16:44:00,51.0,33.6,29.79,NNE,23,2.2,2.2,51,0.00,,,0.00,WUHU216HW,2013-02-23 22:44:00,
2013-02-23 16:45:00,50.9,33.8,29.79,NW,315,2.2,2.2,52,0.00,,,0.00,WUHU216HW,2013-02-23 22:45:00,
2013-02-23 16:46:00,50.9,33.8,29.79,NW,315,2.2,2.2,52,0.00,,,0.00,WUHU216HW,2013-02-23 22:46:00,
2013-02-23 16:47:00,50.7,34.1,29.79,WNW,293,0.0,2.2,53,0.00,,,0.00,WUHU216HW,2013-02-23 22:47:00,
2013-02-23 16:48:00,50.7,34.1,29.80,WNW,293,0.0,2.2,53,0.00,,,0.00,WUHU216HW,2013-02-23 22:48:00,
2013-02-23 16:49:00,50.3,33.8,29.80,WNW,293,0.0,2.2,53,0.00,,,0.00,WUHU216HW,2013-02-23 22:49:00,
2013-02-23 16:50:00,50.3,33.8,29.80,WNW,293,0.0,2.2,53,0.00,,,0.00,WUHU216HW,2013-02-23 22:50:00,
2013-02-23 16:51:00,50.1,33.6,29.80,NW,315,1.1,2.2,53,0.00,,,0.00,WUHU216HW,2013-02-23 22:51:00,
2013-02-23 16:52:00,50.1,33.6,29.79,NW,315,1.1,2.2,53,0.00,,,0.00,WUHU216HW,2013-02-23 22:52:00,
2013-02-23 16:53:00,50.1,33.5,29.80,NW,315,0.0,2.2,53,0.00,,,0.00,WUHU216HW,2013-02-23 22:53:00,
2013-02-23 16:54:00,50.0,33.5,29.80,NW,315,0.0,2.2,53,0.00,,,0.00,WUHU216HW,2013-02-23 22:54:00,
2013-02-23 16:55:00,50.0,33.3,29.80,NW,315,0.0,2.2,53,0.00,,,0.00,WUHU216HW,2013-02-23 22:55:00,
2013-02-23 16:56:00,49.8,33.3,29.80,NW,315,3.3,3.3,53,0.00,,,0.00,WUHU216HW,2013-02-23 22:56:00,
2013-02-23 16:57:00,49.8,33.3,29.80,NW,315,3.3,3.3,53,0.00,,,0.00,WUHU216HW,2013-02-23 22:57:00,
2013-02-23 16:58:00,49.6,33.6,29.80,NNW,338,0.0,3.3,54,0.00,,,0.00,WUHU216HW,2013-02-23 22:58:00,
2013-02-23 16:59:00,49.6,33.6,29.79,NNW,338,0.0,3.3,54,0.00,,,0.00,WUHU216HW,2013-02-23 22:59:00,
2013-02-23 17:00:00,49.6,33.6,29.79,WNW,293,0.0,3.3,54,0.00,,,0.00,WUHU216HW,2013-02-23 23:00:00,
2013-02-23 17:01:00,49.6,33.6,29.79,WNW,293,0.0,3.3,54,0.00,,,0.00,WUHU216HW,2013-02-23 23:01:00,
2013-02-23 17:02:00,49.2,33.2,29.79,NW,315,0.0,3.3,54,0.00,,,0.00,WUHU216HW,2013-02-23 23:02:00,
2013-02-23 17:03:00,49.2,33.2,29.79,NW,315,0.0,3.3,54,0.00,,,0.00,WUHU216HW,2013-02-23 23:03:00,
2013-02-23 17:04:00,49.2,33.7,29.79,North,0,0.0,3.3,55,0.00,,,0.00,WUHU216HW,2013-02-23 23:04:00,
2013-02-23 17:05:00,49.2,33.7,29.79,North,0,0.0,3.3,55,0.00,,,0.00,WUHU216HW,2013-02-23 23:05:00,
2013-02-23 17:06:00,49.1,33.5,29.79,NNE,23,0.0,3.3,55,0.00,,,0.00,WUHU216HW,2013-02-23 23:06:00,
2013-02-23 17:07:00,49.1,33.5,29.79,NNE,23,0.0,0.0,55,0.00,,,0.00,WUHU216HW,2013-02-23 23:07:00,
2013-02-23 17:08:00,48.9,33.4,29.79,NNW,338,0.0,0.0,55,0.00,,,0.00,WUHU216HW,2013-02-23 23:08:00,
2013-02-23 17:09:00,48.9,33.4,29.79,NNW,338,0.0,0.0,55,0.00,,,0.00,WUHU216HW,2013-02-23 23:09:00,
2013-02-23 17:10:00,48.9,33.4,29.79,NW,315,1.5,1.5,55,0.00,,,0.00,WUHU216HW,2013-02-23 23:10:00,
2013-02-23 17:11:00,48.7,33.2,29.79,NW,315,1.5,1.5,55,0.00,,,0.00,WUHU216HW,2013-02-23 23:11:00,
2013-02-23 17:12:00,48.7,33.2,29.80,NW,315,1.5,1.5,55,0.00,,,0.00,WUHU216HW,2013-02-23 23:12:00,
2013-02-23 17:13:00,48.7,33.6,29.79,West,270,1.1,1.5,56,0.00,,,0.00,WUHU216HW,2013-02-23 23:13:00,
2013-02-23 17:14:00,48.7,33.6,29.80,West,270,1.1,1.5,56,0.00,,,0.00,WUHU216HW,2013-02-23 23:14:00,
2013-02-23 17:15:00,48.7,33.6,29.80,NW,315,2.0,2.0,56,0.00,,,0.00,WUHU216HW,2013-02-23 23:15:00,
2013-02-23 17:16:00,48.7,33.6,29.80,NW,315,2.0,2.0,56,0.00,,,0.00,WUHU216HW,2013-02-23 23:16:00,
2013-02-23 17:17:00,48.5,33.0,29.80,NW,315,0.0,2.0,55,0.00,,,0.00,WUHU216HW,2013-02-23 23:17:00,
2013-02-23 17:18:00,48.5,33.0,29.80,NW,315,0.0,2.0,55,0.00,,,0.00,WUHU216HW,2013-02-23 23:18:00,
2013-02-23 17:19:00,48.3,33.3,29.80,NNW,338,0.0,2.0,56,0.00,,,0.00,WUHU216HW,2013-02-23 23:19:00,
2013-02-23 17:20:00,48.3,33.3,29.80,NNW,338,0.0,2.0,56,0.00,,,0.00,WUHU216HW,2013-02-23 23:20:00,
2013-02-23 17:21:00,48.3,32.8,29.80,NNW,338,0.0,2.0,55,0.00,,,0.00,WUHU216HW,2013-02-23 23:21:00,
2013-02-23 17:22:00,48.3,32.8,29.80,NNW,338,0.0,2.0,55,0.00,,,0.00,WUHU216HW,2013-02-23 23:22:00,
2013-02-23 17:23:00,48.3,33.1,29.80,NNW,338,0.0,2.0,56,0.00,,,0.00,WUHU216HW,2013-02-23 23:23:00,
2013-02-23 17:24:00,48.2,33.1,29.80,NNW,338,0.0,2.0,56,0.00,,,0.00,WUHU216HW,2013-02-23 23:24:00,
2013-02-23 17:25:00,48.2,33.1,29.80,NNW,338,0.0,2.0,56,0.00,,,0.00,WUHU216HW,2013-02-23 23:25:00,
2013-02-23 17:26:00,48.0,33.0,29.80,NNW,338,0.0,0.0,56,0.00,,,0.00,WUHU216HW,2013-02-23 23:26:00,
2013-02-23 17:27:00,48.0,33.0,29.80,NNW,338,0.0,0.0,56,0.00,,,0.00,WUHU216HW,2013-02-23 23:27:00,
2013-02-23 17:28:00,47.6,33.1,29.80,NNW,338,0.0,0.0,57,0.00,,,0.00,WUHU216HW,2013-02-23 23:28:00,
2013-02-23 17:29:00,47.6,33.1,29.80,NNW,338,0.0,0.0,57,0.00,,,0.00,WUHU216HW,2013-02-23 23:29:00,
2013-02-23 17:30:00,47.4,32.9,29.80,NNW,338,0.0,0.0,57,0.00,,,0.00,WUHU216HW,2013-02-23 23:30:00,
2013-02-23 17:31:00,47.4,32.9,29.81,NNW,338,0.0,0.0,57,0.00,,,0.00,WUHU216HW,2013-02-23 23:31:00,
2013-02-23 17:32:00,47.3,32.7,29.80,NW,315,0.0,0.0,57,0.00,,,0.00,WUHU216HW,2013-02-23 23:32:00,
2013-02-23 17:33:00,47.3,32.7,29.81,NW,315,0.0,0.0,57,0.00,,,0.00,WUHU216HW,2013-02-23 23:33:00,
2013-02-23 17:34:00,47.1,32.5,29.81,West,270,3.3,3.3,57,0.00,,,0.00,WUHU216HW,2013-02-23 23:34:00,
2013-02-23 17:35:00,47.1,32.5,29.81,West,270,3.3,3.3,57,0.00,,,0.00,WUHU216HW,2013-02-23 23:35:00,
2013-02-23 17:36:00,47.1,32.5,29.82,WNW,293,0.0,3.3,57,0.00,,,0.00,WUHU216HW,2013-02-23 23:36:00,
2013-02-23 17:37:00,47.1,32.5,29.81,WNW,293,0.0,3.3,57,0.00,,,0.00,WUHU216HW,2013-02-23 23:37:00,
2013-02-23 17:38:00,47.3,32.7,29.82,WNW,293,0.0,3.3,57,0.00,,,0.00,WUHU216HW,2013-02-23 23:38:00,
2013-02-23 17:39:00,47.3,32.7,29.82,WNW,293,0.0,3.3,57,0.00,,,0.00,WUHU216HW,2013-02-23 23:39:00,
2013-02-23 17:40:00,47.3,32.3,29.82,North,0,3.8,3.8,56,0.00,,,0.00,WUHU216HW,2013-02-23 23:40:00,
2013-02-23 17:41:00,47.3,32.3,29.82,North,0,3.8,3.8,56,0.00,,,0.00,WUHU216HW,2013-02-23 23:41:00,
2013-02-23 17:42:00,47.3,32.3,29.82,North,0,3.8,3.8,56,0.00,,,0.00,WUHU216HW,2013-02-23 23:42:00,
2013-02-23 17:43:00,47.3,32.3,29.82,NW,315,3.8,3.8,56,0.00,,,0.00,WUHU216HW,2013-02-23 23:43:00,
2013-02-23 17:44:00,47.3,32.3,29.82,NW,315,3.8,3.8,56,0.00,,,0.00,WUHU216HW,2013-02-23 23:44:00,
2013-02-23 17:45:00,47.3,32.3,29.82,NW,315,2.2,3.8,56,0.00,,,0.00,WUHU216HW,2013-02-23 23:45:00,
2013-02-23 17:46:00,47.3,32.3,29.82,NW,315,2.2,3.8,56,0.00,,,0.00,WUHU216HW,2013-02-23 23:46:00,
2013-02-23 17:47:00,47.1,32.1,29.82,NNW,338,2.2,3.8,56,0.00,,,0.00,WUHU216HW,2013-02-23 23:47:00,
2013-02-23 17:48:00,47.1,32.1,29.82,NNW,338,2.2,3.8,56,0.00,,,0.00,WUHU216HW,2013-02-23 23:48:00,
2013-02-23 17:49:00,47.1,32.1,29.82,North,0,0.0,3.8,56,0.00,,,0.00,WUHU216HW,2013-02-23 23:49:00,
2013-02-23 17:50:00,47.1,32.1,29.82,North,0,0.0,3.8,56,0.00,,,0.00,WUHU216HW,2013-02-23 23:50:00,
2013-02-23 17:51:00,46.9,31.9,29.82,NNW,338,7.3,7.3,56,0.00,,,0.00,WUHU216HW,2013-02-23 23:51:00,
2013-02-23 17:52:00,46.9,31.9,29.82,NNW,338,7.3,7.3,56,0.00,,,0.00,WUHU216HW,2013-02-23 23:52:00,
2013-02-23 17:53:00,46.9,31.9,29.82,NNW,338,0.0,7.3,56,0.00,,,0.00,WUHU216HW,2013-02-23 23:53:00,
2013-02-23 17:54:00,46.9,31.9,29.82,NNW,338,0.0,7.3,56,0.00,,,0.00,WUHU216HW,2013-02-23 23:54:00,
2013-02-23 17:55:00,46.9,31.8,29.82,NNW,338,0.0,7.3,56,0.00,,,0.00,WUHU216HW,2013-02-23 23:55:00,
2013-02-23 17:56:00,46.7,31.8,29.82,NNW,338,0.0,7.3,56,0.00,,,0.00,WUHU216HW,2013-02-23 23:56:00,
2013-02-23 17:57:00,46.7,31.8,29.83,NNW,338,0.0,7.3,56,0.00,,,0.00,WUHU216HW,2013-02-23 23:57:00,
2013-02-23 17:58:00,46.5,31.6,29.83,WNW,293,0.0,7.3,56,0.00,,,0.00,WUHU216HW,2013-02-23 23:58:00,
2013-02-23 17:59:00,46.5,31.6,29.83,WNW,293,0.0,7.3,56,0.00,,,0.00,WUHU216HW,2013-02-23 23:59:00,
2013-02-23 18:00:00,46.5,31.6,29.83,NNW,338,0.0,7.3,56,0.00,,,0.00,WUHU216HW,2013-02-24 00:00:00,
2013-02-23 18:01:00,46.5,31.6,29.83,NNW,338,0.0,7.3,56,0.00,,,0.00,WUHU216HW,2013-02-24 00:01:00,
2013-02-23 18:02:00,46.4,31.4,29.83,WNW,293,0.0,0.0,56,0.00,,,0.00,WUHU216HW,2013-02-24 00:02:00,
2013-02-23 18:03:00,46.4,31.4,29.83,WNW,293,0.0,0.0,56,0.00,,,0.00,WUHU216HW,2013-02-24 00:03:00,
2013-02-23 18:04:00,46.2,31.2,29.83,NW,315,0.0,0.0,56,0.00,,,0.00,WUHU216HW,2013-02-24 00:04:00,
2013-02-23 18:05:00,46.2,31.2,29.83,NW,315,0.0,0.0,56,0.00,,,0.00,WUHU216HW,2013-02-24 00:05:00,
2013-02-23 18:06:00,46.2,31.2,29.83,WNW,293,0.0,0.0,56,0.00,,,0.00,WUHU216HW,2013-02-24 00:06:00,
2013-02-23 18:07:00,46.2,31.2,29.84,WNW,293,0.0,0.0,56,0.00,,,0.00,WUHU216HW,2013-02-24 00:07:00,
2013-02-23 18:08:00,46.0,31.5,29.84,WNW,293,0.0,0.0,57,0.00,,,0.00,WUHU216HW,2013-02-24 00:08:00,
2013-02-23 18:09:00,46.0,31.5,29.84,WNW,293,0.0,0.0,57,0.00,,,0.00,WUHU216HW,2013-02-24 00:09:00,
2013-02-23 18:10:00,46.0,31.5,29.84,NNW,338,0.0,0.0,57,0.00,,,0.00,WUHU216HW,2013-02-24 00:10:00,
2013-02-23 18:11:00,46.0,31.5,29.84,NNW,338,0.0,0.0,57,0.00,,,0.00,WUHU216HW,2013-02-24 00:11:00,
2013-02-23 18:12:00,46.0,31.5,29.84,NNW,338,0.0,0.0,57,0.00,,,0.00,WUHU216HW,2013-02-24 00:12:00,
2013-02-23 18:13:00,45.6,31.2,29.84,NNW,338,3.8,3.8,57,0.00,,,0.00,WUHU216HW,2013-02-24 00:13:00,
2013-02-23 18:14:00,45.6,31.2,29.84,NNW,338,3.8,3.8,57,0.00,,,0.00,WUHU216HW,2013-02-24 00:14:00,
2013-02-23 18:15:00,45.6,30.8,29.84,West,270,2.4,3.8,56,0.00,,,0.00,WUHU216HW,2013-02-24 00:15:00,
2013-02-23 18:16:00,45.6,30.8,29.84,West,270,2.4,3.8,56,0.00,,,0.00,WUHU216HW,2013-02-24 00:16:00,
2013-02-23 18:17:00,45.6,30.8,29.84,NNW,338,3.5,3.8,56,0.00,,,0.00,WUHU216HW,2013-02-24 00:17:00,
2013-02-23 18:18:00,45.6,30.8,29.84,NNW,338,3.5,3.8,56,0.00,,,0.00,WUHU216HW,2013-02-24 00:18:00,
2013-02-23 18:19:00,45.6,30.8,29.84,NNW,338,2.2,3.8,56,0.00,,,0.00,WUHU216HW,2013-02-24 00:19:00,
2013-02-23 18:20:00,45.6,30.8,29.84,NNW,338,2.2,3.8,56,0.00,,,0.00,WUHU216HW,2013-02-24 00:20:00,
2013-02-23 18:21:00,45.5,30.6,29.84,NNW,338,2.0,3.8,56,0.00,,,0.00,WUHU216HW,2013-02-24 00:21:00,
2013-02-23 18:22:00,45.5,30.6,29.84,NNW,338,2.0,3.8,56,0.00,,,0.00,WUHU216HW,2013-02-24 00:22:00,
2013-02-23 18:23:00,45.3,30.4,29.84,NNW,338,0.0,3.8,56,0.00,,,0.00,WUHU216HW,2013-02-24 00:23:00,
2013-02-23 18:24:00,45.3,30.4,29.83,NNW,338,0.0,3.5,56,0.00,,,0.00,WUHU216HW,2013-02-24 00:24:00,
2013-02-23 18:25:00,45.1,30.3,29.83,North,0,0.0,3.5,56,0.00,,,0.00,WUHU216HW,2013-02-24 00:25:00,
2013-02-23 18:26:00,45.1,30.3,29.83,North,0,0.0,3.5,56,0.00,,,0.00,WUHU216HW,2013-02-24 00:26:00,
2013-02-23 18:27:00,45.1,30.3,29.83,North,0,0.0,3.5,57,0.00,,,0.00,WUHU216HW,2013-02-24 00:27:00,
2013-02-23 18:28:00,45.1,30.7,29.83,North,0,0.0,2.2,57,0.00,,,0.00,WUHU216HW,2013-02-24 00:28:00,
2013-02-23 18:29:00,45.1,30.7,29.83,North,0,0.0,2.2,57,0.00,,,0.00,WUHU216HW,2013-02-24 00:29:00,
2013-02-23 18:30:00,44.7,30.4,29.83,NW,315,0.0,2.0,57,0.00,,,0.00,WUHU216HW,2013-02-24 00:30:00,
2013-02-23 18:31:00,44.7,30.4,29.83,NW,315,0.0,2.0,57,0.00,,,0.00,WUHU216HW,2013-02-24 00:31:00,
2013-02-23 18:32:00,44.7,30.4,29.83,North,0,0.0,0.0,57,0.00,,,0.00,WUHU216HW,2013-02-24 00:32:00,
2013-02-23 18:33:00,44.7,30.4,29.83,North,0,0.0,0.0,57,0.00,,,0.00,WUHU216HW,2013-02-24 00:33:00,
2013-02-23 18:34:00,44.6,30.2,29.83,NNW,338,0.0,0.0,57,0.00,,,0.00,WUHU216HW,2013-02-24 00:34:00,
2013-02-23 18:35:00,44.6,30.2,29.83,NNW,338,0.0,0.0,57,0.00,,,0.00,WUHU216HW,2013-02-24 00:35:00,
2013-02-23 18:36:00,44.4,30.1,29.83,NNW,338,0.0,0.0,57,0.00,,,0.00,WUHU216HW,2013-02-24 00:36:00,
2013-02-23 18:37:00,44.4,30.1,29.84,NNW,338,0.0,0.0,57,0.00,,,0.00,WUHU216HW,2013-02-24 00:37:00,
2013-02-23 18:38:00,44.4,30.5,29.84,North,0,0.0,0.0,58,0.00,,,0.00,WUHU216HW,2013-02-24 00:38:00,
2013-02-23 18:39:00,44.4,30.5,29.83,North,0,0.0,0.0,58,0.00,,,0.00,WUHU216HW,2013-02-24 00:39:00,
2013-02-23 18:40:00,44.4,30.3,29.83,North,0,0.0,0.0,58,0.00,,,0.00,WUHU216HW,2013-02-24 00:40:00,
2013-02-23 18:41:00,44.2,30.3,29.83,North,0,0.0,0.0,58,0.00,,,0.00,WUHU216HW,2013-02-24 00:41:00,
2013-02-23 18:42:00,44.2,30.3,29.83,North,0,0.0,0.0,58,0.00,,,0.00,WUHU216HW,2013-02-24 00:42:00,
2013-02-23 18:43:00,44.2,30.3,29.83,North,0,0.0,0.0,58,0.00,,,0.00,WUHU216HW,2013-02-24 00:43:00,
2013-02-23 18:44:00,44.2,30.3,29.84,North,0,0.0,0.0,58,0.00,,,0.00,WUHU216HW,2013-02-24 00:44:00,
2013-02-23 18:45:00,43.8,30.0,29.84,North,0,0.0,0.0,58,0.00,,,0.00,WUHU216HW,2013-02-24 00:45:00,
2013-02-23 18:46:00,43.8,30.0,29.84,North,0,0.0,0.0,58,0.00,,,0.00,WUHU216HW,2013-02-24 00:46:00,
2013-02-23 18:47:00,43.7,30.2,29.84,North,0,0.0,0.0,59,0.00,,,0.00,WUHU216HW,2013-02-24 00:47:00,
2013-02-23 18:48:00,43.7,30.2,29.84,North,0,0.0,0.0,59,0.00,,,0.00,WUHU216HW,2013-02-24 00:48:00,
2013-02-23 18:49:00,43.5,30.1,29.84,North,0,0.0,0.0,59,0.00,,,0.00,WUHU216HW,2013-02-24 00:49:00,
2013-02-23 18:50:00,43.5,30.1,29.84,North,0,0.0,0.0,59,0.00,,,0.00,WUHU216HW,2013-02-24 00:50:00,
2013-02-23 18:51:00,43.5,30.1,29.84,North,0,0.0,0.0,59,0.00,,,0.00,WUHU216HW,2013-02-24 00:51:00,
2013-02-23 18:52:00,43.5,30.1,29.84,North,0,0.0,0.0,59,0.00,,,0.00,WUHU216HW,2013-02-24 00:52:00,
2013-02-23 18:53:00,43.1,29.7,29.85,North,0,0.0,0.0,59,0.00,,,0.00,WUHU216HW,2013-02-24 00:53:00,
2013-02-23 18:54:00,43.1,29.7,29.85,North,0,0.0,0.0,59,0.00,,,0.00,WUHU216HW,2013-02-24 00:54:00,
2013-02-23 18:55:00,42.9,29.5,29.85,North,0,0.0,0.0,59,0.00,,,0.00,WUHU216HW,2013-02-24 00:55:00,
2013-02-23 18:56:00,42.9,29.5,29.86,North,0,0.0,0.0,59,0.00,,,0.00,WUHU216HW,2013-02-24 00:56:00,
2013-02-23 18:57:00,42.6,29.5,29.86,NNW,338,0.0,0.0,60,0.00,,,0.00,WUHU216HW,2013-02-24 00:57:00,
2013-02-23 18:58:00,42.6,29.6,29.85,NNW,338,0.0,0.0,60,0.00,,,0.00,WUHU216HW,2013-02-24 00:58:00,
2013-02-23 18:59:00,42.6,29.6,29.85,NNW,338,0.0,0.0,60,0.00,,,0.00,WUHU216HW,2013-02-24 00:59:00,
2013-02-23 19:00:00,42.6,29.6,29.85,NNW,338,0.0,0.0,60,0.00,,,0.00,WUHU216HW,2013-02-24 01:00:00,
2013-02-23 19:01:00,42.6,29.6,29.85,NNW,338,0.0,0.0,60,0.00,,,0.00,WUHU216HW,2013-02-24 01:01:00,
2013-02-23 19:02:00,42.4,29.8,29.85,NNW,338,0.0,0.0,61,0.00,,,0.00,WUHU216HW,2013-02-24 01:02:00,
2013-02-23 19:03:00,42.4,29.8,29.85,NNW,338,0.0,0.0,61,0.00,,,0.00,WUHU216HW,2013-02-24 01:03:00,
2013-02-23 19:04:00,42.4,29.8,29.85,North,0,0.0,0.0,61,0.00,,,0.00,WUHU216HW,2013-02-24 01:04:00,
2013-02-23 19:05:00,42.4,29.8,29.85,North,0,0.0,0.0,61,0.00,,,0.00,WUHU216HW,2013-02-24 01:05:00,
2013-02-23 19:06:00,42.4,29.8,29.86,North,0,0.0,0.0,61,0.00,,,0.00,WUHU216HW,2013-02-24 01:06:00,
2013-02-23 19:07:00,42.4,29.8,29.86,North,0,0.0,0.0,61,0.00,,,0.00,WUHU216HW,2013-02-24 01:07:00,
2013-02-23 19:08:00,42.4,29.7,29.85,North,0,0.0,0.0,61,0.00,,,0.00,WUHU216HW,2013-02-24 01:08:00,
2013-02-23 19:09:00,42.2,29.7,29.85,North,0,0.0,0.0,61,0.00,,,0.00,WUHU216HW,2013-02-24 01:09:00,
2013-02-23 19:10:00,42.0,29.5,29.86,NNW,338,0.0,0.0,61,0.00,,,0.00,WUHU216HW,2013-02-24 01:10:00,
2013-02-23 19:11:00,42.0,29.5,29.86,NNW,338,0.0,0.0,61,0.00,,,0.00,WUHU216HW,2013-02-24 01:11:00,
2013-02-23 19:12:00,42.0,29.5,29.85,NNW,338,0.0,0.0,61,0.00,,,0.00,WUHU216HW,2013-02-24 01:12:00,
2013-02-23 19:13:00,42.0,29.5,29.85,North,0,0.0,0.0,61,0.00,,,0.00,WUHU216HW,2013-02-24 01:13:00,
2013-02-23 19:14:00,42.0,29.5,29.85,North,0,0.0,0.0,61,0.00,,,0.00,WUHU216HW,2013-02-24 01:14:00,
2013-02-23 19:15:00,42.0,29.5,29.85,North,0,0.0,0.0,61,0.00,,,0.00,WUHU216HW,2013-02-24 01:15:00,
2013-02-23 19:16:00,42.0,29.5,29.85,North,0,0.0,0.0,61,0.00,,,0.00,WUHU216HW,2013-02-24 01:16:00,
2013-02-23 19:17:00,41.7,29.6,29.86,NNW,338,0.0,0.0,62,0.00,,,0.00,WUHU216HW,2013-02-24 01:17:00,
2013-02-23 19:18:00,41.7,29.6,29.86,NNW,338,0.0,0.0,62,0.00,,,0.00,WUHU216HW,2013-02-24 01:18:00,
2013-02-23 19:19:00,41.5,29.4,29.87,NNW,338,0.0,0.0,62,0.00,,,0.00,WUHU216HW,2013-02-24 01:19:00,
2013-02-23 19:20:00,41.5,29.4,29.87,NNW,338,0.0,0.0,62,0.00,,,0.00,WUHU216HW,2013-02-24 01:20:00,
2013-02-23 19:21:00,41.5,29.4,29.87,NNW,338,0.0,0.0,62,0.00,,,0.00,WUHU216HW,2013-02-24 01:21:00,
2013-02-23 19:22:00,41.5,29.4,29.86,NNW,338,0.0,0.0,62,0.00,,,0.00,WUHU216HW,2013-02-24 01:22:00,
2013-02-23 19:23:00,41.3,29.3,29.86,NNW,338,0.0,0.0,62,0.00,,,0.00,WUHU216HW,2013-02-24 01:23:00,
2013-02-23 19:24:00,41.3,29.3,29.86,NNW,338,0.0,0.0,62,0.00,,,0.00,WUHU216HW,2013-02-24 01:24:00,
2013-02-23 19:25:00,41.3,29.3,29.85,NNW,338,0.0,0.0,62,0.00,,,0.00,WUHU216HW,2013-02-24 01:25:00,
2013-02-23 19:26:00,41.1,29.1,29.85,NNW,338,0.0,0.0,62,0.00,,,0.00,WUHU216HW,2013-02-24 01:26:00,
2013-02-23 19:27:00,41.1,29.1,29.85,NNW,338,0.0,0.0,62,0.00,,,0.00,WUHU216HW,2013-02-24 01:27:00,
2013-02-23 19:28:00,41.1,29.5,29.85,NNW,338,0.0,0.0,63,0.00,,,0.00,WUHU216HW,2013-02-24 01:28:00,
2013-02-23 19:29:00,41.1,29.5,29.85,NNW,338,0.0,0.0,63,0.00,,,0.00,WUHU216HW,2013-02-24 01:29:00,
2013-02-23 19:30:00,41.0,29.3,29.86,NNW,338,0.0,0.0,63,0.00,,,0.00,WUHU216HW,2013-02-24 01:30:00,
2013-02-23 19:31:00,41.0,29.3,29.85,NNW,338,0.0,0.0,63,0.00,,,0.00,WUHU216HW,2013-02-24 01:31:00,
2013-02-23 19:32:00,40.8,29.1,29.85,NNW,338,0.0,0.0,63,0.00,,,0.00,WUHU216HW,2013-02-24 01:32:00,
2013-02-23 19:33:00,40.8,29.1,29.85,NNW,338,0.0,0.0,63,0.00,,,0.00,WUHU216HW,2013-02-24 01:33:00,
2013-02-23 19:34:00,40.6,28.9,29.85,NNW,338,0.0,0.0,63,0.00,,,0.00,WUHU216HW,2013-02-24 01:34:00,
2013-02-23 19:35:00,40.6,28.9,29.85,NNW,338,0.0,0.0,63,0.00,,,0.00,WUHU216HW,2013-02-24 01:35:00,
2013-02-23 19:36:00,40.6,28.9,29.85,NNW,338,0.0,0.0,63,0.00,,,0.00,WUHU216HW,2013-02-24 01:36:00,
2013-02-23 19:37:00,40.6,28.9,29.86,NNW,338,0.0,0.0,63,0.00,,,0.00,WUHU216HW,2013-02-24 01:37:00,
2013-02-23 19:38:00,40.2,29.0,29.85,NNW,338,0.0,0.0,64,0.00,,,0.00,WUHU216HW,2013-02-24 01:38:00,
2013-02-23 19:39:00,40.2,29.0,29.86,NNW,338,0.0,0.0,64,0.00,,,0.00,WUHU216HW,2013-02-24 01:39:00,
2013-02-23 19:40:00,40.2,29.0,29.85,NNW,338,0.0,0.0,64,0.00,,,0.00,WUHU216HW,2013-02-24 01:40:00,
2013-02-23 19:41:00,40.2,29.0,29.85,NNW,338,0.0,0.0,64,0.00,,,0.00,WUHU216HW,2013-02-24 01:41:00,
2013-02-23 19:42:00,40.2,28.8,29.85,NNW,338,0.0,0.0,64,0.00,,,0.00,WUHU216HW,2013-02-24 01:42:00,
2013-02-23 19:43:00,40.1,28.8,29.86,NNW,338,0.0,0.0,64,0.00,,,0.00,WUHU216HW,2013-02-24 01:43:00,
2013-02-23 19:44:00,40.1,28.8,29.86,NNW,338,0.0,0.0,64,0.00,,,0.00,WUHU216HW,2013-02-24 01:44:00,
2013-02-23 19:45:00,39.9,28.6,29.86,NNW,338,0.0,0.0,64,0.00,,,0.00,WUHU216HW,2013-02-24 01:45:00,
2013-02-23 19:46:00,39.9,28.6,29.86,NNW,338,0.0,0.0,64,0.00,,,0.00,WUHU216HW,2013-02-24 01:46:00,
2013-02-23 19:47:00,39.9,28.6,29.86,NNW,338,0.0,0.0,64,0.00,,,0.00,WUHU216HW,2013-02-24 01:47:00,
2013-02-23 19:48:00,39.9,28.6,29.86,NNW,338,0.0,0.0,64,0.00,,,0.00,WUHU216HW,2013-02-24 01:48:00,
2013-02-23 19:49:00,39.9,29.0,29.86,NNW,338,0.0,0.0,65,0.00,,,0.00,WUHU216HW,2013-02-24 01:49:00,
2013-02-23 19:50:00,39.9,29.0,29.87,NNW,338,0.0,0.0,65,0.00,,,0.00,WUHU216HW,2013-02-24 01:50:00,
2013-02-23 19:51:00,39.9,29.0,29.87,NNW,338,0.0,0.0,65,0.00,,,0.00,WUHU216HW,2013-02-24 01:51:00,
2013-02-23 19:52:00,39.9,29.0,29.87,NNW,338,0.0,0.0,65,0.00,,,0.00,WUHU216HW,2013-02-24 01:52:00,
2013-02-23 19:53:00,39.5,28.6,29.87,NNW,338,0.0,0.0,65,0.00,,,0.00,WUHU216HW,2013-02-24 01:53:00,
2013-02-23 19:54:00,39.5,28.6,29.87,NNW,338,0.0,0.0,65,0.00,,,0.00,WUHU216HW,2013-02-24 01:54:00,
2013-02-23 19:55:00,39.3,28.8,29.87,WNW,293,0.0,0.0,66,0.00,,,0.00,WUHU216HW,2013-02-24 01:55:00,
2013-02-23 19:56:00,39.3,28.8,29.87,WNW,293,0.0,0.0,66,0.00,,,0.00,WUHU216HW,2013-02-24 01:56:00,
2013-02-23 19:57:00,39.3,28.8,29.87,West,270,0.0,0.0,66,0.00,,,0.00,WUHU216HW,2013-02-24 01:57:00,
2013-02-23 19:58:00,39.0,28.9,29.87,West,270,0.0,0.0,67,0.00,,,0.00,WUHU216HW,2013-02-24 01:58:00,
2013-02-23 19:59:00,39.0,28.9,29.87,West,270,0.0,0.0,67,0.00,,,0.00,WUHU216HW,2013-02-24 01:59:00,
2013-02-23 20:00:00,38.8,28.7,29.87,West,270,0.0,0.0,67,0.00,,,0.00,WUHU216HW,2013-02-24 02:00:00,
2013-02-23 20:01:00,38.8,28.7,29.87,West,270,0.0,0.0,67,0.00,,,0.00,WUHU216HW,2013-02-24 02:01:00,
2013-02-23 20:02:00,38.8,29.1,29.87,WNW,293,0.0,0.0,68,0.00,,,0.00,WUHU216HW,2013-02-24 02:02:00,
2013-02-23 20:03:00,38.8,29.1,29.87,WNW,293,0.0,0.0,68,0.00,,,0.00,WUHU216HW,2013-02-24 02:03:00,
2013-02-23 20:04:00,38.6,29.3,29.87,WNW,293,0.0,0.0,69,0.00,,,0.00,WUHU216HW,2013-02-24 02:04:00,
2013-02-23 20:05:00,38.6,29.3,29.87,WNW,293,0.0,0.0,69,0.00,,,0.00,WUHU216HW,2013-02-24 02:05:00,
2013-02-23 20:06:00,38.4,29.1,29.87,NNW,338,0.0,0.0,69,0.00,,,0.00,WUHU216HW,2013-02-24 02:06:00,
2013-02-23 20:07:00,38.4,29.1,29.87,NNW,338,0.0,0.0,69,0.00,,,0.00,WUHU216HW,2013-02-24 02:07:00,
2013-02-23 20:08:00,38.4,29.1,29.87,NW,315,0.0,0.0,69,0.00,,,0.00,WUHU216HW,2013-02-24 02:08:00,
2013-02-23 20:09:00,38.4,29.1,29.87,NW,315,0.0,0.0,69,0.00,,,0.00,WUHU216HW,2013-02-24 02:09:00,
2013-02-23 20:10:00,38.8,29.4,29.87,NW,315,2.6,2.6,69,0.00,,,0.00,WUHU216HW,2013-02-24 02:10:00,
2013-02-23 20:11:00,38.8,29.4,29.88,NW,315,2.6,2.6,69,0.00,,,0.00,WUHU216HW,2013-02-24 02:11:00,
2013-02-23 20:12:00,39.0,29.6,29.87,NNW,338,0.0,2.6,69,0.00,,,0.00,WUHU216HW,2013-02-24 02:12:00,
2013-02-23 20:13:00,39.0,29.6,29.87,NNW,338,0.0,2.6,69,0.00,,,0.00,WUHU216HW,2013-02-24 02:13:00,
2013-02-23 20:14:00,39.0,29.6,29.87,NNW,338,0.0,2.6,69,0.00,,,0.00,WUHU216HW,2013-02-24 02:14:00,
2013-02-23 20:15:00,39.3,29.6,29.87,NNW,338,0.0,2.6,68,0.00,,,0.00,WUHU216HW,2013-02-24 02:15:00,
2013-02-23 20:16:00,39.3,29.6,29.87,NNW,338,0.0,2.6,68,0.00,,,0.00,WUHU216HW,2013-02-24 02:16:00,
2013-02-23 20:17:00,39.3,29.6,29.88,North,0,2.2,2.6,68,0.00,,,0.00,WUHU216HW,2013-02-24 02:17:00,
2013-02-23 20:18:00,39.3,29.6,29.88,North,0,2.2,2.6,68,0.00,,,0.00,WUHU216HW,2013-02-24 02:18:00,
2013-02-23 20:19:00,39.7,29.9,29.87,NNW,338,0.0,2.6,68,0.00,,,0.00,WUHU216HW,2013-02-24 02:19:00,
2013-02-23 20:20:00,39.7,29.9,29.87,NNW,338,0.0,2.6,68,0.00,,,0.00,WUHU216HW,2013-02-24 02:20:00,
2013-02-23 20:21:00,39.9,29.7,29.87,NW,315,0.0,2.2,67,0.00,,,0.00,WUHU216HW,2013-02-24 02:21:00,
2013-02-23 20:22:00,39.9,29.7,29.88,NW,315,0.0,2.2,67,0.00,,,0.00,WUHU216HW,2013-02-24 02:22:00,
2013-02-23 20:23:00,39.9,29.7,29.88,NW,315,0.0,2.2,67,0.00,,,0.00,WUHU216HW,2013-02-24 02:23:00,
2013-02-23 20:24:00,39.9,29.7,29.88,NW,315,0.0,2.2,67,0.00,,,0.00,WUHU216HW,2013-02-24 02:24:00,
2013-02-23 20:25:00,39.7,29.6,29.88,NW,315,0.0,2.2,67,0.00,,,0.00,WUHU216HW,2013-02-24 02:25:00,
2013-02-23 20:26:00,39.7,29.6,29.88,NW,315,0.0,2.2,67,0.00,,,0.00,WUHU216HW,2013-02-24 02:26:00,
2013-02-23 20:27:00,39.7,29.6,29.88,NW,315,0.0,2.2,67,0.00,,,0.00,WUHU216HW,2013-02-24 02:27:00,
2013-02-23 20:28:00,39.7,29.6,29.88,NW,315,0.0,0.0,67,0.00,,,0.00,WUHU216HW,2013-02-24 02:28:00,
2013-02-23 20:29:00,39.7,29.6,29.88,NW,315,0.0,0.0,67,0.00,,,0.00,WUHU216HW,2013-02-24 02:29:00,
2013-02-23 20:30:00,39.7,29.6,29.88,NNE,23,0.0,0.0,67,0.00,,,0.00,WUHU216HW,2013-02-24 02:30:00,
2013-02-23 20:31:00,39.7,29.6,29.87,NNE,23,0.0,0.0,67,0.00,,,0.00,WUHU216HW,2013-02-24 02:31:00,
2013-02-23 20:32:00,39.7,29.6,29.87,NNE,23,0.0,0.0,67,0.00,,,0.00,WUHU216HW,2013-02-24 02:32:00,
2013-02-23 20:33:00,39.7,29.6,29.88,NNE,23,0.0,0.0,67,0.00,,,0.00,WUHU216HW,2013-02-24 02:33:00,
2013-02-23 20:34:00,39.7,29.6,29.87,North,0,0.0,0.0,67,0.00,,,0.00,WUHU216HW,2013-02-24 02:34:00,
2013-02-23 20:35:00,39.7,29.6,29.87,North,0,0.0,0.0,67,0.00,,,0.00,WUHU216HW,2013-02-24 02:35:00,
2013-02-23 20:36:00,39.5,29.4,29.87,North,0,0.0,0.0,67,0.00,,,0.00,WUHU216HW,2013-02-24 02:36:00,
2013-02-23 20:37:00,39.5,29.4,29.87,North,0,0.0,0.0,67,0.00,,,0.00,WUHU216HW,2013-02-24 02:37:00,
2013-02-23 20:38:00,39.5,29.4,29.87,NNW,338,0.0,0.0,67,0.00,,,0.00,WUHU216HW,2013-02-24 02:38:00,
2013-02-23 20:39:00,39.5,29.4,29.87,NNW,338,0.0,0.0,67,0.00,,,0.00,WUHU216HW,2013-02-24 02:39:00,
2013-02-23 20:40:00,39.5,29.4,29.87,NNW,338,0.0,0.0,67,0.00,,,0.00,WUHU216HW,2013-02-24 02:40:00,
2013-02-23 20:41:00,39.5,29.4,29.87,NNW,338,0.0,0.0,67,0.00,,,0.00,WUHU216HW,2013-02-24 02:41:00,
2013-02-23 20:42:00,39.3,29.4,29.87,NNW,338,0.0,0.0,67,0.00,,,0.00,WUHU216HW,2013-02-24 02:42:00,
2013-02-23 20:43:00,39.3,29.2,29.87,NNW,338,0.0,0.0,67,0.00,,,0.00,WUHU216HW,2013-02-24 02:43:00,
2013-02-23 20:44:00,39.3,29.2,29.87,NNW,338,0.0,0.0,67,0.00,,,0.00,WUHU216HW,2013-02-24 02:44:00,
2013-02-23 20:45:00,39.3,29.2,29.87,NNW,338,0.0,0.0,67,0.00,,,0.00,WUHU216HW,2013-02-24 02:45:00,
2013-02-23 20:46:00,39.3,29.2,29.87,NNW,338,0.0,0.0,67,0.00,,,0.00,WUHU216HW,2013-02-24 02:46:00,
2013-02-23 20:47:00,39.2,29.0,29.87,NNW,338,0.0,0.0,67,0.00,,,0.00,WUHU216HW,2013-02-24 02:47:00,
2013-02-23 20:48:00,39.2,29.0,29.87,NNW,338,0.0,0.0,67,0.00,,,0.00,WUHU216HW,2013-02-24 02:48:00,
2013-02-23 20:49:00,39.0,28.9,29.87,NNW,338,0.0,0.0,67,0.00,,,0.00,WUHU216HW,2013-02-24 02:49:00,
2013-02-23 20:50:00,39.0,28.9,29.87,NNW,338,0.0,0.0,67,0.00,,,0.00,WUHU216HW,2013-02-24 02:50:00,
2013-02-23 20:51:00,38.8,28.7,29.87,NNW,338,0.0,0.0,67,0.00,,,0.00,WUHU216HW,2013-02-24 02:51:00,
2013-02-23 20:52:00,38.8,28.7,29.87,NNW,338,0.0,0.0,67,0.00,,,0.00,WUHU216HW,2013-02-24 02:52:00,
2013-02-23 20:53:00,38.8,29.1,29.87,NNW,338,0.0,0.0,68,0.00,,,0.00,WUHU216HW,2013-02-24 02:53:00,
2013-02-23 20:54:00,38.8,29.1,29.87,NNW,338,0.0,0.0,68,0.00,,,0.00,WUHU216HW,2013-02-24 02:54:00,
2013-02-23 20:55:00,38.8,29.1,29.88,NNW,338,0.0,0.0,68,0.00,,,0.00,WUHU216HW,2013-02-24 02:55:00,
2013-02-23 20:56:00,38.8,29.1,29.87,NNW,338,0.0,0.0,68,0.00,,,0.00,WUHU216HW,2013-02-24 02:56:00,
2013-02-23 20:57:00,38.8,28.7,29.88,NNW,338,0.0,0.0,68,0.00,,,0.00,WUHU216HW,2013-02-24 02:57:00,
2013-02-23 20:58:00,38.4,28.7,29.88,NNW,338,0.0,0.0,68,0.00,,,0.00,WUHU216HW,2013-02-24 02:58:00,
2013-02-23 20:59:00,38.4,28.7,29.88,NNW,338,0.0,0.0,68,0.00,,,0.00,WUHU216HW,2013-02-24 02:59:00,
2013-02-23 21:00:00,38.3,28.6,29.88,NNW,338,0.0,0.0,68,0.00,,,0.00,WUHU216HW,2013-02-24 03:00:00,
2013-02-23 21:01:00,38.3,28.6,29.88,NNW,338,0.0,0.0,68,0.00,,,0.00,WUHU216HW,2013-02-24 03:01:00,
2013-02-23 21:02:00,38.1,28.8,29.88,NNW,338,0.0,0.0,69,0.00,,,0.00,WUHU216HW,2013-02-24 03:02:00,
2013-02-23 21:03:00,38.1,28.8,29.88,NNW,338,0.0,0.0,69,0.00,,,0.00,WUHU216HW,2013-02-24 03:03:00,
2013-02-23 21:04:00,37.9,28.6,29.88,NNW,338,0.0,0.0,69,0.00,,,0.00,WUHU216HW,2013-02-24 03:04:00,
2013-02-23 21:05:00,37.9,28.6,29.88,NNW,338,0.0,0.0,69,0.00,,,0.00,WUHU216HW,2013-02-24 03:05:00,
2013-02-23 21:06:00,37.7,28.5,29.88,NNW,338,0.0,0.0,69,0.00,,,0.00,WUHU216HW,2013-02-24 03:06:00,
2013-02-23 21:07:00,37.7,28.5,29.88,NNW,338,0.0,0.0,69,0.00,,,0.00,WUHU216HW,2013-02-24 03:07:00,
2013-02-23 21:08:00,37.5,28.3,29.88,NNW,338,0.0,0.0,69,0.00,,,0.00,WUHU216HW,2013-02-24 03:08:00,
2013-02-23 21:09:00,37.5,28.3,29.88,NNW,338,0.0,0.0,69,0.00,,,0.00,WUHU216HW,2013-02-24 03:09:00,
2013-02-23 21:10:00,37.4,28.5,29.88,NNW,338,0.0,0.0,70,0.00,,,0.00,WUHU216HW,2013-02-24 03:10:00,
2013-02-23 21:11:00,37.4,28.5,29.88,NNW,338,0.0,0.0,70,0.00,,,0.00,WUHU216HW,2013-02-24 03:11:00,
2013-02-23 21:12:00,37.4,28.5,29.87,NNW,338,0.0,0.0,70,0.00,,,0.00,WUHU216HW,2013-02-24 03:12:00,
2013-02-23 21:13:00,37.2,28.4,29.88,NNW,338,0.0,0.0,70,0.00,,,0.00,WUHU216HW,2013-02-24 03:13:00,
2013-02-23 21:14:00,37.2,28.4,29.88,NNW,338,0.0,0.0,70,0.00,,,0.00,WUHU216HW,2013-02-24 03:14:00,
2013-02-23 21:15:00,37.2,28.4,29.87,NNW,338,0.0,0.0,70,0.00,,,0.00,WUHU216HW,2013-02-24 03:15:00,
2013-02-23 21:16:00,37.2,28.4,29.87,NNW,338,0.0,0.0,70,0.00,,,0.00,WUHU216HW,2013-02-24 03:16:00,
2013-02-23 21:17:00,37.0,28.2,29.87,NNW,338,0.0,0.0,70,0.00,,,0.00,WUHU216HW,2013-02-24 03:17:00,
2013-02-23 21:18:00,37.0,28.2,29.87,NNW,338,0.0,0.0,70,0.00,,,0.00,WUHU216HW,2013-02-24 03:18:00,
2013-02-23 21:19:00,36.6,27.8,29.88,NNW,338,0.0,0.0,70,0.00,,,0.00,WUHU216HW,2013-02-24 03:19:00,
2013-02-23 21:20:00,36.6,27.8,29.88,NNW,338,0.0,0.0,70,0.00,,,0.00,WUHU216HW,2013-02-24 03:20:00,
2013-02-23 21:21:00,36.6,27.8,29.88,NNW,338,0.0,0.0,70,0.00,,,0.00,WUHU216HW,2013-02-24 03:21:00,
2013-02-23 21:22:00,36.6,27.8,29.88,NNW,338,0.0,0.0,70,0.00,,,0.00,WUHU216HW,2013-02-24 03:22:00,
2013-02-23 21:23:00,36.6,28.1,29.88,NNW,338,0.0,0.0,71,0.00,,,0.00,WUHU216HW,2013-02-24 03:23:00,
2013-02-23 21:24:00,36.6,28.1,29.87,NNW,338,0.0,0.0,71,0.00,,,0.00,WUHU216HW,2013-02-24 03:24:00,
2013-02-23 21:25:00,36.5,28.0,29.88,NW,315,0.0,0.0,71,0.00,,,0.00,WUHU216HW,2013-02-24 03:25:00,
2013-02-23 21:26:00,36.5,28.0,29.88,NW,315,0.0,0.0,71,0.00,,,0.00,WUHU216HW,2013-02-24 03:26:00,
2013-02-23 21:27:00,36.3,28.0,29.88,WNW,293,0.0,0.0,71,0.00,,,0.00,WUHU216HW,2013-02-24 03:27:00,
2013-02-23 21:28:00,36.3,28.1,29.88,WNW,293,0.0,0.0,72,0.00,,,0.00,WUHU216HW,2013-02-24 03:28:00,
2013-02-23 21:29:00,36.3,28.1,29.88,WNW,293,0.0,0.0,72,0.00,,,0.00,WUHU216HW,2013-02-24 03:29:00,
2013-02-23 21:30:00,36.1,27.9,29.88,NNW,338,0.0,0.0,72,0.00,,,0.00,WUHU216HW,2013-02-24 03:30:00,
2013-02-23 21:31:00,36.1,27.9,29.88,NNW,338,0.0,0.0,72,0.00,,,0.00,WUHU216HW,2013-02-24 03:31:00,
2013-02-23 21:32:00,35.9,27.7,29.88,NNW,338,0.0,0.0,72,0.00,,,0.00,WUHU216HW,2013-02-24 03:32:00,
2013-02-23 21:33:00,35.9,27.7,29.88,NNW,338,0.0,0.0,72,0.00,,,0.00,WUHU216HW,2013-02-24 03:33:00,
2013-02-23 21:34:00,35.9,27.7,29.88,NW,315,0.0,0.0,72,0.00,,,0.00,WUHU216HW,2013-02-24 03:34:00,
2013-02-23 21:35:00,35.9,27.7,29.88,NW,315,0.0,0.0,72,0.00,,,0.00,WUHU216HW,2013-02-24 03:35:00,
2013-02-23 21:36:00,36.1,27.9,29.88,WNW,293,0.0,0.0,72,0.00,,,0.00,WUHU216HW,2013-02-24 03:36:00,
2013-02-23 21:37:00,36.1,27.9,29.88,WNW,293,0.0,0.0,72,0.00,,,0.00,WUHU216HW,2013-02-24 03:37:00,
2013-02-23 21:38:00,36.1,27.9,29.88,NNW,338,0.0,0.0,72,0.00,,,0.00,WUHU216HW,2013-02-24 03:38:00,
2013-02-23 21:39:00,36.1,27.9,29.88,NNW,338,0.0,0.0,72,0.00,,,0.00,WUHU216HW,2013-02-24 03:39:00,
2013-02-23 21:40:00,36.3,28.1,29.88,NNW,338,0.0,0.0,72,0.00,,,0.00,WUHU216HW,2013-02-24 03:40:00,
2013-02-23 21:41:00,36.3,28.1,29.88,NNW,338,0.0,0.0,72,0.00,,,0.00,WUHU216HW,2013-02-24 03:41:00,
2013-02-23 21:42:00,36.3,28.1,29.88,NNW,338,0.0,0.0,72,0.00,,,0.00,WUHU216HW,2013-02-24 03:42:00,
2013-02-23 21:43:00,36.3,28.1,29.88,NNW,338,0.0,0.0,72,0.00,,,0.00,WUHU216HW,2013-02-24 03:43:00,
2013-02-23 21:44:00,36.3,28.1,29.88,NNW,338,0.0,0.0,72,0.00,,,0.00,WUHU216HW,2013-02-24 03:44:00,
2013-02-23 21:45:00,36.5,28.3,29.88,WNW,293,0.0,0.0,72,0.00,,,0.00,WUHU216HW,2013-02-24 03:45:00,
2013-02-23 21:46:00,36.5,28.3,29.88,WNW,293,0.0,0.0,72,0.00,,,0.00,WUHU216HW,2013-02-24 03:46:00,
2013-02-23 21:47:00,36.6,28.5,29.88,NW,315,0.0,0.0,72,0.00,,,0.00,WUHU216HW,2013-02-24 03:47:00,
2013-02-23 21:48:00,36.6,28.5,29.88,NW,315,0.0,0.0,72,0.00,,,0.00,WUHU216HW,2013-02-24 03:48:00,
2013-02-23 21:49:00,36.6,28.5,29.88,NW,315,1.1,1.1,72,0.00,,,0.00,WUHU216HW,2013-02-24 03:49:00,
2013-02-23 21:50:00,36.6,28.5,29.88,NW,315,1.1,1.1,72,0.00,,,0.00,WUHU216HW,2013-02-24 03:50:00,
2013-02-23 21:51:00,37.0,28.5,29.88,NW,315,0.0,1.1,71,0.00,,,0.00,WUHU216HW,2013-02-24 03:51:00,
2013-02-23 21:52:00,37.0,28.5,29.88,NW,315,0.0,1.1,71,0.00,,,0.00,WUHU216HW,2013-02-24 03:52:00,
2013-02-23 21:53:00,37.2,28.7,29.88,NNW,338,0.0,1.1,71,0.00,,,0.00,WUHU216HW,2013-02-24 03:53:00,
2013-02-23 21:54:00,37.2,28.7,29.88,NNW,338,0.0,1.1,71,0.00,,,0.00,WUHU216HW,2013-02-24 03:54:00,
2013-02-23 21:55:00,37.4,28.9,29.88,North,0,0.0,1.1,71,0.00,,,0.00,WUHU216HW,2013-02-24 03:55:00,
2013-02-23 21:56:00,37.4,28.9,29.88,North,0,0.0,1.1,71,0.00,,,0.00,WUHU216HW,2013-02-24 03:56:00,
2013-02-23 21:57:00,37.4,28.9,29.88,NNE,23,0.0,1.1,71,0.00,,,0.00,WUHU216HW,2013-02-24 03:57:00,
2013-02-23 21:58:00,37.4,28.9,29.88,NNE,23,0.0,1.1,71,0.00,,,0.00,WUHU216HW,2013-02-24 03:58:00,
2013-02-23 21:59:00,37.4,28.9,29.88,NNE,23,0.0,1.1,71,0.00,,,0.00,WUHU216HW,2013-02-24 03:59:00,
2013-02-23 22:00:00,37.2,28.7,29.88,NNE,23,0.0,0.0,71,0.00,,,0.00,WUHU216HW,2013-02-24 04:00:00,
2013-02-23 22:01:00,37.2,28.7,29.88,NNE,23,0.0,0.0,71,0.00,,,0.00,WUHU216HW,2013-02-24 04:01:00,
2013-02-23 22:02:00,37.2,28.7,29.88,NNE,23,0.0,0.0,71,0.00,,,0.00,WUHU216HW,2013-02-24 04:02:00,
2013-02-23 22:03:00,37.2,28.7,29.88,NNE,23,0.0,0.0,71,0.00,,,0.00,WUHU216HW,2013-02-24 04:03:00,
2013-02-23 22:04:00,37.2,28.4,29.88,North,0,0.0,0.0,70,0.00,,,0.00,WUHU216HW,2013-02-24 04:04:00,
2013-02-23 22:05:00,37.2,28.4,29.88,North,0,0.0,0.0,70,0.00,,,0.00,WUHU216HW,2013-02-24 04:05:00,
2013-02-23 22:06:00,37.2,28.4,29.87,North,0,0.0,0.0,70,0.00,,,0.00,WUHU216HW,2013-02-24 04:06:00,
2013-02-23 22:07:00,37.2,28.4,29.88,North,0,0.0,0.0,70,0.00,,,0.00,WUHU216HW,2013-02-24 04:07:00,
2013-02-23 22:08:00,37.0,28.2,29.87,North,0,0.0,0.0,70,0.00,,,0.00,WUHU216HW,2013-02-24 04:08:00,
2013-02-23 22:09:00,37.0,28.2,29.88,North,0,0.0,0.0,70,0.00,,,0.00,WUHU216HW,2013-02-24 04:09:00,
2013-02-23 22:10:00,36.8,28.0,29.88,North,0,0.0,0.0,70,0.00,,,0.00,WUHU216HW,2013-02-24 04:10:00,
2013-02-23 22:11:00,36.8,28.0,29.88,North,0,0.0,0.0,70,0.00,,,0.00,WUHU216HW,2013-02-24 04:11:00,
2013-02-23 22:12:00,36.8,28.0,29.88,North,0,0.0,0.0,70,0.00,,,0.00,WUHU216HW,2013-02-24 04:12:00,
2013-02-23 22:13:00,36.8,28.0,29.88,North,0,0.0,0.0,70,0.00,,,0.00,WUHU216HW,2013-02-24 04:13:00,
2013-02-23 22:14:00,36.6,28.0,29.88,North,0,0.0,0.0,70,0.00,,,0.00,WUHU216HW,2013-02-24 04:14:00,
2013-02-23 22:15:00,36.6,27.8,29.88,North,0,0.0,0.0,70,0.00,,,0.00,WUHU216HW,2013-02-24 04:15:00,
2013-02-23 22:16:00,36.6,27.8,29.88,North,0,0.0,0.0,70,0.00,,,0.00,WUHU216HW,2013-02-24 04:16:00,
2013-02-23 22:17:00,36.5,27.6,29.88,North,0,0.0,0.0,70,0.00,,,0.00,WUHU216HW,2013-02-24 04:17:00,
2013-02-23 22:18:00,36.5,27.6,29.89,North,0,0.0,0.0,70,0.00,,,0.00,WUHU216HW,2013-02-24 04:18:00,
2013-02-23 22:19:00,36.5,27.6,29.88,North,0,0.0,0.0,70,0.00,,,0.00,WUHU216HW,2013-02-24 04:19:00,
2013-02-23 22:20:00,36.5,27.6,29.88,North,0,0.0,0.0,70,0.00,,,0.00,WUHU216HW,2013-02-24 04:20:00,
2013-02-23 22:21:00,36.3,27.5,29.88,North,0,0.0,0.0,70,0.00,,,0.00,WUHU216HW,2013-02-24 04:21:00,
2013-02-23 22:22:00,36.3,27.5,29.88,North,0,0.0,0.0,70,0.00,,,0.00,WUHU216HW,2013-02-24 04:22:00,
2013-02-23 22:23:00,36.3,27.5,29.88,North,0,0.0,0.0,70,0.00,,,0.00,WUHU216HW,2013-02-24 04:23:00,
2013-02-23 22:24:00,36.3,27.5,29.88,North,0,0.0,0.0,70,0.00,,,0.00,WUHU216HW,2013-02-24 04:24:00,
2013-02-23 22:25:00,36.3,27.5,29.88,North,0,0.0,0.0,70,0.00,,,0.00,WUHU216HW,2013-02-24 04:25:00,
2013-02-23 22:26:00,36.3,27.5,29.88,North,0,0.0,0.0,70,0.00,,,0.00,WUHU216HW,2013-02-24 04:26:00,
2013-02-23 22:27:00,36.3,27.5,29.88,North,0,0.0,0.0,70,0.00,,,0.00,WUHU216HW,2013-02-24 04:27:00,
2013-02-23 22:28:00,36.3,27.5,29.88,North,0,0.0,0.0,70,0.00,,,0.00,WUHU216HW,2013-02-24 04:28:00,
2013-02-23 22:29:00,36.3,27.5,29.88,North,0,0.0,0.0,70,0.00,,,0.00,WUHU216HW,2013-02-24 04:29:00,
2013-02-23 22:30:00,36.3,27.5,29.88,North,0,0.0,0.0,70,0.00,,,0.00,WUHU216HW,2013-02-24 04:30:00,
2013-02-23 22:31:00,36.3,27.5,29.88,North,0,0.0,0.0,70,0.00,,,0.00,WUHU216HW,2013-02-24 04:31:00,
2013-02-23 22:32:00,36.3,27.5,29.88,North,0,0.0,0.0,70,0.00,,,0.00,WUHU216HW,2013-02-24 04:32:00,
2013-02-23 22:33:00,36.3,27.5,29.88,North,0,0.0,0.0,70,0.00,,,0.00,WUHU216HW,2013-02-24 04:33:00,
2013-02-23 22:34:00,36.3,27.5,29.88,North,0,0.0,0.0,70,0.00,,,0.00,WUHU216HW,2013-02-24 04:34:00,
2013-02-23 22:35:00,36.3,27.5,29.88,North,0,0.0,0.0,70,0.00,,,0.00,WUHU216HW,2013-02-24 04:35:00,
2013-02-23 22:36:00,36.1,27.3,29.88,North,0,0.0,0.0,70,0.00,,,0.00,WUHU216HW,2013-02-24 04:36:00,
2013-02-23 22:37:00,36.1,27.3,29.88,North,0,0.0,0.0,70,0.00,,,0.00,WUHU216HW,2013-02-24 04:37:00,
2013-02-23 22:38:00,36.1,27.3,29.88,North,0,0.0,0.0,70,0.00,,,0.00,WUHU216HW,2013-02-24 04:38:00,
2013-02-23 22:39:00,36.1,27.3,29.88,North,0,0.0,0.0,70,0.00,,,0.00,WUHU216HW,2013-02-24 04:39:00,
2013-02-23 22:40:00,35.9,27.4,29.88,North,0,0.0,0.0,71,0.00,,,0.00,WUHU216HW,2013-02-24 04:40:00,
2013-02-23 22:41:00,35.9,27.4,29.88,North,0,0.0,0.0,71,0.00,,,0.00,WUHU216HW,2013-02-24 04:41:00,
2013-02-23 22:42:00,35.9,27.4,29.88,North,0,0.0,0.0,71,0.00,,,0.00,WUHU216HW,2013-02-24 04:42:00,
2013-02-23 22:43:00,35.9,27.4,29.89,North,0,0.0,0.0,71,0.00,,,0.00,WUHU216HW,2013-02-24 04:43:00,
2013-02-23 22:44:00,35.7,27.4,29.89,North,0,0.0,0.0,71,0.00,,,0.00,WUHU216HW,2013-02-24 04:44:00,
2013-02-23 22:45:00,35.7,27.2,29.89,North,0,0.0,0.0,71,0.00,,,0.00,WUHU216HW,2013-02-24 04:45:00,
2013-02-23 22:46:00,35.7,27.2,29.89,North,0,0.0,0.0,71,0.00,,,0.00,WUHU216HW,2013-02-24 04:46:00,
2013-02-23 22:47:00,35.7,27.2,29.89,NNW,338,0.0,0.0,71,0.00,,,0.00,WUHU216HW,2013-02-24 04:47:00,
2013-02-23 22:48:00,35.7,27.2,29.90,NNW,338,0.0,0.0,71,0.00,,,0.00,WUHU216HW,2013-02-24 04:48:00,
2013-02-23 22:49:00,35.6,27.1,29.90,NNW,338,0.0,0.0,71,0.00,,,0.00,WUHU216HW,2013-02-24 04:49:00,
2013-02-23 22:50:00,35.6,27.1,29.90,NNW,338,0.0,0.0,71,0.00,,,0.00,WUHU216HW,2013-02-24 04:50:00,
2013-02-23 22:51:00,35.4,27.2,29.90,WNW,293,0.0,0.0,72,0.00,,,0.00,WUHU216HW,2013-02-24 04:51:00,
2013-02-23 22:52:00,35.4,27.2,29.89,WNW,293,0.0,0.0,72,0.00,,,0.00,WUHU216HW,2013-02-24 04:52:00,
2013-02-23 22:53:00,35.4,27.2,29.90,WNW,293,0.0,0.0,72,0.00,,,0.00,WUHU216HW,2013-02-24 04:53:00,
2013-02-23 22:54:00,35.4,27.2,29.90,WNW,293,0.0,0.0,72,0.00,,,0.00,WUHU216HW,2013-02-24 04:54:00,
2013-02-23 22:55:00,35.7,27.6,29.90,WNW,293,0.0,0.0,72,0.00,,,0.00,WUHU216HW,2013-02-24 04:55:00,
2013-02-23 22:56:00,35.7,27.6,29.90,WNW,293,0.0,0.0,72,0.00,,,0.00,WUHU216HW,2013-02-24 04:56:00,
2013-02-23 22:57:00,35.7,27.6,29.90,WNW,293,0.0,0.0,72,0.00,,,0.00,WUHU216HW,2013-02-24 04:57:00,
2013-02-23 22:58:00,35.7,27.6,29.90,WNW,293,0.0,0.0,72,0.00,,,0.00,WUHU216HW,2013-02-24 04:58:00,
2013-02-23 22:59:00,35.4,27.2,29.90,WNW,293,0.0,0.0,72,0.00,,,0.00,WUHU216HW,2013-02-24 04:59:00,
2013-02-23 23:00:00,35.4,27.2,29.90,WNW,293,0.0,0.0,72,0.00,,,0.00,WUHU216HW,2013-02-24 05:00:00,
2013-02-23 23:01:00,35.4,27.2,29.90,WNW,293,0.0,0.0,72,0.00,,,0.00,WUHU216HW,2013-02-24 05:01:00,
2013-02-23 23:02:00,35.2,27.0,29.89,WNW,293,0.0,0.0,72,0.00,,,0.00,WUHU216HW,2013-02-24 05:02:00,
2013-02-23 23:03:00,35.2,27.0,29.90,WNW,293,0.0,0.0,72,0.00,,,0.00,WUHU216HW,2013-02-24 05:03:00,
2013-02-23 23:04:00,35.0,26.8,29.89,WNW,293,0.0,0.0,72,0.00,,,0.00,WUHU216HW,2013-02-24 05:04:00,
2013-02-23 23:05:00,35.0,26.8,29.89,WNW,293,0.0,0.0,72,0.00,,,0.00,WUHU216HW,2013-02-24 05:05:00,
2013-02-23 23:06:00,34.8,27.0,29.89,WNW,293,0.0,0.0,73,0.00,,,0.00,WUHU216HW,2013-02-24 05:06:00,
2013-02-23 23:07:00,34.8,27.0,29.89,WNW,293,0.0,0.0,73,0.00,,,0.00,WUHU216HW,2013-02-24 05:07:00,
2013-02-23 23:08:00,34.5,26.6,29.89,WNW,293,0.0,0.0,73,0.00,,,0.00,WUHU216HW,2013-02-24 05:08:00,
2013-02-23 23:09:00,34.5,26.6,29.89,WNW,293,0.0,0.0,73,0.00,,,0.00,WUHU216HW,2013-02-24 05:09:00,
2013-02-23 23:10:00,34.3,26.4,29.89,WNW,293,0.0,0.0,73,0.00,,,0.00,WUHU216HW,2013-02-24 05:10:00,
2013-02-23 23:11:00,34.3,26.4,29.89,WNW,293,0.0,0.0,73,0.00,,,0.00,WUHU216HW,2013-02-24 05:11:00,
2013-02-23 23:12:00,33.9,26.4,29.89,WNW,293,0.0,0.0,74,0.00,,,0.00,WUHU216HW,2013-02-24 05:12:00,
2013-02-23 23:13:00,33.9,26.4,29.89,WNW,293,0.0,0.0,74,0.00,,,0.00,WUHU216HW,2013-02-24 05:13:00,
2013-02-23 23:14:00,33.8,26.6,29.89,WNW,293,0.0,0.0,75,0.00,,,0.00,WUHU216HW,2013-02-24 05:14:00,
2013-02-23 23:15:00,33.8,26.6,29.89,WNW,293,0.0,0.0,75,0.00,,,0.00,WUHU216HW,2013-02-24 05:15:00,
2013-02-23 23:16:00,33.6,26.6,29.89,WNW,293,0.0,0.0,75,0.00,,,0.00,WUHU216HW,2013-02-24 05:16:00,
2013-02-23 23:17:00,33.6,26.4,29.89,WNW,293,0.0,0.0,75,0.00,,,0.00,WUHU216HW,2013-02-24 05:17:00,
2013-02-23 23:18:00,33.6,26.4,29.89,WNW,293,0.0,0.0,75,0.00,,,0.00,WUHU216HW,2013-02-24 05:18:00,
2013-02-23 23:19:00,33.6,26.4,29.89,WNW,293,0.0,0.0,75,0.00,,,0.00,WUHU216HW,2013-02-24 05:19:00,
2013-02-23 23:20:00,33.6,26.4,29.89,WNW,293,0.0,0.0,75,0.00,,,0.00,WUHU216HW,2013-02-24 05:20:00,
2013-02-23 23:21:00,33.4,26.2,29.89,WNW,293,0.0,0.0,75,0.00,,,0.00,WUHU216HW,2013-02-24 05:21:00,
2013-02-23 23:22:00,33.4,26.2,29.89,WNW,293,0.0,0.0,75,0.00,,,0.00,WUHU216HW,2013-02-24 05:22:00,
2013-02-23 23:23:00,33.4,26.2,29.90,WNW,293,0.0,0.0,75,0.00,,,0.00,WUHU216HW,2013-02-24 05:23:00,
2013-02-23 23:24:00,33.4,26.2,29.90,WNW,293,0.0,0.0,75,0.00,,,0.00,WUHU216HW,2013-02-24 05:24:00,
2013-02-23 23:25:00,33.2,26.4,29.89,WNW,293,0.0,0.0,76,0.00,,,0.00,WUHU216HW,2013-02-24 05:25:00,
2013-02-23 23:26:00,33.2,26.4,29.89,WNW,293,0.0,0.0,76,0.00,,,0.00,WUHU216HW,2013-02-24 05:26:00,
2013-02-23 23:27:00,33.0,26.2,29.89,WNW,293,0.0,0.0,76,0.00,,,0.00,WUHU216HW,2013-02-24 05:27:00,
2013-02-23 23:28:00,33.0,26.2,29.90,WNW,293,0.0,0.0,76,0.00,,,0.00,WUHU216HW,2013-02-24 05:28:00,
2013-02-23 23:29:00,33.0,26.2,29.90,WNW,293,0.0,0.0,76,0.00,,,0.00,WUHU216HW,2013-02-24 05:29:00,
2013-02-23 23:30:00,33.0,26.2,29.89,WNW,293,0.0,0.0,76,0.00,,,0.00,WUHU216HW,2013-02-24 05:30:00,
2013-02-23 23:31:00,33.0,26.2,29.90,WNW,293,0.0,0.0,76,0.00,,,0.00,WUHU216HW,2013-02-24 05:31:00,
2013-02-23 23:32:00,32.9,26.1,29.90,WNW,293,0.0,0.0,76,0.00,,,0.00,WUHU216HW,2013-02-24 05:32:00,
2013-02-23 23:33:00,32.9,26.1,29.90,WNW,293,0.0,0.0,76,0.00,,,0.00,WUHU216HW,2013-02-24 05:33:00,
2013-02-23 23:34:00,32.7,26.2,29.90,WNW,293,0.0,0.0,77,0.00,,,0.00,WUHU216HW,2013-02-24 05:34:00,
2013-02-23 23:35:00,32.7,26.2,29.89,WNW,293,0.0,0.0,77,0.00,,,0.00,WUHU216HW,2013-02-24 05:35:00,
2013-02-23 23:36:00,32.7,26.2,29.89,WNW,293,0.0,0.0,77,0.00,,,0.00,WUHU216HW,2013-02-24 05:36:00,
2013-02-23 23:37:00,32.7,26.2,29.89,WNW,293,0.0,0.0,77,0.00,,,0.00,WUHU216HW,2013-02-24 05:37:00,
2013-02-23 23:38:00,32.5,26.1,29.90,WNW,293,0.0,0.0,77,0.00,,,0.00,WUHU216HW,2013-02-24 05:38:00,
2013-02-23 23:39:00,32.5,26.1,29.90,WNW,293,0.0,0.0,77,0.00,,,0.00,WUHU216HW,2013-02-24 05:39:00,
2013-02-23 23:40:00,32.3,25.9,29.90,WNW,293,0.0,0.0,77,0.00,,,0.00,WUHU216HW,2013-02-24 05:40:00,
2013-02-23 23:41:00,32.3,25.9,29.90,WNW,293,0.0,0.0,77,0.00,,,0.00,WUHU216HW,2013-02-24 05:41:00,
2013-02-23 23:42:00,32.3,25.9,29.90,WNW,293,0.0,0.0,77,0.00,,,0.00,WUHU216HW,2013-02-24 05:42:00,
2013-02-23 23:43:00,32.3,25.9,29.90,WNW,293,0.0,0.0,77,0.00,,,0.00,WUHU216HW,2013-02-24 05:43:00,
2013-02-23 23:44:00,32.3,26.2,29.90,WNW,293,0.0,0.0,77,0.00,,,0.00,WUHU216HW,2013-02-24 05:44:00,
2013-02-23 23:45:00,32.3,26.2,29.90,WNW,293,0.0,0.0,78,0.00,,,0.00,WUHU216HW,2013-02-24 05:45:00,
2013-02-23 23:46:00,32.3,26.2,29.90,WNW,293,0.0,0.0,78,0.00,,,0.00,WUHU216HW,2013-02-24 05:46:00,
2013-02-23 23:47:00,32.3,26.2,29.90,WNW,293,0.0,0.0,78,0.00,,,0.00,WUHU216HW,2013-02-24 05:47:00,
2013-02-23 23:48:00,32.3,26.2,29.90,WNW,293,0.0,0.0,78,0.00,,,0.00,WUHU216HW,2013-02-24 05:48:00,
2013-02-23 23:49:00,32.1,26.1,29.90,WNW,293,0.0,0.0,78,0.00,,,0.00,WUHU216HW,2013-02-24 05:49:00,
2013-02-23 23:50:00,32.1,26.1,29.90,WNW,293,0.0,0.0,78,0.00,,,0.00,WUHU216HW,2013-02-24 05:50:00,
2013-02-23 23:51:00,32.1,26.1,29.90,WNW,293,0.0,0.0,78,0.00,,,0.00,WUHU216HW,2013-02-24 05:51:00,
2013-02-23 23:57:00,32.1,26.1,29.90,WNW,293,0.0,0.0,78,0.00,,,0.00,WUHU216HW,2013-02-24 05:57:00,
2013-02-23 23:58:00,32.1,26.1,29.90,WNW,293,0.0,0.0,78,0.00,,,0.00,WUHU216HW,2013-02-24 05:58:00,
2013-02-23 23:59:00,32.1,26.0,29.90,WNW,293,0.0,0.0,78,0.00,,,0.00,WUHU216HW,2013-02-24 05:59:00,